GFSWCAN_prec_kuchsnow_078.txt.gz
Snowfall_Accumulation
0.0 0.0 0.0 0.0 0.0 0.0 0.0 0.0 0.0 0.0 0.0 0.0 0.0 0.0 0.0 0.0 0.0 0.0 0.0 0.0 0.0 0.0 0.0 0.0 0.0 0.0 0.0 0.0 0.0 0.0 0.0 0.0 0.0 1.6 1.4 0.3 0.0 0.0 0.0 0.0 0.0 0.0 0.0 0.4 0.6 0.9 0.1 0.0 0.0 0.0 0.0 0.0 0.0 0.0
0.0 0.0 0.0 0.0 0.0 0.0 0.0 0.0 0.0 0.0 0.0 0.0 0.0 0.0 0.0 0.0 0.0 0.0 0.0 0.0 0.0 0.0 0.0 0.0 0.0 0.0 0.0 0.0 0.0 0.0 0.0 0.2 0.9 1.5 3.3 3.0 1.4 0.5 0.0 0.0 0.0 0.0 0.0 0.0 0.0 0.0 0.0 0.0 0.0 0.0 0.0 0.0 0.0 0.0
0.0 0.0 0.0 0.0 0.0 0.0 0.0 0.0 0.0 0.0 0.0 0.0 0.0 0.0 0.0 0.0 0.0 0.0 0.0 0.0 0.0 0.0 0.0 0.0 0.0 0.0 0.0 0.0 0.0 0.0 0.0 0.0 0.0 1.6 1.5 0.2 1.9 1.1 0.6 0.0 0.0 0.0 0.0 0.0 0.0 0.0 0.0 0.0 0.0 0.0 0.0 0.0 0.0 0.0
0.0 0.0 0.0 0.0 0.0 0.0 0.0 0.0 0.0 0.0 0.0 0.0 0.0 0.0 0.0 0.0 0.0 0.0 0.0 0.0 0.0 0.0 1.8 0.0 0.0 0.0 0.0 0.0 0.0 0.0 0.0 0.0 0.0 0.9 2.3 1.2 0.1 0.4 0.1 0.2 0.1 0.0 0.0 0.0 0.0 0.0 0.0 0.0 0.0 0.0 0.0 0.0 0.0 0.0
0.0 0.0 0.0 0.0 0.0 0.0 0.0 0.0 0.0 0.0 0.0 0.0 0.0 0.0 0.0 0.0 0.0 0.0 0.0 0.0 0.0 0.4 2.2 0.4 0.0 0.0 0.0 0.0 0.0 0.0 0.0 0.0 0.1 1.0 0.6 1.7 0.3 0.7 0.0 0.0 0.0 0.0 0.0 0.0 0.0 0.0 0.0 0.0 0.0 0.0 0.0 0.0 0.0 0.0
0.0 0.0 0.0 0.0 0.0 0.0 0.0 0.0 0.0 0.0 0.0 0.0 0.0 0.0 0.0 0.0 0.0 0.0 0.0 0.0 0.0 0.0 2.7 2.4 0.0 0.0 0.0 0.0 0.0 0.0 0.0 0.0 0.0 0.2 0.6 0.0 0.0 1.3 1.2 0.5 0.0 0.0 0.0 0.0 0.0 0.0 0.0 0.0 0.0 0.0 0.0 0.0 0.0 0.0
0.0 0.0 0.0 0.0 0.0 0.0 0.0 0.0 0.0 0.0 0.0 0.0 0.0 0.0 0.0 0.0 0.0 0.0 0.0 0.0 0.0 0.0 1.5 5.5 2.7 0.0 0.0 0.0 0.0 0.0 0.0 0.0 0.1 0.1 1.0 0.5 0.0 1.2 2.2 0.1 0.0 0.0 0.0 0.0 0.0 0.0 0.0 0.0 0.0 0.0 0.0 0.0 0.0 0.0
0.0 0.0 0.0 0.0 0.0 0.0 0.0 0.0 0.0 0.0 0.0 0.0 0.0 0.0 0.0 0.0 0.0 0.0 0.0 0.0 0.0 0.0 1.2 4.9 1.7 1.0 0.0 0.1 0.1 0.0 0.1 0.3 0.5 0.6 0.2 0.0 0.0 0.2 0.7 0.0 0.0 0.0 0.0 0.0 0.0 0.0 0.0 0.0 0.0 0.0 0.0 0.0 0.0 0.0
0.0 0.0 0.0 0.0 0.0 0.0 0.0 0.0 0.0 0.0 0.0 0.0 0.0 0.0 0.0 0.0 0.0 0.0 0.0 0.0 0.0 0.0 2.5 2.2 2.9 4.9 0.0 0.0 0.1 0.1 0.1 3.5 0.0 1.2 0.4 0.2 0.0 2.2 0.0 0.0 0.0 0.0 0.0 0.0 0.0 0.0 0.0 0.0 0.0 0.0 0.0 0.0 0.0 0.0
0.0 0.0 0.0 0.0 0.0 0.0 0.0 0.0 0.0 0.0 0.0 0.0 0.0 0.0 0.3 0.0 0.0 0.0 0.0 1.2 1.8 1.5 1.2 1.3 0.3 1.7 0.0 0.0 1.8 0.4 0.5 2.0 5.0 0.0 0.0 0.4 0.4 0.0 0.0 0.0 0.0 0.0 0.0 0.0 0.0 0.0 0.0 0.0 0.0 0.0 0.0 0.0 0.0 0.0
0.0 0.0 0.0 0.0 0.0 0.0 0.0 0.0 0.0 0.0 0.0 0.0 1.0 0.5 0.0 0.0 0.0 0.0 1.7 1.8 1.1 1.3 0.1 0.0 0.1 1.3 0.0 3.1 3.6 1.5 5.0 2.7 8.8 3.1 1.7 4.0 2.9 0.2 0.0 0.0 0.0 0.0 0.0 0.0 0.0 0.0 0.0 0.0 0.0 0.0 0.0 0.0 0.0 0.0
0.0 0.0 0.0 0.0 0.0 0.0 0.0 0.0 0.0 0.0 3.0 0.0 0.0 0.0 0.0 0.5 1.8 3.0 2.8 0.8 0.7 0.0 0.0 0.6 1.3 1.4 0.6 0.4 1.8 0.7 3.7 3.4 4.5 0.6 2.8 4.3 2.0 1.0 0.1 0.0 0.0 0.0 0.0 0.0 0.0 0.0 0.0 0.0 0.0 0.0 0.0 0.0 0.0 0.0
0.0 0.0 0.0 0.0 0.0 0.0 0.0 0.0 0.0 0.0 0.0 0.0 2.5 9.2 7.1 5.8 8.8 2.6 2.0 0.6 0.2 0.0 0.0 1.4 1.9 0.0 0.4 1.2 1.2 1.1 1.1 1.5 0.4 1.8 1.4 1.3 0.3 0.2 0.3 0.1 0.0 0.0 0.7 1.2 0.5 0.2 0.0 0.0 0.0 0.0 0.0 0.0 0.0 0.0
0.0 0.0 0.0 0.0 0.0 0.0 0.0 0.0 0.0 0.0 2.7 3.7 13.7 18.8 7.1 5.1 0.6 0.6 0.4 0.0 0.0 0.0 0.0 0.3 0.8 1.3 0.0 1.6 1.5 1.9 0.4 0.3 0.8 0.4 0.0 0.0 0.0 0.0 0.0 0.0 0.0 0.3 0.1 0.2 0.3 0.4 0.2 0.4 0.4 0.3 0.3 0.0 0.0 0.0
0.0 0.0 0.0 0.0 0.0 0.0 0.0 0.0 0.0 0.0 3.6 12.7 6.9 7.2 2.8 0.6 0.2 0.1 0.3 0.1 0.0 0.0 0.0 0.0 0.0 0.5 1.7 2.4 1.4 0.8 1.1 0.7 0.3 0.4 0.0 0.0 0.0 0.0 0.0 0.4 1.5 0.9 0.3 0.0 0.0 0.0 0.0 0.1 0.0 0.0 0.0 0.0 0.0 0.0
0.0 0.0 0.0 0.0 0.0 0.0 0.0 0.0 0.0 0.0 14.9 12.1 6.9 3.8 0.4 0.1 0.0 0.0 0.1 0.0 0.0 0.0 0.0 0.0 1.8 1.5 1.2 1.2 1.3 1.0 1.0 0.6 0.7 0.3 0.0 0.0 0.0 0.0 0.1 0.4 0.8 0.1 0.0 0.0 0.0 0.0 0.0 0.0 0.0 0.0 0.0 0.0 0.0 0.0
0.0 0.0 0.0 0.0 0.0 0.0 0.0 2.1 4.4 13.7 15.5 12.6 4.2 0.1 0.0 0.2 0.1 0.2 0.2 0.1 0.0 0.3 1.5 2.7 3.0 1.8 0.4 0.7 0.3 0.1 0.2 0.3 0.0 0.1 0.0 0.0 0.0 0.0 0.0 0.2 0.4 0.0 0.0 0.0 0.0 0.0 0.0 0.0 0.0 0.0 0.0 0.0 0.0 0.0
0.0 0.0 0.0 0.0 0.0 0.0 1.3 9.5 14.7 14.7 15.4 6.7 0.5 0.1 0.1 0.0 0.2 0.2 0.2 0.5 1.1 1.8 2.0 4.1 1.4 1.3 0.6 0.6 0.2 0.0 0.0 0.0 0.0 0.0 0.0 0.0 0.0 0.0 0.0 0.2 0.2 0.0 0.0 0.0 0.0 0.0 0.0 0.0 0.0 0.0 0.0 0.0 0.0 0.0
0.0 0.0 0.0 0.0 0.0 1.5 8.0 9.3 9.8 13.0 7.1 2.4 0.2 0.1 0.2 0.0 0.0 0.0 0.0 0.4 0.9 1.8 3.4 4.8 3.6 1.0 0.0 0.2 0.2 0.0 0.0 0.0 0.1 0.0 0.0 0.0 0.0 0.0 0.0 0.0 0.0 0.0 0.0 0.0 0.0 0.0 0.0 0.0 0.0 0.0 0.0 0.0 0.0 0.0
0.0 0.0 0.0 0.0 0.0 2.9 5.5 8.5 4.5 6.4 5.0 2.8 1.2 0.7 0.7 0.4 0.1 0.3 0.1 0.0 0.5 2.0 3.5 3.2 0.5 0.1 0.0 0.1 0.2 0.2 0.0 0.0 0.0 0.0 0.0 0.0 0.0 0.0 0.0 0.0 0.0 0.0 0.0 0.0 0.0 0.0 0.0 0.0 0.0 0.0 0.0 0.0 0.0 0.0
0.0 0.0 0.0 0.0 2.8 3.0 4.0 4.7 6.4 5.6 4.9 4.5 5.3 3.3 3.1 1.3 1.1 1.2 2.8 1.1 3.6 4.4 2.5 1.2 0.1 0.0 0.2 0.1 0.0 0.0 0.1 0.0 0.0 0.0 0.0 0.0 0.0 0.0 0.0 0.0 0.0 0.0 0.0 0.0 0.0 0.0 0.0 0.0 0.0 0.0 0.0 0.0 0.0 0.0
0.3 0.0 1.8 0.7 5.6 3.9 2.7 3.0 4.9 4.7 4.1 5.6 7.1 6.7 6.4 5.3 5.5 5.7 5.2 8.3 9.7 4.3 1.3 0.5 0.6 0.8 0.4 0.4 0.3 0.8 0.0 0.4 0.0 0.0 0.0 0.0 0.0 0.0 0.0 0.0 0.0 0.0 0.0 0.0 0.0 0.0 0.0 0.0 0.0 0.0 0.0 0.0 0.0 0.0
0.0 0.8 2.9 3.4 4.1 2.0 4.2 2.3 3.6 4.2 4.8 6.1 6.4 7.7 9.2 8.1 9.0 8.0 13.5 9.2 6.3 3.2 2.0 1.7 1.4 1.7 1.6 1.0 0.6 0.2 0.1 0.0 0.0 0.2 0.1 0.0 0.0 0.0 0.0 0.0 0.0 0.0 0.0 0.0 0.0 0.0 0.0 0.0 0.0 0.0 0.0 0.0 0.0 0.0
0.0 3.1 3.0 2.4 1.8 3.0 2.0 2.8 2.0 2.7 3.7 4.3 5.4 6.1 5.6 7.7 7.5 8.9 8.5 3.7 3.2 3.4 2.8 3.0 2.2 1.1 1.6 1.8 2.0 1.4 0.9 0.4 0.1 0.1 0.7 0.5 0.1 0.0 0.0 0.0 0.0 0.0 0.0 0.0 0.0 0.0 0.0 0.0 0.0 0.0 0.0 0.0 0.0 0.0
4.5 3.8 2.0 1.3 0.5 0.3 0.6 1.9 2.2 1.7 2.9 4.2 5.1 5.4 5.8 6.2 8.3 6.9 3.9 3.2 4.9 6.5 5.3 3.7 2.4 1.9 1.5 1.7 1.6 1.9 1.7 2.2 1.8 0.6 0.2 1.2 0.8 0.5 0.1 0.6 0.2 0.0 0.0 0.0 0.0 0.0 0.0 0.0 0.0 0.0 0.0 0.0 0.0 0.2
2.7 0.9 0.3 0.1 0.0 0.0 0.0 0.9 1.9 2.7 2.9 4.0 4.6 4.4 5.0 5.4 5.2 5.2 3.3 3.8 5.8 7.1 7.1 6.1 4.0 2.2 2.4 2.7 2.3 2.7 2.4 2.4 2.0 1.5 2.2 2.3 1.6 1.7 1.3 1.1 1.1 0.7 0.0 0.3 0.3 0.4 0.4 0.3 0.2 0.2 0.3 0.0 0.7 1.1
1.1 0.2 0.0 0.0 0.0 0.0 0.1 0.0 0.0 0.0 1.0 2.3 2.5 2.7 3.0 4.0 4.8 2.6 2.2 4.0 6.1 7.0 7.5 7.4 6.4 4.1 3.6 3.4 3.6 3.7 3.9 3.6 3.7 1.6 3.2 3.8 3.3 2.0 1.4 1.5 0.8 0.4 0.3 1.6 1.2 1.1 1.3 1.3 1.3 1.4 2.0 2.3 2.3 2.2
0.0 0.0 0.0 0.0 0.0 0.1 0.1 0.0 0.0 0.0 0.0 0.2 1.4 1.6 1.9 2.2 1.2 1.4 2.6 3.7 6.3 7.1 7.7 7.8 7.5 5.5 4.4 4.1 4.4 4.7 5.2 5.5 5.3 4.9 4.4 4.9 4.9 4.5 3.6 3.8 3.1 2.6 2.5 2.7 2.9 2.9 2.7 2.9 2.9 2.8 3.3 3.2 2.7 2.8
0.2 0.0 0.0 0.0 0.1 0.2 0.0 0.0 0.0 0.0 0.0 0.0 0.0 0.6 0.4 0.6 1.0 1.6 2.5 4.3 5.5 6.1 7.0 7.3 7.4 7.1 6.2 5.6 5.8 5.9 5.3 5.5 4.9 4.3 3.0 3.0 3.4 4.3 5.4 5.3 4.9 5.7 4.9 4.0 2.9 3.1 3.0 3.1 3.5 3.8 3.6 3.7 3.5 3.7
0.0 0.0 0.0 0.0 0.0 0.0 0.0 0.0 0.0 0.0 0.0 0.0 0.0 0.1 0.1 0.4 1.1 1.7 2.4 3.4 5.1 6.1 7.2 7.4 7.0 7.3 7.2 6.7 7.2 7.2 6.9 6.4 6.1 4.5 3.6 3.1 2.6 4.4 5.4 5.7 5.7 4.5 5.0 5.2 4.6 4.5 3.4 4.3 4.2 4.9 4.8 4.8 4.8 4.6
0.0 0.0 0.0 0.0 0.0 0.0 0.0 0.2 0.2 0.0 0.0 0.0 0.0 0.0 0.1 0.1 0.7 1.3 2.1 3.1 4.1 5.1 5.9 6.5 6.8 7.4 7.2 7.1 7.3 6.9 6.5 6.4 6.5 6.3 5.7 5.4 5.4 5.4 6.3 6.3 5.9 6.2 6.1 5.7 4.5 4.7 4.2 3.1 2.5 2.9 3.1 3.4 3.9 3.4
0.2 0.0 0.0 0.0 0.0 0.4 0.4 0.1 0.2 0.0 0.0 0.0 0.0 0.0 0.1 0.2 0.3 0.6 1.1 1.8 2.7 3.6 4.4 5.2 5.4 5.8 6.0 6.1 5.9 6.0 5.7 5.7 5.2 6.0 5.7 5.0 4.7 5.1 5.5 5.5 6.0 6.1 6.4 6.7 6.2 6.0 5.9 5.1 6.2 5.8 5.7 5.8 5.6 5.1
1.3 0.8 0.8 0.4 0.0 0.0 0.1 0.0 0.0 0.0 0.0 0.0 0.0 0.1 0.1 0.2 0.2 0.2 0.6 1.3 1.9 2.7 3.5 4.1 4.6 5.2 5.3 5.4 5.6 6.0 6.3 7.1 7.0 6.6 6.9 6.6 5.8 5.7 5.9 5.9 5.7 6.1 6.3 6.5 7.0 7.6 8.3 8.0 7.6 6.8 6.7 6.6 6.6 6.5

GFSWCAN_prec_kuchsnow_081.txt.gz
Snowfall_Accumulation
0.0 0.0 0.0 0.0 0.0 0.0 0.0 0.0 0.0 0.0 0.0 0.0 0.0 0.0 0.0 0.0 0.0 0.0 0.0 0.0 0.0 0.0 0.0 0.0 0.0 0.0 0.0 0.0 0.0 0.0 0.0 0.0 0.0 1.6 1.4 1.2 0.3 0.0 0.1 0.0 0.0 0.0 0.0 0.6 0.8 1.2 0.1 0.0 0.0 0.0 0.0 0.0 0.0 0.0
0.0 0.0 0.0 0.0 0.0 0.0 0.0 0.0 0.0 0.0 0.0 0.0 0.0 0.0 0.0 0.0 0.0 0.0 0.0 0.0 0.0 0.0 0.0 0.0 0.0 0.0 0.0 0.0 0.0 0.0 0.0 0.2 0.9 1.5 3.3 3.0 2.9 2.4 0.8 0.6 0.0 0.1 0.0 0.0 0.0 0.0 0.0 0.0 0.0 0.0 0.0 0.0 0.0 0.0
0.0 0.0 0.0 0.0 0.0 0.0 0.0 0.0 0.0 0.0 0.0 0.0 0.0 0.0 0.0 0.0 0.0 0.0 0.0 0.0 0.0 0.0 0.0 0.0 0.0 0.0 0.0 0.0 0.0 0.1 0.0 0.0 0.0 1.6 1.5 0.2 1.9 1.1 0.6 1.0 0.4 0.1 0.0 0.0 0.0 0.0 0.0 0.0 0.0 0.0 0.0 0.0 0.0 0.0
0.0 0.0 0.0 0.0 0.0 0.0 0.0 0.0 0.0 0.0 0.0 0.0 0.0 0.0 0.0 0.0 0.0 0.0 0.0 0.0 0.0 0.0 1.8 0.0 0.0 0.0 0.0 0.0 0.0 0.0 0.0 0.0 0.0 0.9 2.3 1.2 0.1 0.4 0.1 0.2 0.1 0.0 0.0 0.0 0.0 0.0 0.0 0.0 0.0 0.0 0.0 0.0 0.0 0.0
0.0 0.0 0.0 0.0 0.0 0.0 0.0 0.0 0.0 0.0 0.0 0.0 0.0 0.0 0.0 0.0 0.0 0.0 0.0 0.0 0.0 0.4 2.2 0.4 0.0 0.0 0.0 0.0 0.0 0.0 0.0 0.0 0.1 1.1 0.7 1.8 0.3 0.7 0.0 0.0 0.0 0.0 0.0 0.0 0.0 0.0 0.0 0.0 0.0 0.0 0.0 0.0 0.0 0.0
0.0 0.0 0.0 0.0 0.0 0.0 0.0 0.0 0.0 0.0 0.0 0.0 0.0 0.0 0.0 0.0 0.0 0.0 0.0 0.0 0.0 0.0 2.7 2.4 0.0 0.0 0.0 0.0 0.0 0.0 0.0 0.0 0.0 0.2 0.7 0.0 0.0 1.3 1.2 0.6 0.0 0.0 0.0 0.0 0.0 0.0 0.0 0.0 0.0 0.0 0.0 0.0 0.0 0.0
0.0 0.0 0.0 0.0 0.0 0.0 0.0 0.0 0.0 0.0 0.0 0.0 0.0 0.0 0.0 0.0 0.0 0.0 0.0 0.0 0.0 0.0 1.5 5.5 2.7 0.0 0.0 0.0 0.0 0.0 0.0 0.0 0.2 0.3 1.1 0.5 0.0 1.2 2.2 0.1 0.0 0.0 0.0 0.0 0.0 0.0 0.0 0.0 0.0 0.0 0.0 0.0 0.0 0.0
0.0 0.0 0.0 0.0 0.0 0.0 0.0 0.0 0.0 0.0 0.0 0.0 0.0 0.0 0.0 0.0 0.0 0.0 0.0 0.0 0.0 0.0 1.2 4.9 1.7 1.0 0.0 0.1 0.1 0.0 0.2 0.4 0.6 0.6 0.2 0.0 0.0 0.2 0.8 0.0 0.0 0.0 0.0 0.0 0.0 0.0 0.0 0.0 0.0 0.0 0.0 0.0 0.0 0.0
0.0 0.0 0.0 0.0 0.0 0.0 0.0 0.0 0.0 0.0 0.0 0.0 0.0 0.0 0.0 0.0 0.0 0.0 0.0 0.0 0.0 0.0 2.5 2.2 2.9 4.9 0.0 0.0 0.1 0.1 0.3 3.8 0.0 1.2 0.4 0.4 0.0 2.3 0.0 0.0 0.0 0.0 0.0 0.0 0.0 0.0 0.0 0.0 0.0 0.0 0.0 0.0 0.0 0.0
0.0 0.0 0.0 0.0 0.0 0.0 0.0 0.0 0.0 0.0 0.0 0.0 0.0 0.0 0.3 0.0 0.0 0.0 0.0 1.2 1.8 1.6 1.2 1.3 0.3 1.7 0.0 0.0 1.8 0.4 0.6 2.0 5.0 0.0 0.0 0.7 0.4 0.0 0.0 0.0 0.0 0.0 0.0 0.0 0.0 0.0 0.0 0.0 0.0 0.0 0.0 0.0 0.0 0.0
0.0 0.0 0.0 0.0 0.0 0.0 0.0 0.0 0.0 0.0 0.0 0.0 1.0 0.6 0.0 0.0 0.0 0.0 1.7 1.8 1.1 1.3 0.1 0.0 0.1 1.3 0.0 3.1 3.6 1.5 5.2 2.7 9.0 3.1 2.2 4.0 2.9 0.9 0.0 0.0 0.0 0.0 0.0 0.0 0.0 0.0 0.0 0.0 0.0 0.0 0.0 0.0 0.0 0.0
0.0 0.0 0.0 0.0 0.0 0.0 0.0 0.0 0.0 0.0 3.0 0.0 0.0 0.0 0.0 0.5 1.8 3.0 2.8 0.8 0.7 0.0 0.0 0.6 1.3 1.4 0.6 0.5 2.0 0.7 4.0 3.7 4.5 0.9 3.1 4.3 3.1 2.1 0.5 0.0 0.0 0.0 0.0 0.0 0.0 0.0 0.0 0.0 0.0 0.0 0.0 0.0 0.0 0.0
0.0 0.0 0.0 0.0 0.0 0.0 0.0 0.0 0.0 0.0 0.0 0.0 2.5 9.2 7.1 5.8 8.8 2.6 2.0 0.6 0.2 0.0 0.0 1.4 2.0 0.0 0.5 1.4 1.3 1.3 1.5 2.0 0.8 2.2 1.7 1.9 0.7 0.7 1.1 0.4 0.0 0.0 0.7 1.2 0.5 0.2 0.0 0.0 0.0 0.0 0.0 0.0 0.0 0.0
0.0 0.0 0.0 0.0 0.0 0.0 0.0 0.0 0.0 0.0 2.7 3.7 13.7 18.8 7.1 5.1 0.6 0.6 0.4 0.0 0.0 0.0 0.0 0.3 0.8 1.3 0.0 1.7 1.6 2.2 0.5 0.5 1.3 0.6 0.1 0.0 0.0 0.1 0.2 0.4 0.3 0.4 0.1 0.2 0.3 0.4 0.2 0.4 0.4 0.3 0.3 0.0 0.0 0.0
0.0 0.0 0.0 0.0 0.0 0.0 0.0 0.0 0.0 0.0 3.6 12.7 6.9 7.2 2.8 0.6 0.2 0.1 0.3 0.1 0.0 0.0 0.0 0.0 0.0 0.5 1.7 2.6 1.6 0.8 1.4 0.7 0.6 0.6 0.0 0.0 0.1 0.1 0.1 0.6 2.1 1.1 0.5 0.1 0.0 0.0 0.1 0.2 0.2 0.1 0.0 0.0 0.0 0.0
0.0 0.0 0.0 0.0 0.0 0.0 0.0 0.0 0.0 0.0 14.9 12.1 6.9 3.8 0.4 0.1 0.0 0.0 0.1 0.0 0.0 0.0 0.0 0.0 1.8 1.6 1.5 1.5 1.6 1.0 1.3 0.8 0.7 0.3 0.0 0.0 0.0 0.2 0.4 1.1 1.5 0.4 0.2 0.1 0.0 0.0 0.0 0.0 0.0 0.0 0.0 0.0 0.0 0.0
0.0 0.0 0.0 0.0 0.0 0.0 0.0 2.1 4.4 13.7 15.5 12.6 4.2 0.1 0.0 0.2 0.1 0.2 0.2 0.1 0.0 0.3 1.5 2.7 3.0 1.8 0.4 1.1 0.3 0.1 0.2 0.3 0.0 0.1 0.0 0.0 0.0 0.0 0.5 0.9 1.0 0.3 0.3 0.1 0.0 0.0 0.0 0.0 0.0 0.0 0.0 0.0 0.0 0.0
0.0 0.0 0.0 0.0 0.0 0.0 1.3 9.5 14.7 14.7 15.4 6.7 0.5 0.1 0.1 0.0 0.2 0.2 0.2 0.5 1.1 1.8 2.0 4.1 1.4 1.3 0.6 0.6 0.2 0.0 0.0 0.0 0.0 0.0 0.0 0.0 0.0 0.0 0.0 0.6 0.8 0.5 0.3 0.0 0.0 0.0 0.0 0.0 0.0 0.0 0.0 0.0 0.0 0.0
0.0 0.0 0.0 0.0 0.0 1.5 8.0 9.3 9.8 13.0 7.1 2.4 0.2 0.1 0.2 0.0 0.0 0.0 0.0 0.4 0.9 1.8 3.4 4.8 3.6 1.0 0.0 0.2 0.2 0.0 0.0 0.0 0.1 0.0 0.0 0.0 0.0 0.0 0.0 0.0 0.0 0.0 0.0 0.0 0.0 0.0 0.0 0.0 0.0 0.0 0.0 0.0 0.0 0.0
0.0 0.0 0.0 0.0 0.0 2.9 5.5 8.7 4.5 6.4 5.0 2.8 1.2 0.7 0.7 0.4 0.1 0.3 0.1 0.0 0.5 2.0 3.6 3.3 0.5 0.1 0.0 0.1 0.2 0.2 0.0 0.0 0.0 0.0 0.0 0.0 0.0 0.0 0.0 0.0 0.0 0.0 0.0 0.0 0.0 0.0 0.0 0.0 0.0 0.0 0.0 0.0 0.0 0.0
0.0 0.0 0.0 0.0 2.8 3.0 4.0 4.7 6.4 5.6 4.9 4.5 5.3 3.3 3.1 1.3 1.1 1.2 2.8 1.1 3.7 4.5 2.5 1.2 0.1 0.0 0.2 0.1 0.0 0.0 0.1 0.0 0.0 0.0 0.0 0.0 0.0 0.0 0.0 0.0 0.0 0.0 0.0 0.0 0.0 0.0 0.0 0.0 0.0 0.0 0.0 0.0 0.0 0.0
0.3 0.0 1.8 0.7 6.6 3.9 2.7 3.0 4.9 4.7 4.1 5.6 7.1 6.7 6.4 5.3 5.5 5.7 5.3 8.4 9.7 4.3 1.3 0.5 0.6 0.8 0.4 0.4 0.3 0.8 0.0 0.4 0.0 0.0 0.0 0.0 0.0 0.0 0.0 0.0 0.0 0.0 0.0 0.0 0.0 0.0 0.0 0.0 0.0 0.0 0.0 0.0 0.0 0.0
0.0 0.8 3.3 4.4 5.0 2.0 4.7 2.3 3.6 4.2 4.8 6.2 6.4 7.7 9.2 8.1 9.0 8.0 13.5 9.2 6.3 3.2 2.0 1.7 1.4 1.7 1.6 1.0 0.6 0.2 0.1 0.0 0.0 0.2 0.1 0.0 0.0 0.0 0.0 0.0 0.0 0.0 0.0 0.0 0.0 0.0 0.0 0.0 0.0 0.0 0.0 0.0 0.0 0.0
0.0 3.6 3.7 2.4 2.2 3.5 2.4 3.2 2.1 2.7 3.7 4.3 5.4 6.1 5.6 7.7 7.5 8.9 8.5 3.7 3.2 3.4 2.8 3.0 2.2 1.1 1.6 1.8 2.0 1.4 0.9 0.4 0.1 0.1 0.7 0.5 0.1 0.0 0.0 0.0 0.0 0.0 0.0 0.0 0.0 0.0 0.0 0.0 0.0 0.0 0.0 0.0 0.0 0.0
4.9 4.7 2.5 1.8 0.9 0.3 0.6 1.9 2.2 1.7 2.9 4.2 5.1 5.4 5.8 6.2 8.3 6.9 3.9 3.2 4.9 6.5 5.3 3.7 2.4 1.9 1.5 1.7 1.6 1.9 1.7 2.2 1.8 0.6 0.2 1.2 0.8 0.5 0.1 0.6 0.2 0.0 0.0 0.0 0.0 0.0 0.0 0.0 0.0 0.0 0.0 0.0 0.0 0.2
2.7 1.1 0.5 0.4 0.3 0.0 0.0 0.9 1.9 2.7 2.9 4.0 4.6 4.4 5.0 5.4 5.2 5.2 3.3 3.8 5.8 7.1 7.1 6.1 4.0 2.2 2.4 2.7 2.3 2.7 2.4 2.4 2.0 1.5 2.2 2.3 1.6 1.7 1.3 1.1 1.1 0.7 0.0 0.3 0.3 0.4 0.4 0.3 0.2 0.2 0.3 0.0 0.7 1.1
1.1 0.2 0.0 0.0 0.0 0.0 0.1 0.0 0.0 0.0 1.0 2.3 2.5 2.7 3.0 4.0 4.8 2.6 2.2 4.0 6.1 7.0 7.5 7.4 6.4 4.1 3.6 3.4 3.6 3.7 3.9 3.6 3.7 1.6 3.2 3.8 3.3 2.0 1.4 1.5 0.8 0.4 0.3 1.6 1.2 1.1 1.3 1.3 1.3 1.4 2.0 2.3 2.3 2.2
0.0 0.0 0.0 0.0 0.0 0.1 0.1 0.0 0.0 0.0 0.0 0.2 1.4 1.6 1.9 2.2 1.2 1.4 2.6 3.7 6.3 7.1 7.7 7.8 7.5 5.5 4.4 4.1 4.4 4.7 5.2 5.5 5.3 4.9 4.4 4.9 4.9 4.5 3.6 3.8 3.1 2.6 2.5 2.7 2.9 2.9 2.7 2.9 2.9 2.8 3.3 3.2 2.7 2.8
0.2 0.0 0.0 0.0 0.1 0.2 0.0 0.0 0.0 0.0 0.0 0.0 0.0 0.6 0.4 0.6 1.0 1.6 2.5 4.3 5.5 6.1 7.0 7.3 7.4 7.1 6.2 5.6 5.8 5.9 5.3 5.5 4.9 4.3 3.0 3.0 3.4 4.3 5.4 5.3 4.9 5.7 4.9 4.0 2.9 3.1 3.0 3.1 3.5 3.8 3.6 3.7 3.5 3.7
0.0 0.0 0.0 0.0 0.0 0.0 0.0 0.0 0.0 0.0 0.0 0.0 0.0 0.1 0.1 0.4 1.1 1.7 2.4 3.4 5.1 6.1 7.2 7.4 7.0 7.3 7.2 6.7 7.2 7.2 6.9 6.4 6.1 4.5 3.6 3.1 2.6 4.4 5.4 5.7 5.7 4.5 5.0 5.2 4.6 4.5 3.4 4.3 4.2 4.9 4.8 4.8 4.8 4.6
0.0 0.0 0.0 0.0 0.0 0.0 0.0 0.2 0.2 0.0 0.0 0.0 0.0 0.0 0.1 0.1 0.7 1.3 2.1 3.1 4.1 5.1 5.9 6.5 6.8 7.4 7.2 7.1 7.3 6.9 6.5 6.4 6.5 6.3 5.7 5.4 5.4 5.4 6.3 6.3 5.9 6.2 6.1 5.7 4.5 4.7 4.2 3.1 2.5 2.9 3.1 3.4 3.9 3.4
0.2 0.0 0.0 0.0 0.0 0.4 0.4 0.1 0.2 0.0 0.0 0.0 0.0 0.0 0.1 0.2 0.3 0.6 1.1 1.8 2.7 3.6 4.4 5.2 5.4 5.8 6.0 6.1 5.9 6.0 5.7 5.7 5.2 6.0 5.7 5.0 4.7 5.1 5.5 5.5 6.0 6.1 6.4 6.7 6.2 6.0 5.9 5.1 6.2 5.8 5.7 5.8 5.6 5.1
1.3 0.8 0.8 0.4 0.0 0.0 0.1 0.0 0.0 0.0 0.0 0.0 0.0 0.1 0.1 0.2 0.2 0.2 0.6 1.3 1.9 2.7 3.5 4.1 4.6 5.2 5.3 5.4 5.6 6.0 6.3 7.1 7.0 6.7 6.9 6.6 5.8 5.7 5.9 6.0 5.8 6.1 6.3 6.5 7.0 7.6 8.3 8.0 7.6 6.8 6.7 6.6 6.6 6.5

GFSWCAN_prec_kuchsnow_084.txt.gz
Snowfall_Accumulation
0.0 0.0 0.0 0.0 0.0 0.0 0.0 0.0 0.0 0.0 0.0 0.0 0.0 0.0 0.0 0.0 0.0 0.0 0.0 0.0 0.0 0.0 0.0 0.0 0.0 0.0 0.0 0.0 0.0 0.0 0.0 0.0 0.0 1.6 1.4 1.2 0.3 0.0 0.3 0.0 0.1 0.1 0.2 0.7 0.8 1.4 0.2 0.0 0.0 0.0 0.0 0.0 0.0 0.0
0.0 0.0 0.0 0.0 0.0 0.0 0.0 0.0 0.0 0.0 0.0 0.0 0.0 0.0 0.0 0.0 0.0 0.0 0.0 0.0 0.0 0.0 0.0 0.0 0.0 0.0 0.0 0.0 0.0 0.0 0.0 0.2 0.9 1.5 3.3 3.0 2.9 2.4 0.8 0.7 0.0 0.2 0.0 0.0 0.0 0.0 0.0 0.0 0.0 0.0 0.0 0.0 0.0 0.0
0.0 0.0 0.0 0.0 0.0 0.0 0.0 0.0 0.0 0.0 0.0 0.0 0.0 0.0 0.0 0.0 0.0 0.0 0.0 0.0 0.0 0.0 0.0 0.0 0.0 0.0 0.0 0.0 0.0 0.1 0.0 0.0 0.0 1.6 1.5 0.2 1.9 1.1 0.6 1.0 0.4 0.1 0.1 0.0 0.0 0.0 0.0 0.0 0.0 0.0 0.0 0.0 0.0 0.0
0.0 0.0 0.0 0.0 0.0 0.0 0.0 0.0 0.0 0.0 0.0 0.0 0.0 0.0 0.0 0.0 0.0 0.0 0.0 0.0 0.0 0.0 1.8 0.0 0.0 0.0 0.0 0.0 0.0 0.0 0.0 0.0 0.0 0.9 2.4 1.2 0.1 0.4 0.1 0.2 0.1 0.0 0.0 0.1 0.0 0.0 0.0 0.0 0.0 0.0 0.0 0.0 0.0 0.0
0.0 0.0 0.0 0.0 0.0 0.0 0.0 0.0 0.0 0.0 0.0 0.0 0.0 0.0 0.0 0.0 0.0 0.0 0.0 0.0 0.0 0.4 2.2 0.4 0.0 0.0 0.0 0.0 0.0 0.0 0.0 0.0 0.1 1.1 0.7 1.8 0.3 0.7 0.0 0.0 0.0 0.0 0.0 0.0 0.0 0.0 0.0 0.0 0.0 0.0 0.0 0.0 0.0 0.0
0.0 0.0 0.0 0.0 0.0 0.0 0.0 0.0 0.0 0.0 0.0 0.0 0.0 0.0 0.0 0.0 0.0 0.0 0.0 0.0 0.0 0.0 2.7 2.4 0.0 0.0 0.0 0.0 0.0 0.0 0.0 0.0 0.1 0.2 0.7 0.0 0.0 1.3 1.2 0.6 0.0 0.0 0.0 0.0 0.0 0.0 0.0 0.0 0.0 0.0 0.0 0.0 0.0 0.0
0.0 0.0 0.0 0.0 0.0 0.0 0.0 0.0 0.0 0.0 0.0 0.0 0.0 0.0 0.0 0.0 0.0 0.0 0.0 0.0 0.0 0.0 1.5 5.5 2.7 0.0 0.0 0.0 0.0 0.0 0.0 0.1 0.2 0.4 1.2 0.5 0.0 1.2 2.3 0.1 0.0 0.0 0.0 0.0 0.0 0.0 0.0 0.0 0.0 0.0 0.0 0.0 0.0 0.0
0.0 0.0 0.0 0.0 0.0 0.0 0.0 0.0 0.0 0.0 0.0 0.0 0.0 0.0 0.0 0.0 0.0 0.0 0.0 0.0 0.0 0.0 1.2 4.9 1.7 1.0 0.0 0.1 0.1 0.0 0.2 0.6 0.7 0.6 0.3 0.0 0.1 0.3 0.9 0.0 0.0 0.0 0.0 0.0 0.0 0.0 0.0 0.0 0.0 0.0 0.0 0.0 0.0 0.0
0.0 0.0 0.0 0.0 0.0 0.0 0.0 0.0 0.0 0.0 0.0 0.0 0.0 0.0 0.0 0.0 0.0 0.0 0.0 0.0 0.0 0.0 2.5 2.2 2.9 4.9 0.0 0.0 0.1 0.2 0.3 3.9 0.0 1.3 0.4 0.4 0.0 2.5 0.0 0.0 0.0 0.0 0.0 0.0 0.0 0.0 0.0 0.0 0.0 0.0 0.0 0.0 0.0 0.0
0.0 0.0 0.0 0.0 0.0 0.0 0.0 0.0 0.0 0.0 0.0 0.0 0.0 0.0 0.3 0.0 0.0 0.0 0.0 1.2 1.8 1.6 1.2 1.3 0.3 1.7 0.0 0.0 1.8 0.4 0.6 2.1 5.0 0.0 0.0 0.8 0.4 0.0 0.0 0.0 0.0 0.0 0.0 0.0 0.0 0.0 0.0 0.0 0.0 0.0 0.0 0.0 0.0 0.0
0.0 0.0 0.0 0.0 0.0 0.0 0.0 0.0 0.0 0.0 0.0 0.0 1.0 0.6 0.0 0.0 0.0 0.0 1.7 1.8 1.1 1.3 0.1 0.0 0.1 1.3 0.0 3.1 3.6 1.5 5.3 2.7 9.0 3.1 2.3 4.0 2.9 1.4 0.3 0.0 0.0 0.0 0.0 0.0 0.0 0.0 0.0 0.0 0.0 0.0 0.0 0.0 0.0 0.0
0.0 0.0 0.0 0.0 0.0 0.0 0.0 0.0 0.0 0.0 3.0 0.0 0.0 0.0 0.0 0.5 1.8 3.0 2.8 0.8 0.7 0.0 0.0 0.6 1.3 1.4 0.6 0.5 2.0 0.7 4.2 3.9 4.5 0.9 3.3 4.3 3.1 2.1 0.9 0.1 0.0 0.0 0.0 0.0 0.0 0.0 0.0 0.0 0.0 0.0 0.0 0.0 0.0 0.0
0.0 0.0 0.0 0.0 0.0 0.0 0.0 0.0 0.0 0.0 0.0 0.0 2.5 9.4 7.2 5.9 8.8 2.6 2.0 0.6 0.2 0.0 0.0 1.4 2.0 0.0 0.5 1.5 1.4 1.4 1.7 2.1 0.8 2.3 1.7 1.9 0.7 0.7 1.4 0.7 0.1 0.0 0.7 1.2 0.5 0.2 0.0 0.0 0.0 0.0 0.0 0.0 0.0 0.0
0.0 0.0 0.0 0.0 0.0 0.0 0.0 0.0 0.0 0.0 2.7 3.7 13.7 19.0 7.1 5.1 0.6 0.6 0.4 0.0 0.0 0.0 0.0 0.3 0.8 1.3 0.0 1.8 1.6 2.4 0.5 0.7 1.6 0.7 0.1 0.0 0.0 0.1 0.2 0.6 0.6 0.5 0.1 0.2 0.3 0.4 0.2 0.4 0.4 0.3 0.3 0.0 0.0 0.0
0.0 0.0 0.0 0.0 0.0 0.0 0.0 0.0 0.0 0.0 3.6 12.9 7.0 7.2 2.8 0.6 0.2 0.1 0.3 0.1 0.0 0.0 0.0 0.0 0.0 0.5 1.7 2.7 1.6 0.8 1.6 0.7 0.7 0.6 0.0 0.0 0.1 0.1 0.1 0.6 2.5 1.5 0.8 0.3 0.2 0.1 0.2 0.3 0.3 0.2 0.0 0.0 0.0 0.0
0.0 0.0 0.0 0.0 0.0 0.0 0.0 0.0 0.0 0.0 15.1 12.2 6.9 3.8 0.4 0.1 0.0 0.0 0.1 0.0 0.0 0.0 0.0 0.0 1.8 1.6 1.5 1.6 1.7 1.0 1.4 0.8 0.7 0.3 0.0 0.0 0.0 0.2 0.4 1.4 1.9 0.7 0.5 0.5 0.2 0.0 0.0 0.0 0.0 0.0 0.0 0.0 0.0 0.0
0.0 0.0 0.0 0.0 0.0 0.0 0.0 2.1 4.4 13.8 15.6 12.6 4.2 0.1 0.0 0.2 0.1 0.2 0.2 0.1 0.0 0.3 1.5 2.7 3.0 1.8 0.4 1.1 0.3 0.1 0.2 0.3 0.0 0.1 0.0 0.0 0.0 0.0 0.5 0.9 1.7 0.6 0.9 1.1 0.5 0.0 0.0 0.0 0.0 0.0 0.0 0.0 0.0 0.0
0.0 0.0 0.0 0.0 0.0 0.0 1.3 9.5 14.7 14.7 15.4 6.7 0.5 0.1 0.1 0.0 0.2 0.2 0.2 0.5 1.1 1.8 2.0 4.1 1.4 1.3 0.6 0.6 0.2 0.0 0.0 0.0 0.0 0.0 0.0 0.0 0.0 0.0 0.0 0.6 1.3 1.2 1.0 0.7 0.3 0.0 0.0 0.0 0.0 0.0 0.0 0.0 0.0 0.0
0.0 0.0 0.0 0.0 0.0 1.5 8.0 9.3 9.8 13.0 7.1 2.4 0.2 0.1 0.2 0.0 0.0 0.0 0.0 0.4 0.9 1.8 3.4 4.8 3.6 1.0 0.0 0.2 0.2 0.0 0.0 0.0 0.1 0.0 0.0 0.0 0.0 0.0 0.0 0.0 0.0 0.0 0.2 0.2 0.1 0.0 0.0 0.0 0.0 0.0 0.0 0.0 0.0 0.0
0.0 0.0 0.0 0.0 0.0 2.9 5.5 8.7 4.5 6.4 5.0 2.8 1.2 0.7 0.7 0.4 0.1 0.3 0.1 0.0 0.5 2.0 3.6 3.4 0.5 0.1 0.0 0.1 0.2 0.2 0.0 0.0 0.0 0.0 0.0 0.0 0.0 0.0 0.0 0.0 0.0 0.0 0.0 0.0 0.0 0.0 0.0 0.0 0.0 0.0 0.0 0.0 0.0 0.0
0.0 0.0 0.0 0.0 2.8 3.0 4.0 4.7 6.4 5.6 4.9 4.5 5.3 3.3 3.1 1.3 1.1 1.2 2.8 1.1 3.8 4.6 2.5 1.2 0.1 0.0 0.2 0.1 0.0 0.0 0.1 0.0 0.0 0.0 0.0 0.0 0.0 0.0 0.0 0.0 0.0 0.0 0.0 0.0 0.0 0.0 0.0 0.0 0.0 0.0 0.0 0.0 0.0 0.0
0.3 0.0 1.8 0.7 6.6 3.9 2.7 3.0 4.9 4.7 4.1 5.6 7.1 6.7 6.4 5.3 5.5 5.8 5.3 8.5 9.7 4.3 1.3 0.5 0.6 0.8 0.4 0.4 0.3 0.8 0.0 0.4 0.0 0.0 0.0 0.0 0.0 0.0 0.0 0.0 0.0 0.0 0.0 0.0 0.0 0.0 0.0 0.0 0.0 0.0 0.0 0.0 0.0 0.0
0.0 0.8 3.7 4.7 5.0 2.0 4.8 2.3 3.6 4.2 4.8 6.2 6.4 7.7 9.2 8.1 9.0 8.0 13.5 9.2 6.3 3.2 2.0 1.7 1.4 1.7 1.6 1.0 0.6 0.2 0.1 0.0 0.0 0.2 0.1 0.0 0.0 0.0 0.0 0.0 0.0 0.0 0.0 0.0 0.0 0.0 0.0 0.0 0.0 0.0 0.0 0.0 0.0 0.0
0.0 3.9 4.0 2.4 2.2 3.7 2.4 3.2 2.1 2.7 3.7 4.3 5.4 6.1 5.6 7.7 7.5 8.9 8.5 3.7 3.2 3.4 2.8 3.0 2.2 1.1 1.6 1.8 2.0 1.4 0.9 0.4 0.1 0.1 0.7 0.5 0.1 0.0 0.0 0.0 0.0 0.0 0.0 0.0 0.0 0.0 0.0 0.0 0.0 0.0 0.0 0.0 0.0 0.0
5.1 5.1 2.5 1.8 1.0 0.3 0.6 1.9 2.2 1.7 2.9 4.2 5.1 5.4 5.8 6.2 8.3 6.9 3.9 3.2 4.9 6.5 5.3 3.7 2.4 1.9 1.5 1.7 1.6 1.9 1.7 2.2 1.8 0.6 0.2 1.2 0.8 0.5 0.1 0.6 0.2 0.0 0.0 0.0 0.0 0.0 0.0 0.0 0.0 0.0 0.0 0.0 0.0 0.2
2.7 1.1 0.5 0.4 0.3 0.0 0.0 0.9 1.9 2.7 2.9 4.0 4.6 4.4 5.0 5.4 5.2 5.2 3.3 3.8 5.8 7.1 7.1 6.1 4.0 2.2 2.4 2.7 2.3 2.7 2.4 2.4 2.0 1.5 2.2 2.3 1.6 1.7 1.3 1.1 1.1 0.7 0.0 0.3 0.3 0.4 0.4 0.3 0.2 0.2 0.3 0.0 0.7 1.1
1.1 0.2 0.0 0.0 0.0 0.0 0.1 0.0 0.0 0.0 1.0 2.3 2.5 2.7 3.0 4.0 4.8 2.6 2.2 4.0 6.1 7.0 7.5 7.4 6.4 4.1 3.6 3.4 3.6 3.7 3.9 3.6 3.7 1.6 3.2 3.8 3.3 2.0 1.4 1.5 0.8 0.4 0.3 1.6 1.2 1.1 1.3 1.3 1.3 1.4 2.0 2.3 2.3 2.2
0.0 0.0 0.0 0.0 0.0 0.1 0.1 0.0 0.0 0.0 0.0 0.2 1.4 1.6 1.9 2.2 1.2 1.4 2.6 3.7 6.3 7.1 7.7 7.8 7.5 5.5 4.4 4.1 4.4 4.7 5.2 5.5 5.3 4.9 4.4 4.9 4.9 4.5 3.6 3.8 3.1 2.6 2.5 2.7 2.9 2.9 2.7 2.9 2.9 2.8 3.3 3.2 2.7 2.8
0.2 0.0 0.0 0.0 0.1 0.2 0.0 0.0 0.0 0.0 0.0 0.0 0.0 0.6 0.4 0.6 1.0 1.6 2.5 4.3 5.5 6.1 7.0 7.3 7.4 7.1 6.2 5.6 5.8 5.9 5.3 5.5 4.9 4.3 3.0 3.0 3.4 4.3 5.4 5.3 4.9 5.7 4.9 4.0 2.9 3.1 3.0 3.1 3.5 3.8 3.6 3.7 3.5 3.7
0.0 0.0 0.0 0.0 0.0 0.0 0.0 0.0 0.0 0.0 0.0 0.0 0.0 0.1 0.1 0.4 1.1 1.7 2.4 3.4 5.1 6.1 7.2 7.4 7.0 7.3 7.2 6.7 7.2 7.2 6.9 6.4 6.1 4.5 3.6 3.1 2.6 4.4 5.4 5.7 5.7 4.5 5.0 5.2 4.6 4.5 3.4 4.3 4.2 4.9 4.8 4.8 4.8 4.6
0.0 0.0 0.0 0.0 0.0 0.0 0.0 0.2 0.2 0.0 0.0 0.0 0.0 0.0 0.1 0.1 0.7 1.3 2.1 3.1 4.1 5.1 5.9 6.5 6.8 7.4 7.2 7.1 7.3 6.9 6.5 6.4 6.5 6.3 5.7 5.4 5.4 5.4 6.3 6.3 5.9 6.2 6.1 5.7 4.5 4.7 4.2 3.1 2.5 2.9 3.1 3.4 3.9 3.4
0.2 0.0 0.0 0.0 0.0 0.4 0.4 0.1 0.2 0.0 0.0 0.0 0.0 0.0 0.1 0.2 0.3 0.6 1.1 1.8 2.7 3.6 4.4 5.2 5.4 5.8 6.0 6.1 5.9 6.0 5.7 5.7 5.2 6.0 5.7 5.0 4.7 5.1 5.5 5.5 6.0 6.1 6.5 6.8 6.2 6.0 5.9 5.1 6.2 5.8 5.7 5.8 5.6 5.1
1.3 0.8 0.8 0.4 0.0 0.0 0.1 0.0 0.0 0.0 0.0 0.0 0.0 0.1 0.1 0.2 0.2 0.2 0.6 1.3 1.9 2.7 3.5 4.1 4.6 5.2 5.3 5.4 5.6 6.0 6.3 7.1 7.0 6.7 6.9 6.6 5.9 5.7 6.0 6.1 5.8 6.1 6.3 6.5 7.0 7.6 8.3 8.0 7.6 6.8 6.7 6.6 6.6 6.5

GFSWCAN_prec_kuchsnow_090.txt.gz
Snowfall_Accumulation
0.0 0.0 0.0 0.0 0.0 0.0 0.0 0.0 0.0 0.0 0.0 0.0 0.0 0.0 0.0 0.0 0.0 0.0 0.0 0.0 0.0 0.0 0.0 0.0 0.0 0.0 0.0 0.0 0.0 0.0 0.0 0.0 0.0 1.6 1.4 1.2 0.3 0.0 0.3 0.0 0.1 0.2 1.1 1.4 1.3 2.4 0.4 0.0 0.0 0.0 0.0 0.0 0.0 0.0
0.0 0.0 0.0 0.0 0.0 0.0 0.0 0.0 0.0 0.0 0.0 0.0 0.0 0.0 0.0 0.0 0.0 0.0 0.0 0.0 0.0 0.0 0.0 0.0 0.0 0.0 0.0 0.0 0.0 0.0 0.0 0.2 0.9 1.5 3.3 3.0 2.9 2.4 0.8 0.7 0.0 0.2 0.0 0.2 0.2 0.0 0.0 0.0 0.0 0.0 0.0 0.0 0.0 0.0
0.0 0.0 0.0 0.0 0.0 0.0 0.0 0.0 0.0 0.0 0.0 0.0 0.0 0.0 0.0 0.0 0.0 0.0 0.0 0.0 0.0 0.0 0.0 0.0 0.0 0.0 0.0 0.0 0.0 0.1 0.0 0.0 0.0 1.6 1.5 0.2 1.9 1.1 0.6 1.0 0.4 0.1 0.1 0.0 0.0 0.0 0.0 0.0 0.0 0.0 0.0 0.0 0.0 0.0
0.0 0.0 0.0 0.0 0.0 0.0 0.0 0.0 0.0 0.0 0.0 0.0 0.0 0.0 0.0 0.0 0.0 0.0 0.0 0.0 0.0 0.0 1.8 0.0 0.0 0.0 0.0 0.0 0.0 0.0 0.0 0.0 0.0 0.9 2.4 1.2 0.1 0.4 0.1 0.2 0.1 0.0 0.0 0.1 0.0 0.0 0.0 0.0 0.0 0.0 0.0 0.0 0.0 0.0
0.0 0.0 0.0 0.0 0.0 0.0 0.0 0.0 0.0 0.0 0.0 0.0 0.0 0.0 0.0 0.0 0.0 0.0 0.0 0.0 0.0 0.4 2.2 0.4 0.0 0.0 0.0 0.0 0.0 0.0 0.0 0.0 0.1 1.1 0.8 1.8 0.3 0.7 0.0 0.0 0.0 0.0 0.0 0.0 0.0 0.0 0.0 0.0 0.0 0.0 0.0 0.0 0.0 0.0
0.0 0.0 0.0 0.0 0.0 0.0 0.0 0.0 0.0 0.0 0.0 0.0 0.0 0.0 0.0 0.0 0.0 0.0 0.0 0.0 0.0 0.0 2.7 2.4 0.0 0.0 0.0 0.0 0.0 0.0 0.0 0.0 0.1 0.3 0.7 0.0 0.0 1.3 1.2 0.6 0.0 0.0 0.0 0.0 0.0 0.0 0.0 0.0 0.0 0.0 0.0 0.0 0.0 0.0
0.0 0.0 0.0 0.0 0.0 0.0 0.0 0.0 0.0 0.0 0.0 0.0 0.0 0.0 0.0 0.0 0.0 0.0 0.0 0.0 0.0 0.0 1.5 5.5 2.7 0.0 0.0 0.0 0.0 0.0 0.0 0.1 0.3 0.5 1.3 0.5 0.0 1.2 2.4 0.1 0.0 0.0 0.0 0.0 0.0 0.0 0.0 0.0 0.0 0.0 0.0 0.0 0.0 0.0
0.0 0.0 0.0 0.0 0.0 0.0 0.0 0.0 0.0 0.0 0.0 0.0 0.0 0.0 0.0 0.0 0.0 0.0 0.0 0.0 0.0 0.0 1.2 4.9 1.7 1.0 0.0 0.1 0.1 0.0 0.2 0.6 0.8 0.6 0.3 0.0 0.1 0.3 1.0 0.0 0.0 0.0 0.0 0.0 0.0 0.0 0.0 0.0 0.0 0.0 0.0 0.0 0.0 0.0
0.0 0.0 0.0 0.0 0.0 0.0 0.0 0.0 0.0 0.0 0.0 0.0 0.0 0.0 0.0 0.0 0.0 0.0 0.0 0.0 0.0 0.0 2.5 2.2 2.9 4.9 0.0 0.0 0.1 0.2 0.4 4.0 0.0 1.4 0.5 0.5 0.0 2.6 0.0 0.0 0.0 0.0 0.0 0.0 0.0 0.0 0.0 0.0 0.0 0.0 0.0 0.0 0.0 0.0
0.0 0.0 0.0 0.0 0.0 0.0 0.0 0.0 0.0 0.0 0.0 0.0 0.0 0.0 0.3 0.0 0.0 0.0 0.0 1.2 1.8 1.6 1.2 1.3 0.3 1.7 0.0 0.0 1.8 0.4 0.6 2.2 5.2 0.0 0.0 0.9 0.4 0.0 0.0 0.0 0.1 0.0 0.0 0.0 0.0 0.0 0.0 0.0 0.0 0.0 0.0 0.0 0.0 0.0
0.0 0.0 0.0 0.0 0.0 0.0 0.0 0.0 0.0 0.0 0.0 0.0 1.0 0.6 0.0 0.0 0.0 0.0 1.8 1.8 1.1 1.3 0.1 0.0 0.1 1.3 0.0 3.1 3.6 1.5 5.4 2.8 9.1 3.2 2.3 4.0 2.9 1.4 0.3 0.2 0.0 0.0 0.0 0.0 0.0 0.0 0.0 0.0 0.0 0.0 0.0 0.0 0.0 0.0
0.0 0.0 0.0 0.0 0.0 0.0 0.0 0.0 0.0 0.0 3.0 0.0 0.0 0.0 0.0 0.5 1.8 3.0 2.8 0.8 0.7 0.0 0.0 0.6 1.3 1.4 0.6 0.5 2.0 0.7 4.2 4.0 4.5 0.9 3.5 4.3 3.1 2.1 0.9 0.1 0.0 0.0 0.0 0.0 0.0 0.0 0.0 0.0 0.0 0.0 0.0 0.0 0.0 0.0
0.0 0.0 0.0 0.0 0.0 0.0 0.0 0.0 0.0 0.0 0.0 0.0 2.5 9.4 7.2 6.0 8.8 2.6 2.0 0.6 0.2 0.0 0.0 1.4 2.0 0.0 0.5 1.5 1.4 1.4 1.7 2.2 0.8 2.5 1.7 1.9 0.7 0.7 1.4 0.7 0.1 0.0 0.7 1.2 0.5 0.2 0.0 0.0 0.0 0.0 0.0 0.7 0.0 0.2
0.0 0.0 0.0 0.0 0.0 0.0 0.0 0.0 0.0 0.0 2.7 3.7 13.7 19.0 7.1 5.4 0.6 0.6 0.4 0.0 0.0 0.0 0.0 0.3 0.8 1.3 0.0 1.9 1.6 2.5 0.5 0.9 2.0 0.9 0.1 0.0 0.0 0.1 0.2 0.6 0.6 0.6 0.1 0.2 0.4 0.5 0.2 0.4 0.6 0.4 0.4 0.0 0.0 0.0
0.0 0.0 0.0 0.0 0.0 0.0 0.0 0.0 0.0 0.0 3.6 12.9 7.0 7.2 2.8 0.6 0.2 0.1 0.3 0.1 0.0 0.0 0.0 0.0 0.0 0.5 1.7 2.7 1.6 0.9 1.7 0.9 0.7 0.6 0.0 0.0 0.1 0.1 0.1 0.6 2.5 1.8 1.0 0.4 0.2 0.1 0.5 0.6 0.5 0.2 0.0 0.0 0.0 0.0
0.0 0.0 0.0 0.0 0.0 0.0 0.0 0.0 0.0 0.0 15.1 12.2 6.9 3.9 0.4 0.1 0.2 0.0 0.1 0.0 0.0 0.0 0.0 0.0 1.8 1.6 1.5 1.6 1.8 1.0 1.5 0.8 0.7 0.3 0.0 0.0 0.0 0.2 0.4 1.4 1.9 0.7 0.8 1.1 0.8 0.0 0.0 0.0 0.0 0.0 0.0 0.0 0.0 0.0
0.0 0.0 0.0 0.0 0.0 0.0 0.0 2.1 4.4 14.4 16.5 13.0 4.4 0.1 0.2 0.2 0.1 0.2 0.2 0.1 0.0 0.3 1.5 2.7 3.0 1.8 0.4 1.1 0.3 0.1 0.2 0.3 0.0 0.1 0.0 0.0 0.0 0.0 0.5 0.9 1.7 0.8 1.1 1.6 1.2 0.3 0.0 0.0 0.0 0.0 0.0 0.0 0.0 0.0
0.0 0.0 0.0 0.0 0.0 0.0 1.3 9.5 15.5 15.8 16.5 6.9 0.8 0.5 0.2 0.0 0.2 0.2 0.2 0.5 1.1 1.8 2.0 4.1 1.4 1.3 0.6 0.6 0.2 0.0 0.0 0.0 0.0 0.0 0.0 0.0 0.0 0.0 0.0 0.6 1.3 1.5 1.5 1.2 0.6 0.0 0.3 0.1 0.0 0.0 0.0 0.0 0.0 0.0
0.0 0.0 0.0 0.0 0.0 1.5 9.4 10.9 10.6 13.9 7.7 2.5 0.5 0.3 0.2 0.0 0.0 0.0 0.0 0.4 0.9 1.8 3.4 4.8 3.6 1.0 0.0 0.2 0.2 0.0 0.0 0.0 0.1 0.0 0.0 0.0 0.0 0.0 0.0 0.0 0.0 0.0 0.5 0.6 0.6 0.4 0.2 0.1 0.0 0.1 0.0 0.0 0.0 0.0
0.0 0.0 0.0 0.0 0.0 3.3 6.8 10.1 4.9 6.7 5.5 3.2 1.3 0.7 0.7 0.4 0.1 0.3 0.1 0.0 0.5 2.0 3.6 3.4 0.5 0.1 0.0 0.1 0.2 0.2 0.0 0.0 0.0 0.0 0.0 0.0 0.0 0.0 0.0 0.0 0.0 0.0 0.0 0.0 0.0 0.0 0.0 0.0 0.0 0.0 0.0 0.0 0.0 0.0
0.0 0.0 0.0 0.0 3.8 3.6 4.5 5.2 6.7 5.8 5.0 4.6 5.3 3.3 3.1 1.3 1.1 1.2 2.8 1.1 3.9 4.6 2.5 1.2 0.1 0.0 0.2 0.1 0.0 0.0 0.1 0.0 0.0 0.0 0.0 0.0 0.0 0.0 0.0 0.0 0.0 0.0 0.0 0.0 0.0 0.0 0.0 0.0 0.0 0.0 0.0 0.0 0.0 0.0
0.3 0.0 1.8 0.7 7.3 4.4 3.0 3.2 5.0 4.7 4.1 5.7 7.1 6.7 6.4 5.3 5.5 5.8 5.4 8.6 9.7 4.3 1.3 0.5 0.6 0.8 0.4 0.4 0.3 0.8 0.0 0.4 0.0 0.0 0.0 0.0 0.0 0.0 0.0 0.0 0.0 0.0 0.0 0.0 0.0 0.0 0.0 0.0 0.0 0.0 0.0 0.0 0.0 0.0
0.0 0.8 4.0 5.0 5.3 2.2 5.0 2.3 3.6 4.2 4.8 6.2 6.4 7.7 9.2 8.1 9.0 8.0 13.5 9.2 6.3 3.2 2.0 1.7 1.4 1.7 1.6 1.0 0.6 0.2 0.1 0.0 0.0 0.2 0.1 0.0 0.0 0.0 0.0 0.0 0.0 0.0 0.0 0.0 0.0 0.0 0.0 0.0 0.0 0.0 0.0 0.0 0.0 0.0
0.0 4.1 4.3 2.6 2.3 3.8 2.4 3.2 2.1 2.7 3.7 4.3 5.4 6.1 5.6 7.7 7.5 8.9 8.5 3.7 3.2 3.4 2.8 3.0 2.2 1.1 1.6 1.8 2.0 1.4 0.9 0.4 0.1 0.1 0.7 0.5 0.1 0.0 0.0 0.0 0.0 0.0 0.0 0.0 0.0 0.0 0.0 0.0 0.0 0.0 0.0 0.0 0.0 0.0
5.6 5.7 2.8 1.8 1.0 0.3 0.6 1.9 2.2 1.7 2.9 4.2 5.1 5.4 5.8 6.2 8.3 6.9 3.9 3.2 4.9 6.5 5.3 3.7 2.4 1.9 1.5 1.7 1.6 1.9 1.7 2.2 1.8 0.6 0.2 1.2 0.8 0.5 0.1 0.6 0.2 0.0 0.0 0.0 0.0 0.0 0.0 0.0 0.0 0.0 0.0 0.0 0.0 0.2
3.1 1.2 0.5 0.4 0.3 0.0 0.0 0.9 1.9 2.7 2.9 4.0 4.6 4.4 5.0 5.4 5.2 5.2 3.3 3.8 5.8 7.1 7.1 6.1 4.0 2.2 2.4 2.7 2.3 2.7 2.4 2.4 2.0 1.5 2.2 2.3 1.6 1.7 1.3 1.1 1.1 0.7 0.0 0.3 0.3 0.4 0.4 0.3 0.2 0.2 0.3 0.0 0.7 1.1
1.1 0.2 0.0 0.0 0.0 0.0 0.1 0.0 0.0 0.0 1.0 2.3 2.5 2.7 3.0 4.0 4.8 2.6 2.2 4.0 6.1 7.0 7.5 7.4 6.4 4.1 3.6 3.4 3.6 3.7 3.9 3.6 3.7 1.6 3.2 3.8 3.3 2.0 1.4 1.5 0.8 0.4 0.3 1.6 1.2 1.1 1.3 1.3 1.3 1.4 2.0 2.3 2.3 2.2
0.0 0.0 0.0 0.0 0.0 0.1 0.1 0.0 0.0 0.0 0.0 0.2 1.4 1.6 1.9 2.2 1.2 1.4 2.6 3.7 6.3 7.1 7.7 7.8 7.5 5.5 4.4 4.1 4.4 4.7 5.2 5.5 5.3 4.9 4.4 4.9 4.9 4.5 3.6 3.8 3.1 2.6 2.5 2.7 2.9 2.9 2.7 2.9 2.9 2.8 3.3 3.2 2.7 2.8
0.2 0.0 0.0 0.0 0.1 0.2 0.0 0.0 0.0 0.0 0.0 0.0 0.0 0.6 0.4 0.6 1.0 1.6 2.5 4.3 5.5 6.1 7.0 7.3 7.4 7.1 6.2 5.6 5.8 5.9 5.3 5.5 4.9 4.3 3.0 3.0 3.4 4.3 5.4 5.3 4.9 5.7 4.9 4.0 2.9 3.1 3.0 3.1 3.5 3.8 3.6 3.7 3.5 3.7
0.0 0.0 0.0 0.0 0.0 0.0 0.0 0.0 0.0 0.0 0.0 0.0 0.0 0.1 0.1 0.4 1.1 1.7 2.4 3.4 5.1 6.1 7.2 7.4 7.0 7.3 7.2 6.7 7.2 7.2 6.9 6.4 6.1 4.5 3.6 3.1 2.6 4.4 5.4 5.7 5.7 4.5 5.0 5.2 4.6 4.5 3.4 4.3 4.2 4.9 4.8 4.8 4.8 4.6
0.0 0.0 0.0 0.0 0.0 0.0 0.0 0.2 0.2 0.0 0.0 0.0 0.0 0.0 0.1 0.1 0.7 1.3 2.1 3.1 4.1 5.1 5.9 6.5 6.8 7.4 7.2 7.1 7.3 6.9 6.5 6.4 6.5 6.3 5.7 5.4 5.4 5.4 6.3 6.3 5.9 6.2 6.1 5.8 4.6 4.8 4.2 3.1 2.5 2.9 3.1 3.4 3.9 3.4
0.2 0.0 0.0 0.0 0.0 0.4 0.4 0.1 0.2 0.0 0.0 0.0 0.0 0.0 0.1 0.2 0.3 0.6 1.1 1.8 2.7 3.6 4.4 5.2 5.4 5.8 6.0 6.1 5.9 6.0 5.7 5.7 5.2 6.0 5.7 5.0 4.7 5.1 5.5 5.5 6.0 6.1 6.5 6.9 6.3 6.1 6.0 5.2 6.2 5.8 5.7 5.8 5.6 5.1
1.3 0.8 0.8 0.4 0.0 0.0 0.1 0.0 0.0 0.0 0.0 0.0 0.0 0.1 0.1 0.2 0.2 0.2 0.6 1.3 1.9 2.7 3.5 4.1 4.6 5.2 5.3 5.4 5.6 6.0 6.3 7.1 7.0 6.7 6.9 6.6 6.0 5.9 6.1 6.1 5.8 6.3 6.5 6.7 7.0 7.7 8.3 8.0 7.6 6.8 6.7 6.6 6.6 6.5

GFSWCAN_prec_kuchsnow_093.txt.gz
Snowfall_Accumulation
0.0 0.0 0.0 0.0 0.0 0.0 0.0 0.0 0.0 0.0 0.0 0.0 0.0 0.0 0.0 0.0 0.0 0.0 0.0 0.0 0.0 0.0 0.0 0.0 0.0 0.0 0.0 0.0 0.0 0.0 0.0 0.0 0.0 1.6 1.4 1.2 0.3 0.0 0.3 0.0 0.1 0.2 1.2 1.5 1.4 2.6 0.4 0.0 0.0 0.0 0.0 0.0 0.0 0.0
0.0 0.0 0.0 0.0 0.0 0.0 0.0 0.0 0.0 0.0 0.0 0.0 0.0 0.0 0.0 0.0 0.0 0.0 0.0 0.0 0.0 0.0 0.0 0.0 0.0 0.0 0.0 0.0 0.0 0.0 0.0 0.2 0.9 1.5 3.3 3.0 2.9 2.4 0.8 0.7 0.0 0.2 0.0 0.2 0.3 0.0 0.0 0.0 0.0 0.0 0.0 0.0 0.0 0.0
0.0 0.0 0.0 0.0 0.0 0.0 0.0 0.0 0.0 0.0 0.0 0.0 0.0 0.0 0.0 0.0 0.0 0.0 0.0 0.0 0.0 0.0 0.0 0.0 0.0 0.0 0.0 0.0 0.0 0.1 0.0 0.0 0.0 1.6 1.5 0.2 1.9 1.1 0.6 1.0 0.4 0.1 0.1 0.0 0.0 0.0 0.0 0.0 0.0 0.0 0.0 0.0 0.0 0.0
0.0 0.0 0.0 0.0 0.0 0.0 0.0 0.0 0.0 0.0 0.0 0.0 0.0 0.0 0.0 0.0 0.0 0.0 0.0 0.0 0.0 0.0 1.8 0.0 0.0 0.0 0.0 0.0 0.0 0.0 0.0 0.0 0.0 0.9 2.4 1.2 0.1 0.4 0.1 0.2 0.1 0.0 0.0 0.1 0.0 0.0 0.0 0.0 0.0 0.0 0.0 0.0 0.0 0.0
0.0 0.0 0.0 0.0 0.0 0.0 0.0 0.0 0.0 0.0 0.0 0.0 0.0 0.0 0.0 0.0 0.0 0.0 0.0 0.0 0.0 0.4 2.2 0.4 0.0 0.0 0.0 0.0 0.0 0.0 0.0 0.0 0.1 1.1 0.8 1.8 0.3 0.7 0.0 0.0 0.0 0.0 0.0 0.0 0.0 0.0 0.0 0.0 0.0 0.0 0.0 0.0 0.0 0.0
0.0 0.0 0.0 0.0 0.0 0.0 0.0 0.0 0.0 0.0 0.0 0.0 0.0 0.0 0.0 0.0 0.0 0.0 0.0 0.0 0.0 0.0 2.7 2.4 0.0 0.0 0.0 0.0 0.0 0.0 0.0 0.0 0.1 0.3 0.7 0.0 0.0 1.3 1.2 0.6 0.0 0.0 0.0 0.0 0.0 0.0 0.0 0.0 0.0 0.0 0.0 0.0 0.0 0.0
0.0 0.0 0.0 0.0 0.0 0.0 0.0 0.0 0.0 0.0 0.0 0.0 0.0 0.0 0.0 0.0 0.0 0.0 0.0 0.0 0.0 0.0 1.5 5.5 2.7 0.0 0.0 0.0 0.0 0.0 0.0 0.1 0.3 0.5 1.3 0.5 0.0 1.2 2.4 0.1 0.0 0.0 0.0 0.0 0.0 0.0 0.0 0.0 0.0 0.0 0.0 0.0 0.0 0.0
0.0 0.0 0.0 0.0 0.0 0.0 0.0 0.0 0.0 0.0 0.0 0.0 0.0 0.0 0.0 0.0 0.0 0.0 0.0 0.0 0.0 0.0 1.2 4.9 1.7 1.0 0.0 0.1 0.1 0.0 0.2 0.6 0.8 0.6 0.3 0.0 0.1 0.3 1.0 0.0 0.0 0.0 0.0 0.0 0.0 0.0 0.0 0.0 0.0 0.0 0.0 0.0 0.0 0.0
0.0 0.0 0.0 0.0 0.0 0.0 0.0 0.0 0.0 0.0 0.0 0.0 0.0 0.0 0.0 0.0 0.0 0.0 0.0 0.0 0.0 0.0 2.5 2.2 2.9 4.9 0.0 0.0 0.1 0.2 0.4 4.0 0.0 1.4 0.5 0.5 0.0 2.6 0.0 0.0 0.0 0.0 0.1 0.0 0.0 0.0 0.0 0.0 0.0 0.0 0.0 0.0 0.0 0.0
0.0 0.0 0.0 0.0 0.0 0.0 0.0 0.0 0.0 0.0 0.0 0.0 0.0 0.0 0.4 0.0 0.0 0.0 0.0 1.2 1.8 1.6 1.2 1.3 0.3 1.7 0.0 0.0 1.8 0.4 0.6 2.2 5.3 0.0 0.0 0.9 0.4 0.0 0.0 0.0 0.1 0.0 0.0 0.0 0.0 0.0 0.0 0.0 0.0 0.0 0.0 0.0 0.0 0.0
0.0 0.0 0.0 0.0 0.0 0.0 0.0 0.0 0.0 0.0 0.0 0.0 1.0 0.6 0.0 0.0 0.0 0.0 1.8 1.8 1.1 1.3 0.1 0.0 0.1 1.3 0.0 3.1 3.6 1.5 5.4 2.8 9.1 3.2 2.3 4.0 2.9 1.4 0.3 0.2 0.0 0.0 0.0 0.0 0.0 0.0 0.0 0.0 0.0 0.0 0.0 0.0 0.0 0.0
0.0 0.0 0.0 0.0 0.0 0.0 0.0 0.0 0.0 0.0 3.0 0.0 0.0 0.0 0.0 0.5 1.8 3.0 2.8 0.8 0.7 0.0 0.0 0.6 1.3 1.4 0.6 0.5 2.0 0.7 4.2 4.0 4.5 0.9 3.6 4.3 3.1 2.1 0.9 0.1 0.0 0.0 0.0 0.0 0.0 0.0 0.0 0.0 0.0 0.0 0.0 0.0 0.0 0.0
0.0 0.0 0.0 0.0 0.0 0.0 0.0 0.0 0.0 0.0 0.0 0.0 2.5 9.6 7.3 6.0 8.8 2.6 2.0 0.6 0.2 0.0 0.0 1.4 2.0 0.0 0.5 1.5 1.4 1.4 1.7 2.2 0.9 2.6 1.7 1.9 0.7 0.7 1.4 0.7 0.1 0.0 0.7 1.2 0.5 0.2 0.0 0.0 0.0 0.0 0.0 0.9 0.5 1.2
0.0 0.0 0.0 0.0 0.0 0.0 0.0 0.0 0.0 0.0 2.7 3.7 13.9 19.0 7.1 5.4 0.6 0.6 0.4 0.0 0.0 0.0 0.0 0.3 0.8 1.3 0.0 1.9 1.6 2.5 0.5 0.9 2.0 0.9 0.1 0.0 0.0 0.1 0.2 0.6 0.6 0.6 0.1 0.2 0.4 0.5 0.2 0.4 0.6 0.4 0.6 0.2 0.2 0.1
0.0 0.0 0.0 0.0 0.0 0.0 0.0 0.0 0.0 0.0 3.6 13.2 7.0 7.4 2.8 0.6 0.2 0.1 0.3 0.1 0.0 0.0 0.0 0.0 0.0 0.5 1.7 2.7 1.6 0.9 1.8 0.9 0.7 0.6 0.0 0.0 0.1 0.1 0.1 0.6 2.5 1.8 1.0 0.4 0.2 0.1 0.5 0.6 0.5 0.2 0.0 0.0 0.0 0.0
0.0 0.0 0.0 0.0 0.0 0.0 0.0 0.0 0.0 0.0 15.7 12.5 7.1 4.0 0.4 0.1 0.6 0.2 0.1 0.0 0.0 0.0 0.0 0.0 1.8 1.6 1.5 1.6 1.8 1.0 1.5 0.8 0.7 0.3 0.0 0.0 0.0 0.2 0.4 1.4 1.9 0.7 0.8 1.1 0.8 0.0 0.0 0.0 0.0 0.0 0.0 0.0 0.0 0.0
0.0 0.0 0.0 0.0 0.0 0.0 0.0 2.1 4.4 15.2 17.3 13.6 4.5 0.1 0.3 0.7 0.3 0.2 0.2 0.1 0.0 0.3 1.5 2.7 3.0 1.8 0.4 1.1 0.3 0.1 0.2 0.3 0.0 0.1 0.0 0.0 0.0 0.0 0.5 0.9 1.7 0.8 1.1 1.6 1.2 0.3 0.0 0.0 0.0 0.0 0.0 0.0 0.0 0.0
0.0 0.0 0.0 0.0 0.0 0.0 1.3 9.5 16.1 16.3 17.0 6.9 1.0 1.2 0.7 0.3 0.2 0.2 0.2 0.5 1.1 1.8 2.0 4.1 1.4 1.3 0.6 0.6 0.2 0.0 0.0 0.0 0.0 0.0 0.0 0.0 0.0 0.0 0.0 0.6 1.3 1.5 1.5 1.2 0.7 0.0 0.3 0.1 0.1 0.0 0.0 0.0 0.0 0.0
0.0 0.0 0.0 0.0 0.0 1.5 10.3 11.8 10.8 14.0 7.9 2.8 1.5 1.3 0.4 0.1 0.0 0.0 0.0 0.4 0.9 1.8 3.4 4.8 3.6 1.0 0.0 0.2 0.2 0.0 0.0 0.0 0.1 0.0 0.0 0.0 0.0 0.0 0.0 0.0 0.0 0.0 0.5 0.6 0.6 0.4 0.2 0.1 0.1 0.2 0.1 0.1 0.0 0.0
0.0 0.0 0.0 0.0 0.0 3.3 7.0 10.7 5.1 6.7 6.0 4.4 2.4 1.5 0.8 0.4 0.1 0.3 0.1 0.0 0.5 2.0 3.6 3.4 0.5 0.1 0.0 0.1 0.2 0.2 0.0 0.0 0.0 0.0 0.0 0.0 0.0 0.0 0.0 0.0 0.0 0.0 0.0 0.0 0.0 0.0 0.0 0.0 0.0 0.0 0.0 0.0 0.0 0.0
0.0 0.0 0.0 0.0 4.5 3.9 5.0 5.8 7.4 6.6 5.8 5.6 6.1 3.5 3.1 1.3 1.1 1.2 2.8 1.1 3.9 4.6 2.5 1.2 0.1 0.0 0.2 0.1 0.0 0.0 0.1 0.0 0.0 0.0 0.0 0.0 0.0 0.0 0.0 0.0 0.0 0.0 0.0 0.0 0.0 0.0 0.0 0.0 0.0 0.0 0.0 0.0 0.0 0.0
0.3 0.0 1.8 0.7 8.2 5.6 4.4 4.2 5.8 5.4 4.6 6.2 7.4 6.8 6.5 5.3 5.5 5.8 5.4 8.6 9.7 4.3 1.3 0.5 0.6 0.8 0.4 0.4 0.3 0.8 0.0 0.4 0.0 0.0 0.0 0.0 0.0 0.0 0.0 0.0 0.0 0.0 0.0 0.0 0.0 0.0 0.0 0.0 0.0 0.0 0.0 0.0 0.0 0.0
0.0 0.8 5.2 6.4 7.1 3.8 6.8 3.0 4.2 4.5 5.0 6.4 6.4 7.7 9.2 8.1 9.0 8.0 13.5 9.2 6.3 3.2 2.0 1.7 1.4 1.7 1.6 1.0 0.6 0.2 0.1 0.0 0.0 0.2 0.1 0.0 0.0 0.0 0.0 0.0 0.0 0.0 0.0 0.0 0.0 0.0 0.0 0.0 0.0 0.0 0.0 0.0 0.0 0.0
0.0 5.6 6.1 4.1 3.1 4.6 2.7 3.3 2.2 2.8 3.8 4.3 5.4 6.1 5.6 7.7 7.6 8.9 8.5 3.7 3.2 3.4 2.8 3.0 2.2 1.1 1.6 1.8 2.0 1.4 0.9 0.4 0.1 0.1 0.7 0.5 0.1 0.0 0.0 0.0 0.0 0.0 0.0 0.0 0.0 0.0 0.0 0.0 0.0 0.0 0.0 0.0 0.0 0.0
6.4 7.0 3.4 2.2 1.0 0.4 0.6 1.9 2.2 1.7 2.9 4.2 5.1 5.4 5.8 6.2 8.3 6.9 3.9 3.2 4.9 6.5 5.3 3.7 2.4 1.9 1.5 1.7 1.6 1.9 1.7 2.2 1.8 0.6 0.2 1.2 0.8 0.5 0.1 0.6 0.2 0.0 0.0 0.0 0.0 0.0 0.0 0.0 0.0 0.0 0.0 0.0 0.0 0.2
3.7 1.5 0.5 0.4 0.3 0.0 0.0 0.9 1.9 2.7 2.9 4.0 4.6 4.4 5.0 5.4 5.2 5.2 3.3 3.8 5.8 7.1 7.1 6.1 4.0 2.2 2.4 2.7 2.3 2.7 2.4 2.4 2.0 1.5 2.2 2.3 1.6 1.7 1.3 1.1 1.1 0.7 0.0 0.3 0.3 0.4 0.4 0.3 0.2 0.2 0.3 0.0 0.7 1.1
1.3 0.2 0.0 0.0 0.0 0.0 0.1 0.0 0.0 0.0 1.0 2.3 2.5 2.7 3.0 4.0 4.8 2.6 2.2 4.0 6.1 7.0 7.5 7.4 6.4 4.1 3.6 3.4 3.6 3.7 3.9 3.6 3.7 1.6 3.2 3.8 3.3 2.0 1.4 1.5 0.8 0.4 0.3 1.6 1.2 1.1 1.3 1.3 1.3 1.4 2.0 2.3 2.3 2.2
0.0 0.0 0.0 0.0 0.0 0.1 0.1 0.0 0.0 0.0 0.0 0.2 1.4 1.6 1.9 2.2 1.2 1.4 2.6 3.7 6.3 7.1 7.7 7.8 7.5 5.5 4.4 4.1 4.4 4.7 5.2 5.5 5.3 4.9 4.4 4.9 4.9 4.5 3.6 3.8 3.1 2.6 2.5 2.7 2.9 2.9 2.7 2.9 2.9 2.8 3.3 3.2 2.7 2.8
0.2 0.0 0.0 0.1 0.2 0.2 0.0 0.0 0.0 0.0 0.0 0.0 0.0 0.6 0.4 0.6 1.0 1.6 2.5 4.3 5.5 6.1 7.0 7.3 7.4 7.1 6.2 5.6 5.8 5.9 5.3 5.5 4.9 4.3 3.0 3.0 3.4 4.3 5.4 5.3 4.9 5.7 4.9 4.0 2.9 3.1 3.0 3.1 3.5 3.8 3.6 3.7 3.5 3.7
0.0 0.0 0.0 0.0 0.0 0.0 0.0 0.0 0.0 0.0 0.0 0.0 0.0 0.1 0.1 0.4 1.1 1.7 2.4 3.4 5.1 6.1 7.2 7.4 7.0 7.3 7.2 6.7 7.2 7.2 6.9 6.4 6.1 4.5 3.6 3.1 2.6 4.4 5.4 5.7 5.7 4.5 5.0 5.2 4.6 4.5 3.4 4.3 4.2 4.9 4.8 4.8 4.8 4.6
0.0 0.0 0.0 0.0 0.0 0.0 0.0 0.2 0.2 0.0 0.0 0.0 0.0 0.0 0.1 0.1 0.7 1.3 2.1 3.1 4.1 5.1 5.9 6.5 6.8 7.4 7.2 7.1 7.3 6.9 6.5 6.4 6.5 6.3 5.7 5.4 5.4 5.4 6.3 6.3 5.9 6.2 6.1 5.8 4.7 4.8 4.2 3.1 2.5 2.9 3.1 3.4 3.9 3.4
0.2 0.0 0.0 0.0 0.0 0.4 0.4 0.1 0.2 0.0 0.0 0.0 0.0 0.0 0.1 0.2 0.3 0.6 1.1 1.8 2.7 3.6 4.4 5.2 5.4 5.8 6.0 6.1 5.9 6.0 5.7 5.7 5.2 6.0 5.7 5.0 4.7 5.1 5.5 5.5 6.0 6.1 6.5 7.0 6.4 6.2 6.1 5.3 6.2 5.8 5.7 5.8 5.6 5.1
1.3 0.8 0.8 0.4 0.0 0.0 0.1 0.0 0.0 0.0 0.0 0.0 0.0 0.1 0.1 0.2 0.2 0.2 0.6 1.3 1.9 2.7 3.5 4.1 4.6 5.2 5.3 5.4 5.6 6.0 6.3 7.1 7.0 6.7 6.9 6.6 6.0 5.9 6.1 6.1 5.8 6.4 6.6 6.8 7.1 7.7 8.3 8.0 7.6 6.8 6.7 6.6 6.6 6.5

GFSWCAN_prec_kuchsnow_096.txt.gz
Snowfall_Accumulation
0.0 0.0 0.0 0.0 0.0 0.0 0.0 0.0 0.0 0.0 0.0 0.0 0.0 0.0 0.0 0.0 0.0 0.0 0.0 0.0 0.0 0.0 0.0 0.0 0.0 0.0 0.0 0.0 0.0 0.0 0.0 0.0 0.0 1.6 1.4 1.2 0.3 0.0 0.3 0.0 0.1 0.2 1.2 1.5 1.4 2.6 0.4 0.0 0.0 0.0 0.0 0.0 0.0 0.0
0.0 0.0 0.0 0.0 0.0 0.0 0.0 0.0 0.0 0.0 0.0 0.0 0.0 0.0 0.0 0.0 0.0 0.0 0.0 0.0 0.0 0.0 0.0 0.0 0.0 0.0 0.0 0.0 0.0 0.0 0.0 0.2 0.9 1.5 3.3 3.0 2.9 2.4 0.8 0.7 0.0 0.2 0.0 0.2 0.3 0.0 0.0 0.0 0.0 0.0 0.0 0.0 0.0 0.0
0.0 0.0 0.0 0.0 0.0 0.0 0.0 0.0 0.0 0.0 0.0 0.0 0.0 0.0 0.0 0.0 0.0 0.0 0.0 0.0 0.0 0.0 0.0 0.0 0.0 0.0 0.0 0.0 0.0 0.1 0.0 0.0 0.0 1.6 1.5 0.2 1.9 1.1 0.6 1.0 0.4 0.1 0.1 0.0 0.0 0.0 0.0 0.0 0.0 0.0 0.0 0.0 0.0 0.0
0.0 0.0 0.0 0.0 0.0 0.0 0.0 0.0 0.0 0.0 0.0 0.0 0.0 0.0 0.0 0.0 0.0 0.0 0.0 0.0 0.0 0.0 1.8 0.0 0.0 0.0 0.0 0.0 0.0 0.0 0.0 0.0 0.0 0.9 2.4 1.2 0.1 0.4 0.1 0.2 0.1 0.0 0.0 0.1 0.0 0.0 0.0 0.0 0.0 0.0 0.0 0.0 0.0 0.0
0.0 0.0 0.0 0.0 0.0 0.0 0.0 0.0 0.0 0.0 0.0 0.0 0.0 0.0 0.0 0.0 0.0 0.0 0.0 0.0 0.0 0.4 2.2 0.4 0.0 0.0 0.0 0.0 0.0 0.0 0.0 0.0 0.1 1.1 0.8 1.8 0.3 0.7 0.0 0.0 0.0 0.0 0.0 0.0 0.0 0.0 0.0 0.0 0.0 0.0 0.0 0.0 0.0 0.0
0.0 0.0 0.0 0.0 0.0 0.0 0.0 0.0 0.0 0.0 0.0 0.0 0.0 0.0 0.0 0.0 0.0 0.0 0.0 0.0 0.0 0.0 2.7 2.4 0.0 0.0 0.0 0.0 0.0 0.0 0.0 0.0 0.1 0.3 0.7 0.0 0.0 1.3 1.2 0.6 0.0 0.0 0.0 0.0 0.0 0.0 0.0 0.0 0.0 0.0 0.0 0.0 0.0 0.0
0.0 0.0 0.0 0.0 0.0 0.0 0.0 0.0 0.0 0.0 0.0 0.0 0.0 0.0 0.0 0.0 0.0 0.0 0.0 0.0 0.0 0.0 1.5 5.5 2.7 0.0 0.0 0.0 0.0 0.0 0.0 0.1 0.3 0.5 1.3 0.5 0.0 1.2 2.4 0.1 0.0 0.0 0.0 0.0 0.0 0.0 0.0 0.0 0.0 0.0 0.0 0.0 0.0 0.0
0.0 0.0 0.0 0.0 0.0 0.0 0.0 0.0 0.0 0.0 0.0 0.0 0.0 0.0 0.0 0.0 0.0 0.0 0.0 0.0 0.0 0.0 1.2 4.9 1.7 1.0 0.0 0.1 0.1 0.0 0.2 0.6 0.8 0.6 0.3 0.0 0.1 0.3 1.0 0.0 0.0 0.0 0.0 0.0 0.0 0.0 0.0 0.0 0.0 0.0 0.0 0.0 0.0 0.0
0.0 0.0 0.0 0.0 0.0 0.0 0.0 0.0 0.0 0.0 0.0 0.0 0.0 0.0 0.0 0.0 0.0 0.0 0.0 0.0 0.0 0.0 2.5 2.2 2.9 4.9 0.0 0.0 0.1 0.2 0.4 4.0 0.0 1.4 0.5 0.5 0.0 2.6 0.0 0.0 0.0 0.0 0.1 0.0 0.0 0.0 0.0 0.0 0.0 0.0 0.0 0.0 0.0 0.0
0.0 0.0 0.0 0.0 0.0 0.0 0.0 0.0 0.0 0.0 0.0 0.0 0.0 0.0 0.4 0.0 0.0 0.0 0.0 1.2 1.8 1.6 1.2 1.3 0.3 1.7 0.0 0.0 1.8 0.4 0.6 2.2 5.3 0.0 0.0 0.9 0.4 0.0 0.0 0.0 0.1 0.0 0.0 0.0 0.0 0.0 0.0 0.0 0.0 0.0 0.0 0.0 0.0 0.0
0.0 0.0 0.0 0.0 0.0 0.0 0.0 0.0 0.0 0.0 0.0 0.0 1.0 0.6 0.0 0.0 0.0 0.0 1.8 1.8 1.1 1.3 0.1 0.0 0.1 1.3 0.0 3.1 3.6 1.5 5.4 2.8 9.1 3.2 2.3 4.0 2.9 1.4 0.3 0.2 0.0 0.0 0.0 0.0 0.0 0.0 0.0 0.0 0.0 0.0 0.0 0.0 0.0 0.0
0.0 0.0 0.0 0.0 0.0 0.0 0.0 0.0 0.0 0.0 3.0 0.0 0.0 0.0 0.0 0.5 1.8 3.0 2.8 0.8 0.7 0.0 0.0 0.6 1.3 1.4 0.6 0.5 2.0 0.7 4.2 4.0 4.5 0.9 3.6 4.3 3.1 2.1 0.9 0.1 0.0 0.0 0.0 0.0 0.0 0.0 0.0 0.0 0.0 0.0 0.0 0.0 0.0 0.0
0.0 0.0 0.0 0.0 0.0 0.0 0.0 0.0 0.0 0.0 0.0 0.0 2.5 9.6 7.3 6.0 8.8 2.6 2.0 0.6 0.2 0.0 0.0 1.4 2.0 0.0 0.5 1.5 1.4 1.4 1.7 2.2 0.9 2.6 1.7 1.9 0.7 0.7 1.4 0.7 0.1 0.0 0.7 1.2 0.5 0.2 0.0 0.0 0.0 0.0 0.1 1.0 0.6 1.3
0.0 0.0 0.0 0.0 0.0 0.0 0.0 0.0 0.0 0.0 2.7 3.7 14.1 19.1 7.1 5.4 0.6 0.6 0.4 0.0 0.0 0.0 0.0 0.3 0.8 1.3 0.0 1.9 1.6 2.5 0.5 0.9 2.1 0.9 0.1 0.0 0.0 0.1 0.2 0.6 0.6 0.6 0.1 0.2 0.4 0.5 0.2 0.4 0.6 0.4 0.7 0.3 0.3 0.3
0.0 0.0 0.0 0.0 0.0 0.0 0.0 0.0 0.0 0.0 3.6 13.2 7.0 7.4 2.8 0.6 0.2 0.1 0.3 0.1 0.0 0.0 0.0 0.0 0.0 0.5 1.7 2.7 1.6 0.9 1.8 0.9 0.7 0.6 0.0 0.0 0.1 0.1 0.1 0.6 2.5 1.8 1.0 0.4 0.2 0.1 0.5 0.6 0.5 0.2 0.0 0.0 0.0 0.0
0.0 0.0 0.0 0.0 0.0 0.0 0.0 0.0 0.0 0.0 16.2 12.5 7.1 4.0 0.4 0.1 0.6 0.2 0.1 0.0 0.0 0.0 0.0 0.0 1.8 1.6 1.5 1.6 1.8 1.0 1.5 0.8 0.7 0.3 0.0 0.0 0.0 0.2 0.4 1.4 1.9 0.7 0.8 1.1 0.8 0.0 0.0 0.0 0.0 0.0 0.0 0.0 0.0 0.0
0.0 0.0 0.0 0.0 0.0 0.0 0.0 2.1 4.4 16.1 18.0 13.6 4.5 0.1 0.3 0.7 0.3 0.2 0.2 0.1 0.0 0.3 1.5 2.7 3.0 1.8 0.4 1.1 0.3 0.1 0.2 0.3 0.0 0.1 0.0 0.0 0.0 0.0 0.5 0.9 1.7 0.8 1.1 1.6 1.2 0.3 0.0 0.0 0.0 0.0 0.0 0.0 0.0 0.0
0.0 0.0 0.0 0.0 0.0 0.0 1.3 9.5 17.2 17.3 17.5 7.0 1.0 1.2 1.4 0.8 0.4 0.2 0.2 0.5 1.1 1.8 2.0 4.1 1.4 1.3 0.6 0.6 0.2 0.0 0.0 0.0 0.0 0.0 0.0 0.0 0.0 0.0 0.0 0.6 1.3 1.5 1.5 1.2 0.7 0.0 0.3 0.1 0.1 0.1 0.2 0.2 0.2 0.1
0.0 0.0 0.0 0.0 0.0 1.5 11.7 13.6 11.2 14.1 8.0 3.1 2.2 2.4 1.3 0.7 0.0 0.0 0.0 0.4 0.9 1.8 3.4 4.8 3.6 1.0 0.0 0.2 0.2 0.0 0.0 0.0 0.1 0.0 0.0 0.0 0.0 0.0 0.0 0.0 0.0 0.0 0.5 0.6 0.6 0.4 0.2 0.1 0.1 0.2 0.3 0.5 0.6 0.7
0.0 0.0 0.0 0.0 0.0 3.3 7.6 11.4 5.1 6.7 6.5 5.3 3.8 2.9 1.4 0.8 0.1 0.3 0.1 0.0 0.5 2.0 3.6 3.4 0.5 0.1 0.0 0.1 0.2 0.2 0.0 0.0 0.0 0.0 0.0 0.0 0.0 0.0 0.0 0.0 0.0 0.0 0.0 0.0 0.0 0.0 0.0 0.0 0.0 0.0 0.0 0.0 0.0 0.0
0.0 0.0 0.0 0.0 5.7 4.3 5.2 6.2 7.7 7.0 6.5 7.1 7.8 4.4 3.5 1.4 1.3 1.3 2.8 1.1 3.9 4.6 2.5 1.2 0.1 0.0 0.2 0.1 0.0 0.0 0.1 0.0 0.0 0.0 0.0 0.0 0.0 0.0 0.0 0.0 0.0 0.0 0.0 0.0 0.0 0.0 0.0 0.0 0.0 0.0 0.0 0.0 0.0 0.0
0.3 0.0 1.8 0.7 8.9 6.4 5.1 4.7 6.4 6.4 5.8 8.1 8.9 7.5 7.0 5.5 5.6 5.8 5.4 8.6 9.7 4.3 1.3 0.5 0.6 0.8 0.4 0.4 0.3 0.8 0.0 0.4 0.0 0.0 0.0 0.0 0.0 0.0 0.0 0.0 0.0 0.0 0.0 0.0 0.0 0.0 0.0 0.0 0.0 0.0 0.0 0.0 0.0 0.0
0.0 0.8 6.6 8.0 9.5 5.6 8.4 4.0 5.7 6.1 6.7 8.1 7.5 8.2 9.5 8.3 9.0 8.0 13.5 9.2 6.3 3.2 2.0 1.7 1.4 1.7 1.6 1.0 0.6 0.2 0.1 0.0 0.0 0.2 0.1 0.0 0.0 0.0 0.0 0.0 0.0 0.0 0.0 0.0 0.0 0.0 0.0 0.0 0.0 0.0 0.0 0.0 0.0 0.0
0.0 8.4 10.0 7.3 5.1 6.1 3.8 4.4 3.1 3.7 4.7 5.1 5.7 6.3 5.6 7.7 7.7 9.0 8.5 3.7 3.2 3.4 2.8 3.0 2.2 1.1 1.6 1.8 2.0 1.4 0.9 0.4 0.1 0.1 0.7 0.5 0.1 0.0 0.0 0.0 0.0 0.0 0.0 0.0 0.0 0.0 0.0 0.0 0.0 0.0 0.0 0.0 0.0 0.0
8.4 10.2 5.7 4.1 1.9 1.0 1.3 2.7 3.1 2.3 3.3 4.5 5.2 5.4 5.8 6.2 8.3 6.9 3.9 3.2 4.9 6.5 5.3 3.7 2.4 1.9 1.5 1.7 1.6 1.9 1.7 2.2 1.8 0.6 0.2 1.2 0.8 0.5 0.1 0.6 0.2 0.0 0.0 0.0 0.0 0.0 0.0 0.0 0.0 0.0 0.0 0.0 0.0 0.2
4.9 2.3 0.9 0.6 0.4 0.1 0.3 1.2 2.0 2.8 3.0 4.0 4.6 4.4 5.0 5.4 5.2 5.2 3.3 3.8 5.8 7.1 7.1 6.1 4.0 2.2 2.4 2.7 2.3 2.7 2.4 2.4 2.0 1.5 2.2 2.3 1.6 1.7 1.3 1.1 1.1 0.7 0.0 0.3 0.3 0.4 0.4 0.3 0.2 0.2 0.3 0.0 0.7 1.1
1.8 0.2 0.0 0.0 0.0 0.0 0.1 0.0 0.0 0.0 1.0 2.3 2.5 2.7 3.0 4.0 4.8 2.6 2.2 4.0 6.1 7.0 7.5 7.4 6.4 4.1 3.6 3.4 3.6 3.7 3.9 3.6 3.7 1.6 3.2 3.8 3.3 2.0 1.4 1.5 0.8 0.4 0.3 1.6 1.2 1.1 1.3 1.3 1.3 1.4 2.0 2.3 2.3 2.2
0.0 0.0 0.0 0.0 0.0 0.1 0.1 0.0 0.0 0.0 0.0 0.2 1.4 1.6 1.9 2.2 1.2 1.4 2.6 3.7 6.3 7.1 7.7 7.8 7.5 5.5 4.4 4.1 4.4 4.7 5.2 5.5 5.3 4.9 4.4 4.9 4.9 4.5 3.6 3.8 3.1 2.6 2.5 2.7 2.9 2.9 2.7 2.9 2.9 2.8 3.3 3.2 2.7 2.8
0.2 0.0 0.0 0.1 0.2 0.2 0.0 0.0 0.0 0.0 0.0 0.0 0.0 0.6 0.4 0.6 1.0 1.6 2.5 4.3 5.5 6.1 7.0 7.3 7.4 7.1 6.2 5.6 5.8 5.9 5.3 5.5 4.9 4.3 3.0 3.0 3.4 4.3 5.4 5.3 4.9 5.7 4.9 4.0 2.9 3.1 3.0 3.2 3.6 3.9 3.7 3.8 3.5 3.7
0.0 0.0 0.1 0.1 0.0 0.0 0.0 0.0 0.0 0.0 0.0 0.0 0.0 0.1 0.1 0.4 1.1 1.7 2.4 3.4 5.1 6.1 7.2 7.4 7.0 7.3 7.2 6.7 7.2 7.2 6.9 6.4 6.1 4.5 3.6 3.1 2.6 4.4 5.4 5.7 5.7 4.5 5.0 5.2 4.6 4.5 3.4 4.3 4.2 4.9 4.8 4.8 4.8 4.6
0.1 0.0 0.0 0.0 0.0 0.0 0.0 0.2 0.2 0.0 0.0 0.0 0.0 0.0 0.1 0.1 0.7 1.3 2.1 3.1 4.1 5.1 5.9 6.5 6.8 7.4 7.2 7.1 7.3 6.9 6.5 6.4 6.5 6.3 5.7 5.4 5.4 5.4 6.3 6.3 5.9 6.2 6.1 5.8 4.7 4.8 4.2 3.1 2.5 2.9 3.1 3.4 3.9 3.4
0.3 0.0 0.0 0.0 0.0 0.4 0.4 0.1 0.2 0.0 0.0 0.0 0.0 0.0 0.1 0.2 0.3 0.6 1.1 1.8 2.7 3.6 4.4 5.2 5.4 5.8 6.0 6.1 5.9 6.0 5.7 5.7 5.2 6.0 5.7 5.0 4.7 5.1 5.5 5.5 6.0 6.1 6.5 7.0 6.4 6.2 6.1 5.3 6.2 5.8 5.7 5.8 5.6 5.1
1.3 0.8 0.8 0.4 0.0 0.0 0.1 0.0 0.0 0.0 0.0 0.0 0.0 0.1 0.1 0.2 0.2 0.2 0.6 1.3 1.9 2.7 3.5 4.1 4.6 5.2 5.3 5.4 5.6 6.0 6.3 7.1 7.0 6.7 6.9 6.6 6.0 5.9 6.1 6.1 5.8 6.4 6.6 6.8 7.1 7.7 8.3 8.0 7.6 6.8 6.7 6.6 6.6 6.5

GFSWCAN_prec_kuchsnow_099.txt.gz
Snowfall_Accumulation
0.0 0.0 0.0 0.0 0.0 0.0 0.0 0.0 0.0 0.0 0.0 0.0 0.0 0.0 0.0 0.0 0.0 0.0 0.0 0.0 0.0 0.0 0.0 0.0 0.0 0.0 0.0 0.0 0.0 0.0 0.0 0.0 0.0 1.6 1.4 1.2 0.3 0.0 0.3 0.0 0.1 0.2 1.2 1.5 1.4 2.6 0.4 0.0 0.0 0.0 0.0 0.0 0.0 0.0
0.0 0.0 0.0 0.0 0.0 0.0 0.0 0.0 0.0 0.0 0.0 0.0 0.0 0.0 0.0 0.0 0.0 0.0 0.0 0.0 0.0 0.0 0.0 0.0 0.0 0.0 0.0 0.0 0.0 0.0 0.0 0.2 0.9 1.5 3.3 3.0 2.9 2.4 0.8 0.7 0.0 0.2 0.0 0.2 0.3 0.0 0.0 0.0 0.0 0.0 0.0 0.0 0.0 0.0
0.0 0.0 0.0 0.0 0.0 0.0 0.0 0.0 0.0 0.0 0.0 0.0 0.0 0.0 0.0 0.0 0.0 0.0 0.0 0.0 0.0 0.0 0.0 0.0 0.0 0.0 0.0 0.0 0.0 0.1 0.0 0.0 0.0 1.6 1.5 0.2 1.9 1.1 0.6 1.0 0.4 0.1 0.1 0.0 0.0 0.0 0.0 0.0 0.0 0.0 0.0 0.0 0.0 0.0
0.0 0.0 0.0 0.0 0.0 0.0 0.0 0.0 0.0 0.0 0.0 0.0 0.0 0.0 0.0 0.0 0.0 0.0 0.0 0.0 0.0 0.0 1.8 0.0 0.0 0.0 0.0 0.0 0.0 0.0 0.0 0.0 0.0 0.9 2.4 1.2 0.1 0.4 0.1 0.2 0.1 0.0 0.0 0.1 0.0 0.0 0.0 0.0 0.0 0.0 0.0 0.0 0.0 0.0
0.0 0.0 0.0 0.0 0.0 0.0 0.0 0.0 0.0 0.0 0.0 0.0 0.0 0.0 0.0 0.0 0.0 0.0 0.0 0.0 0.0 0.4 2.2 0.4 0.0 0.0 0.0 0.0 0.0 0.0 0.0 0.0 0.1 1.1 0.8 1.8 0.3 0.7 0.0 0.0 0.0 0.0 0.0 0.0 0.0 0.0 0.0 0.0 0.0 0.0 0.0 0.0 0.0 0.0
0.0 0.0 0.0 0.0 0.0 0.0 0.0 0.0 0.0 0.0 0.0 0.0 0.0 0.0 0.0 0.0 0.0 0.0 0.0 0.0 0.0 0.0 2.7 2.4 0.0 0.0 0.0 0.0 0.0 0.0 0.0 0.0 0.1 0.3 0.7 0.0 0.0 1.3 1.2 0.6 0.0 0.0 0.0 0.0 0.0 0.0 0.0 0.0 0.0 0.0 0.0 0.0 0.0 0.0
0.0 0.0 0.0 0.0 0.0 0.0 0.0 0.0 0.0 0.0 0.0 0.0 0.0 0.0 0.0 0.0 0.0 0.0 0.0 0.0 0.0 0.0 1.5 5.5 2.7 0.0 0.0 0.0 0.0 0.0 0.0 0.1 0.3 0.5 1.3 0.5 0.0 1.2 2.4 0.1 0.0 0.0 0.0 0.0 0.0 0.0 0.0 0.0 0.0 0.0 0.0 0.0 0.0 0.0
0.0 0.0 0.0 0.0 0.0 0.0 0.0 0.0 0.0 0.0 0.0 0.0 0.0 0.0 0.0 0.0 0.0 0.0 0.0 0.0 0.0 0.0 1.2 4.9 1.7 1.0 0.0 0.1 0.1 0.0 0.2 0.6 0.8 0.6 0.3 0.0 0.1 0.3 1.0 0.0 0.0 0.0 0.0 0.0 0.0 0.0 0.0 0.0 0.0 0.0 0.0 0.0 0.0 0.0
0.0 0.0 0.0 0.0 0.0 0.0 0.0 0.0 0.0 0.0 0.0 0.0 0.0 0.0 0.0 0.0 0.0 0.0 0.0 0.0 0.0 0.0 2.5 2.2 2.9 4.9 0.0 0.0 0.1 0.2 0.4 4.0 0.0 1.4 0.5 0.5 0.0 2.6 0.0 0.0 0.0 0.0 0.1 0.0 0.0 0.0 0.0 0.0 0.0 0.0 0.0 0.0 0.0 0.0
0.0 0.0 0.0 0.0 0.0 0.0 0.0 0.0 0.0 0.0 0.0 0.0 0.0 0.0 1.6 0.0 0.0 0.0 0.0 1.2 1.8 1.6 1.2 1.3 0.3 1.7 0.0 0.0 1.8 0.4 0.6 2.2 5.3 0.0 0.0 0.9 0.4 0.0 0.0 0.0 0.1 0.0 0.0 0.0 0.0 0.0 0.0 0.0 0.0 0.0 0.0 0.0 0.0 0.0
0.0 0.0 0.0 0.0 0.0 0.0 0.0 0.0 0.0 0.0 0.0 0.0 1.5 1.0 0.0 0.0 0.0 0.0 1.8 1.8 1.1 1.3 0.1 0.0 0.1 1.3 0.0 3.1 3.6 1.5 5.4 2.8 9.1 3.2 2.3 4.0 2.9 1.4 0.3 0.2 0.0 0.0 0.0 0.0 0.0 0.0 0.0 0.0 0.0 0.0 0.0 0.0 0.0 0.0
0.0 0.0 0.0 0.0 0.0 0.0 0.0 0.0 0.0 0.0 3.0 0.0 0.0 0.0 0.0 0.5 2.0 3.0 2.8 0.8 0.7 0.0 0.0 0.6 1.3 1.4 0.6 0.5 2.0 0.7 4.2 4.0 4.5 0.9 3.6 4.3 3.1 2.1 0.9 0.1 0.0 0.0 0.0 0.0 0.0 0.0 0.0 0.0 0.0 0.0 0.0 0.0 0.0 0.0
0.0 0.0 0.0 0.0 0.0 0.0 0.0 0.0 0.0 0.0 0.0 0.0 2.5 9.9 7.4 6.1 8.9 2.6 2.0 0.6 0.2 0.0 0.0 1.4 2.0 0.0 0.5 1.5 1.4 1.4 1.7 2.2 0.9 2.6 1.7 1.9 0.7 0.7 1.4 0.7 0.1 0.0 0.7 1.2 0.5 0.2 0.0 0.0 0.0 0.0 0.1 1.0 0.6 1.3
0.0 0.0 0.0 0.0 0.0 0.0 0.0 0.0 0.0 0.0 2.7 3.7 14.4 19.5 7.1 5.4 0.6 0.6 0.4 0.0 0.0 0.0 0.0 0.3 0.8 1.3 0.0 1.9 1.6 2.5 0.5 0.9 2.1 0.9 0.1 0.0 0.0 0.1 0.2 0.6 0.6 0.6 0.1 0.2 0.4 0.5 0.2 0.4 0.6 0.4 0.7 0.3 0.3 0.3
0.0 0.0 0.0 0.0 0.0 0.0 0.0 0.0 0.0 0.0 3.6 13.4 7.0 7.4 2.8 0.6 0.2 0.1 0.3 0.1 0.0 0.0 0.0 0.0 0.0 0.5 1.7 2.7 1.6 0.9 1.8 0.9 0.7 0.6 0.0 0.0 0.1 0.1 0.1 0.6 2.5 1.8 1.0 0.4 0.2 0.1 0.5 0.6 0.5 0.2 0.0 0.0 0.0 0.0
0.0 0.0 0.0 0.0 0.0 0.0 0.0 0.0 0.0 0.0 16.6 12.6 7.1 4.0 0.4 0.1 0.6 0.2 0.1 0.0 0.0 0.0 0.0 0.0 1.8 1.6 1.5 1.6 1.8 1.0 1.5 0.8 0.7 0.3 0.0 0.0 0.0 0.2 0.4 1.4 1.9 0.7 0.8 1.1 0.8 0.0 0.0 0.0 0.0 0.0 0.0 0.0 0.0 0.0
0.0 0.0 0.0 0.0 0.0 0.0 0.0 2.1 4.4 17.0 18.7 13.7 4.5 0.1 0.3 0.7 0.3 0.2 0.2 0.1 0.0 0.3 1.5 2.7 3.0 1.8 0.4 1.1 0.3 0.1 0.2 0.3 0.0 0.1 0.0 0.0 0.0 0.0 0.5 0.9 1.7 0.8 1.1 1.6 1.2 0.3 0.0 0.0 0.0 0.0 0.0 0.0 0.0 0.0
0.0 0.0 0.0 0.0 0.0 0.0 1.3 9.5 18.6 18.7 18.3 7.2 1.0 1.2 1.4 0.8 0.4 0.2 0.2 0.5 1.1 1.8 2.0 4.1 1.4 1.3 0.6 0.6 0.2 0.0 0.0 0.0 0.0 0.0 0.0 0.0 0.0 0.0 0.0 0.6 1.3 1.5 1.5 1.2 0.7 0.0 0.3 0.1 0.1 0.1 0.2 0.2 0.2 0.3
0.0 0.0 0.0 0.0 0.0 1.5 13.8 15.9 12.0 14.3 8.2 3.2 2.6 2.9 1.8 0.7 0.0 0.0 0.0 0.4 0.9 1.8 3.4 4.8 3.6 1.0 0.0 0.2 0.2 0.0 0.0 0.0 0.1 0.0 0.0 0.0 0.0 0.0 0.0 0.0 0.0 0.0 0.5 0.6 0.6 0.4 0.2 0.1 0.1 0.2 0.3 0.5 0.6 0.7
0.0 0.0 0.0 0.0 0.0 4.4 8.5 12.8 5.3 6.7 6.5 5.7 4.5 3.9 2.1 1.2 0.2 0.3 0.1 0.0 0.5 2.0 3.6 3.4 0.5 0.1 0.0 0.1 0.2 0.2 0.0 0.0 0.0 0.0 0.0 0.0 0.0 0.0 0.0 0.0 0.0 0.0 0.0 0.0 0.0 0.0 0.0 0.0 0.0 0.0 0.0 0.0 0.0 0.0
0.0 0.0 0.0 0.0 7.0 4.7 5.5 6.6 7.8 7.0 7.1 8.1 9.2 5.5 4.4 1.9 1.3 1.3 2.8 1.1 3.9 4.6 2.5 1.2 0.1 0.0 0.2 0.1 0.0 0.0 0.1 0.0 0.0 0.0 0.0 0.0 0.0 0.0 0.0 0.0 0.0 0.0 0.0 0.0 0.0 0.0 0.0 0.0 0.0 0.0 0.0 0.0 0.0 0.0
0.3 0.0 1.8 0.7 9.7 7.2 5.5 4.7 6.4 6.8 6.4 9.3 10.2 8.4 7.7 6.1 6.0 5.8 5.4 8.6 9.7 4.3 1.3 0.5 0.6 0.8 0.4 0.4 0.3 0.8 0.0 0.4 0.0 0.0 0.0 0.0 0.0 0.0 0.0 0.0 0.0 0.0 0.0 0.0 0.0 0.0 0.0 0.0 0.0 0.0 0.0 0.0 0.0 0.0
0.0 0.8 6.6 9.6 11.6 6.7 9.5 5.1 7.0 7.3 8.1 10.2 9.3 9.4 10.3 8.8 9.2 8.1 13.5 9.2 6.3 3.2 2.0 1.7 1.4 1.7 1.6 1.0 0.6 0.2 0.1 0.0 0.0 0.2 0.1 0.0 0.0 0.0 0.0 0.0 0.0 0.0 0.0 0.0 0.0 0.0 0.0 0.0 0.0 0.0 0.0 0.0 0.0 0.0
0.0 10.7 13.6 10.1 6.5 7.0 4.5 5.4 3.9 4.6 6.2 6.6 7.1 7.0 6.0 8.0 7.9 9.0 8.5 3.7 3.2 3.4 2.8 3.0 2.2 1.1 1.6 1.8 2.0 1.4 0.9 0.4 0.1 0.1 0.7 0.5 0.1 0.0 0.0 0.0 0.0 0.0 0.0 0.0 0.0 0.0 0.0 0.0 0.0 0.0 0.0 0.0 0.0 0.0
11.4 13.6 7.8 5.6 2.6 1.4 1.6 3.2 4.0 3.4 4.4 5.5 5.9 5.8 6.0 6.4 8.3 6.9 3.9 3.2 4.9 6.5 5.3 3.7 2.4 1.9 1.5 1.7 1.6 1.9 1.7 2.2 1.8 0.6 0.2 1.2 0.8 0.5 0.1 0.6 0.2 0.0 0.0 0.0 0.0 0.0 0.0 0.0 0.0 0.0 0.0 0.0 0.0 0.2
7.2 3.7 1.7 1.1 0.6 0.1 0.8 1.9 3.0 3.8 4.0 4.9 5.1 4.5 5.0 5.4 5.2 5.2 3.3 3.8 5.8 7.1 7.1 6.1 4.0 2.2 2.4 2.7 2.3 2.7 2.4 2.4 2.0 1.5 2.2 2.3 1.6 1.7 1.3 1.1 1.1 0.7 0.0 0.3 0.3 0.4 0.4 0.3 0.2 0.2 0.3 0.0 0.7 1.1
2.6 0.4 0.0 0.0 0.0 0.1 0.3 0.3 0.4 0.5 1.5 2.5 2.6 2.7 3.0 4.0 4.8 2.6 2.2 4.0 6.1 7.0 7.5 7.4 6.4 4.1 3.6 3.4 3.6 3.7 3.9 3.6 3.7 1.6 3.2 3.8 3.3 2.0 1.4 1.5 0.8 0.4 0.3 1.6 1.2 1.1 1.3 1.3 1.3 1.4 2.0 2.3 2.3 2.2
0.0 0.0 0.0 0.0 0.0 0.1 0.2 0.2 0.2 0.1 0.0 0.2 1.4 1.6 1.9 2.2 1.2 1.4 2.6 3.7 6.3 7.1 7.7 7.8 7.5 5.5 4.4 4.1 4.4 4.7 5.2 5.5 5.3 4.9 4.4 4.9 4.9 4.5 3.6 3.8 3.1 2.6 2.5 2.7 2.9 2.9 2.7 2.9 2.9 2.8 3.3 3.2 2.7 2.8
0.2 0.0 0.0 0.3 0.4 0.5 0.5 0.3 0.1 0.0 0.0 0.0 0.0 0.6 0.4 0.6 1.0 1.6 2.5 4.3 5.5 6.1 7.0 7.3 7.4 7.1 6.2 5.6 5.8 5.9 5.3 5.5 4.9 4.3 3.0 3.0 3.4 4.3 5.4 5.3 4.9 5.7 4.9 4.0 2.9 3.1 3.0 3.2 3.6 3.9 3.9 3.8 3.5 3.7
0.2 0.3 0.5 0.6 0.3 0.2 0.2 0.1 0.0 0.0 0.0 0.0 0.0 0.1 0.1 0.4 1.1 1.7 2.4 3.4 5.1 6.1 7.2 7.4 7.0 7.3 7.2 6.7 7.2 7.2 6.9 6.4 6.1 4.5 3.6 3.1 2.6 4.4 5.4 5.7 5.7 4.5 5.0 5.2 4.6 4.5 3.4 4.3 4.2 4.9 4.8 4.8 4.8 4.6
0.4 0.4 0.3 0.2 0.1 0.0 0.0 0.2 0.2 0.0 0.0 0.0 0.0 0.0 0.1 0.1 0.7 1.3 2.1 3.1 4.1 5.1 5.9 6.5 6.8 7.4 7.2 7.1 7.3 6.9 6.5 6.4 6.5 6.3 5.7 5.4 5.4 5.4 6.3 6.3 5.9 6.2 6.1 5.9 4.7 4.8 4.2 3.1 2.5 2.9 3.1 3.4 3.9 3.4
0.7 0.2 0.1 0.0 0.1 0.4 0.4 0.1 0.2 0.0 0.0 0.0 0.0 0.0 0.1 0.2 0.3 0.6 1.1 1.8 2.7 3.6 4.4 5.2 5.4 5.8 6.0 6.1 5.9 6.0 5.7 5.7 5.2 6.0 5.7 5.0 4.7 5.1 5.5 5.5 6.0 6.1 6.5 7.1 6.5 6.2 6.1 5.3 6.2 5.8 5.7 5.8 5.6 5.1
1.7 0.8 0.8 0.5 0.1 0.0 0.1 0.0 0.0 0.0 0.0 0.0 0.0 0.1 0.1 0.2 0.2 0.2 0.6 1.3 1.9 2.7 3.5 4.1 4.6 5.2 5.3 5.4 5.6 6.0 6.3 7.1 7.0 6.7 6.9 6.6 6.0 5.9 6.1 6.1 5.8 6.4 6.7 6.8 7.1 7.7 8.3 8.0 7.6 6.8 6.7 6.6 6.6 6.5

GFSWCAN_prec_kuchsnow_102.txt.gz
Snowfall_Accumulation
0.0 0.0 0.0 0.0 0.0 0.0 0.0 0.0 0.0 0.0 0.0 0.0 0.0 0.0 0.0 0.0 0.0 0.0 0.0 0.0 0.0 0.0 0.0 0.0 0.0 0.0 0.0 0.0 0.0 0.0 0.0 0.0 0.0 1.6 1.4 1.2 0.3 0.0 0.3 0.0 0.1 0.2 1.2 1.5 1.4 2.6 0.4 0.0 0.0 0.0 0.0 0.0 0.0 0.0
0.0 0.0 0.0 0.0 0.0 0.0 0.0 0.0 0.0 0.0 0.0 0.0 0.0 0.0 0.0 0.0 0.0 0.0 0.0 0.0 0.0 0.0 0.0 0.0 0.0 0.0 0.0 0.0 0.0 0.0 0.0 0.2 0.9 1.5 3.3 3.0 2.9 2.4 0.8 0.7 0.0 0.2 0.0 0.2 0.3 0.0 0.0 0.0 0.0 0.0 0.0 0.0 0.0 0.0
0.0 0.0 0.0 0.0 0.0 0.0 0.0 0.0 0.0 0.0 0.0 0.0 0.0 0.0 0.0 0.0 0.0 0.0 0.0 0.0 0.0 0.0 0.0 0.0 0.0 0.0 0.0 0.0 0.0 0.1 0.0 0.0 0.0 1.6 1.5 0.2 1.9 1.1 0.6 1.0 0.4 0.1 0.1 0.0 0.0 0.0 0.0 0.0 0.0 0.0 0.0 0.0 0.0 0.0
0.0 0.0 0.0 0.0 0.0 0.0 0.0 0.0 0.0 0.0 0.0 0.0 0.0 0.0 0.0 0.0 0.0 0.0 0.0 0.0 0.0 0.0 1.8 0.0 0.0 0.0 0.0 0.0 0.0 0.0 0.0 0.0 0.0 0.9 2.4 1.2 0.1 0.4 0.1 0.2 0.1 0.0 0.0 0.1 0.0 0.0 0.0 0.0 0.0 0.0 0.0 0.0 0.0 0.0
0.0 0.0 0.0 0.0 0.0 0.0 0.0 0.0 0.0 0.0 0.0 0.0 0.0 0.0 0.0 0.0 0.0 0.0 0.0 0.0 0.0 0.4 2.2 0.4 0.0 0.0 0.0 0.0 0.0 0.0 0.0 0.0 0.1 1.1 0.8 1.8 0.3 0.7 0.0 0.0 0.0 0.0 0.0 0.0 0.0 0.0 0.0 0.0 0.0 0.0 0.0 0.0 0.0 0.0
0.0 0.0 0.0 0.0 0.0 0.0 0.0 0.0 0.0 0.0 0.0 0.0 0.0 0.0 0.0 0.0 0.0 0.0 0.0 0.0 0.0 0.0 2.7 2.4 0.0 0.0 0.0 0.0 0.0 0.0 0.0 0.0 0.1 0.3 0.7 0.0 0.0 1.3 1.2 0.6 0.0 0.0 0.0 0.0 0.0 0.0 0.0 0.0 0.0 0.0 0.0 0.0 0.0 0.0
0.0 0.0 0.0 0.0 0.0 0.0 0.0 0.0 0.0 0.0 0.0 0.0 0.0 0.0 0.0 0.0 0.0 0.0 0.0 0.0 0.0 0.0 1.5 5.5 2.7 0.0 0.0 0.0 0.0 0.0 0.0 0.1 0.3 0.5 1.3 0.5 0.0 1.2 2.4 0.1 0.0 0.0 0.0 0.0 0.0 0.0 0.0 0.0 0.0 0.0 0.0 0.0 0.0 0.0
0.0 0.0 0.0 0.0 0.0 0.0 0.0 0.0 0.0 0.0 0.0 0.0 0.0 0.0 0.0 0.0 0.0 0.0 0.0 0.0 0.0 0.0 1.2 4.9 1.7 1.0 0.0 0.1 0.1 0.0 0.2 0.6 0.8 0.6 0.3 0.0 0.1 0.3 1.0 0.0 0.0 0.0 0.0 0.0 0.0 0.0 0.0 0.0 0.0 0.0 0.0 0.0 0.0 0.0
0.0 0.0 0.0 0.0 0.0 0.0 0.0 0.0 0.0 0.0 0.0 0.0 0.0 0.0 0.0 0.0 0.0 0.0 0.0 0.0 0.0 0.0 2.5 2.2 2.9 4.9 0.0 0.0 0.1 0.2 0.4 4.0 0.0 1.4 0.5 0.5 0.0 2.6 0.0 0.0 0.0 0.0 0.1 0.0 0.0 0.0 0.0 0.0 0.0 0.0 0.0 0.0 0.0 0.0
0.0 0.0 0.0 0.0 0.0 0.0 0.0 0.0 0.0 0.0 0.0 0.0 0.0 0.0 2.4 0.0 0.0 0.0 0.0 1.2 1.8 1.6 1.2 1.3 0.3 1.7 0.0 0.0 1.8 0.4 0.6 2.2 5.3 0.0 0.0 0.9 0.4 0.0 0.0 0.0 0.1 0.0 0.0 0.0 0.0 0.0 0.0 0.0 0.0 0.0 0.0 0.0 0.0 0.0
0.0 0.0 0.0 0.0 0.0 0.0 0.0 0.0 0.0 0.0 0.0 0.0 1.5 1.4 0.0 0.0 0.0 0.0 1.8 1.9 1.1 1.3 0.1 0.0 0.1 1.3 0.0 3.1 3.6 1.5 5.4 2.8 9.1 3.2 2.3 4.0 2.9 1.4 0.3 0.2 0.0 0.0 0.0 0.0 0.0 0.0 0.0 0.0 0.0 0.0 0.0 0.0 0.0 0.0
0.0 0.0 0.0 0.0 0.0 0.0 0.0 0.0 0.0 0.0 3.0 0.0 0.0 0.0 0.0 0.5 2.8 3.4 2.9 0.8 0.7 0.0 0.0 0.6 1.3 1.4 0.6 0.5 2.0 0.7 4.2 4.0 4.5 0.9 3.6 4.3 3.1 2.1 0.9 0.1 0.0 0.0 0.0 0.0 0.0 0.0 0.0 0.0 0.0 0.0 0.0 0.0 0.0 0.0
0.0 0.0 0.0 0.0 0.0 0.0 0.0 0.0 0.0 0.0 0.0 0.0 2.5 9.9 7.9 6.7 8.9 2.6 2.0 0.6 0.2 0.0 0.0 1.4 2.0 0.0 0.5 1.5 1.4 1.4 1.7 2.2 0.9 2.6 1.7 1.9 0.7 0.7 1.4 0.7 0.1 0.0 0.7 1.2 0.5 0.2 0.0 0.0 0.0 0.0 0.1 1.0 0.6 1.3
0.0 0.0 0.0 0.0 0.0 0.0 0.0 0.0 0.0 0.0 2.7 3.7 14.4 19.7 7.1 5.4 0.6 0.6 0.4 0.0 0.0 0.0 0.0 0.3 0.8 1.3 0.0 1.9 1.6 2.5 0.5 0.9 2.2 0.9 0.1 0.0 0.0 0.1 0.2 0.6 0.6 0.6 0.1 0.2 0.4 0.5 0.2 0.4 0.6 0.4 0.7 0.3 0.3 0.3
0.0 0.0 0.0 0.0 0.0 0.0 0.0 0.0 0.0 0.0 3.6 13.4 7.0 7.4 2.8 0.6 0.2 0.1 0.3 0.1 0.0 0.0 0.0 0.0 0.0 0.5 1.7 2.7 1.6 0.9 1.9 0.9 0.7 0.6 0.0 0.0 0.1 0.1 0.1 0.6 2.5 1.8 1.0 0.4 0.2 0.1 0.5 0.6 0.5 0.2 0.0 0.0 0.0 0.0
0.0 0.0 0.0 0.0 0.0 0.0 0.0 0.0 0.0 0.0 16.7 12.6 7.1 4.0 0.4 0.1 0.6 0.2 0.1 0.1 0.0 0.0 0.0 0.0 1.8 1.6 1.5 1.6 1.8 1.0 1.5 0.8 0.7 0.3 0.0 0.0 0.0 0.2 0.4 1.4 1.9 0.7 0.8 1.1 0.8 0.0 0.0 0.0 0.0 0.0 0.0 0.0 0.0 0.0
0.0 0.0 0.0 0.0 0.0 0.0 0.0 2.1 4.4 17.7 19.3 13.9 4.5 0.1 0.3 0.7 0.3 0.2 0.2 0.1 0.0 0.3 1.5 2.7 3.0 1.8 0.4 1.1 0.3 0.1 0.2 0.3 0.0 0.1 0.0 0.0 0.0 0.0 0.5 0.9 1.7 0.8 1.1 1.6 1.2 0.3 0.0 0.0 0.0 0.0 0.0 0.0 0.0 0.0
0.0 0.0 0.0 0.0 0.0 0.0 1.3 9.5 19.8 19.8 19.0 7.4 1.1 1.2 1.4 0.8 0.4 0.2 0.2 0.5 1.1 1.8 2.0 4.1 1.4 1.3 0.6 0.6 0.2 0.0 0.0 0.0 0.0 0.0 0.0 0.0 0.0 0.0 0.0 0.6 1.3 1.5 1.5 1.2 0.7 0.0 0.3 0.1 0.1 0.1 0.2 0.2 0.2 0.3
0.0 0.0 0.0 0.0 0.0 1.5 15.8 18.0 12.9 14.6 8.3 3.4 3.0 3.4 2.1 0.7 0.0 0.0 0.0 0.4 0.9 1.8 3.4 4.8 3.6 1.0 0.0 0.2 0.2 0.0 0.0 0.0 0.1 0.0 0.0 0.0 0.0 0.0 0.0 0.0 0.0 0.0 0.5 0.6 0.6 0.4 0.2 0.1 0.1 0.2 0.3 0.5 0.6 0.7
0.0 0.0 0.0 0.0 0.0 5.3 9.4 14.2 5.6 6.7 6.5 6.0 5.1 5.0 2.9 1.7 0.4 0.3 0.1 0.0 0.5 2.0 3.6 3.4 0.5 0.1 0.0 0.1 0.2 0.2 0.0 0.0 0.0 0.0 0.0 0.0 0.0 0.0 0.0 0.0 0.0 0.0 0.0 0.0 0.0 0.0 0.0 0.0 0.0 0.0 0.0 0.0 0.0 0.0
0.0 0.0 0.0 0.0 8.2 5.5 6.0 7.1 7.8 7.0 7.4 8.8 10.1 6.5 5.7 2.7 1.7 1.3 2.8 1.1 3.9 4.6 2.5 1.2 0.1 0.0 0.2 0.1 0.0 0.0 0.1 0.0 0.0 0.0 0.0 0.0 0.0 0.0 0.0 0.0 0.0 0.0 0.0 0.0 0.0 0.0 0.0 0.0 0.0 0.0 0.0 0.0 0.0 0.0
0.3 0.0 1.8 0.7 11.1 8.3 6.0 4.9 6.4 7.0 6.8 10.1 11.2 9.2 8.5 6.8 6.5 6.0 5.4 8.6 9.7 4.3 1.3 0.5 0.6 0.8 0.4 0.4 0.3 0.8 0.0 0.4 0.0 0.0 0.0 0.0 0.0 0.0 0.0 0.0 0.0 0.0 0.0 0.0 0.0 0.0 0.0 0.0 0.0 0.0 0.0 0.0 0.0 0.0
0.0 0.8 7.6 11.0 13.5 7.8 10.4 5.4 7.0 8.0 9.1 11.5 10.5 10.5 11.2 9.3 9.5 8.2 13.5 9.2 6.3 3.2 2.0 1.7 1.4 1.7 1.6 1.0 0.6 0.2 0.1 0.0 0.0 0.2 0.1 0.0 0.0 0.0 0.0 0.0 0.0 0.0 0.0 0.0 0.0 0.0 0.0 0.0 0.0 0.0 0.0 0.0 0.0 0.0
0.0 12.4 16.4 12.1 7.6 7.6 4.9 6.0 4.7 5.4 7.2 8.1 8.4 7.8 6.5 8.4 8.3 9.2 8.5 3.7 3.2 3.4 2.8 3.0 2.2 1.1 1.6 1.8 2.0 1.4 0.9 0.4 0.1 0.1 0.7 0.5 0.1 0.0 0.0 0.0 0.0 0.0 0.0 0.0 0.0 0.0 0.0 0.0 0.0 0.0 0.0 0.0 0.0 0.0
13.2 16.1 9.1 6.7 3.0 1.6 1.7 3.6 4.6 3.9 5.1 6.5 6.8 6.5 6.5 6.8 8.6 6.9 3.9 3.2 4.9 6.5 5.3 3.7 2.4 1.9 1.5 1.7 1.6 1.9 1.7 2.2 1.8 0.6 0.2 1.2 0.8 0.5 0.1 0.6 0.2 0.0 0.0 0.0 0.0 0.0 0.0 0.0 0.0 0.0 0.0 0.0 0.0 0.2
8.6 4.6 2.4 1.4 0.7 0.1 0.8 1.9 3.4 4.2 4.9 6.0 5.9 5.1 5.6 5.8 5.3 5.2 3.3 3.8 5.8 7.1 7.1 6.1 4.0 2.2 2.4 2.7 2.3 2.7 2.4 2.4 2.0 1.5 2.2 2.3 1.6 1.7 1.3 1.1 1.1 0.7 0.0 0.3 0.3 0.4 0.4 0.3 0.2 0.2 0.3 0.0 0.7 1.1
3.2 0.4 0.0 0.0 0.0 0.1 0.3 0.8 1.2 1.6 2.7 3.2 3.0 3.0 3.2 4.2 4.8 2.6 2.2 4.0 6.1 7.0 7.5 7.4 6.4 4.1 3.6 3.4 3.6 3.7 3.9 3.6 3.7 1.6 3.2 3.8 3.3 2.0 1.4 1.5 0.8 0.4 0.3 1.6 1.2 1.1 1.3 1.3 1.3 1.4 2.0 2.3 2.3 2.2
0.0 0.0 0.0 0.0 0.0 0.3 0.5 0.7 0.9 0.9 0.7 0.4 1.7 2.0 2.0 2.2 1.2 1.4 2.6 3.7 6.3 7.1 7.7 7.8 7.5 5.5 4.4 4.1 4.4 4.7 5.2 5.5 5.3 4.9 4.4 4.9 4.9 4.5 3.6 3.8 3.1 2.6 2.5 2.7 2.9 2.9 2.7 2.9 2.9 2.8 3.3 3.2 2.7 2.8
0.2 0.0 0.0 0.5 0.9 1.2 1.2 0.8 0.4 0.2 0.0 0.0 0.1 0.6 0.4 0.6 1.0 1.6 2.5 4.3 5.5 6.1 7.0 7.3 7.4 7.1 6.2 5.6 5.8 5.9 5.3 5.5 4.9 4.3 3.0 3.0 3.4 4.3 5.4 5.3 4.9 5.7 4.9 4.0 2.9 3.1 3.0 3.2 3.7 4.1 4.1 3.8 3.5 3.7
0.2 0.5 0.8 1.1 0.9 0.8 0.6 0.1 0.0 0.0 0.0 0.0 0.0 0.1 0.1 0.4 1.1 1.7 2.4 3.4 5.1 6.1 7.2 7.4 7.0 7.3 7.2 6.7 7.2 7.2 6.9 6.4 6.1 4.5 3.6 3.1 2.6 4.4 5.4 5.7 5.7 4.5 5.0 5.2 4.6 4.5 3.4 4.3 4.2 4.9 4.8 4.8 4.8 4.6
1.0 1.0 0.8 0.7 0.5 0.3 0.4 0.6 0.6 0.2 0.0 0.0 0.0 0.0 0.1 0.1 0.7 1.3 2.1 3.1 4.1 5.1 5.9 6.5 6.8 7.4 7.2 7.1 7.3 6.9 6.5 6.4 6.5 6.3 5.7 5.4 5.4 5.4 6.3 6.3 5.9 6.2 6.1 5.9 4.7 4.8 4.2 3.1 2.5 2.9 3.1 3.4 3.9 3.4
1.3 0.6 0.3 0.3 0.5 0.9 0.7 0.4 0.3 0.0 0.0 0.0 0.0 0.0 0.1 0.2 0.3 0.6 1.1 1.8 2.7 3.6 4.4 5.2 5.4 5.8 6.0 6.1 5.9 6.0 5.7 5.7 5.2 6.0 5.7 5.0 4.7 5.1 5.5 5.5 6.0 6.1 6.5 7.1 6.5 6.2 6.1 5.3 6.2 5.8 5.7 5.8 5.6 5.1
1.9 1.1 0.9 0.6 0.4 0.3 0.3 0.1 0.0 0.0 0.0 0.0 0.0 0.1 0.1 0.2 0.2 0.2 0.6 1.3 1.9 2.7 3.5 4.1 4.6 5.2 5.3 5.4 5.6 6.0 6.3 7.1 7.0 6.7 6.9 6.6 6.0 5.9 6.1 6.1 5.8 6.4 6.7 6.8 7.1 7.7 8.3 8.0 7.6 6.8 6.7 6.6 6.6 6.5

GFSWCAN_prec_kuchsnow_105.txt.gz
Snowfall_Accumulation
0.0 0.0 0.0 0.0 0.0 0.0 0.0 0.0 0.0 0.0 0.0 0.0 0.0 0.0 0.0 0.0 0.0 0.0 0.0 0.0 0.0 0.0 0.0 0.0 0.0 0.0 0.0 0.0 0.0 0.0 0.0 0.0 0.0 1.6 1.4 1.2 0.3 0.0 0.3 0.0 0.1 0.2 1.2 1.5 1.4 2.6 0.4 0.0 0.0 0.0 0.0 0.0 0.0 0.0
0.0 0.0 0.0 0.0 0.0 0.0 0.0 0.0 0.0 0.0 0.0 0.0 0.0 0.0 0.0 0.0 0.0 0.0 0.0 0.0 0.0 0.0 0.0 0.0 0.0 0.0 0.0 0.0 0.0 0.0 0.0 0.2 0.9 1.5 3.3 3.0 2.9 2.4 0.8 0.7 0.0 0.2 0.0 0.2 0.3 0.0 0.0 0.0 0.0 0.0 0.0 0.0 0.0 0.0
0.0 0.0 0.0 0.0 0.0 0.0 0.0 0.0 0.0 0.0 0.0 0.0 0.0 0.0 0.0 0.0 0.0 0.0 0.0 0.0 0.0 0.0 0.0 0.0 0.0 0.0 0.0 0.0 0.0 0.1 0.0 0.0 0.0 1.6 1.5 0.2 1.9 1.1 0.6 1.0 0.4 0.1 0.1 0.0 0.0 0.0 0.0 0.0 0.0 0.0 0.0 0.0 0.0 0.0
0.0 0.0 0.0 0.0 0.0 0.0 0.0 0.0 0.0 0.0 0.0 0.0 0.0 0.0 0.0 0.0 0.0 0.0 0.0 0.0 0.0 0.0 1.8 0.0 0.0 0.0 0.0 0.0 0.0 0.0 0.0 0.0 0.0 0.9 2.4 1.2 0.1 0.4 0.1 0.2 0.1 0.0 0.0 0.1 0.0 0.0 0.0 0.0 0.0 0.0 0.0 0.0 0.0 0.0
0.0 0.0 0.0 0.0 0.0 0.0 0.0 0.0 0.0 0.0 0.0 0.0 0.0 0.0 0.0 0.0 0.0 0.0 0.0 0.0 0.0 0.4 2.2 0.4 0.0 0.0 0.0 0.0 0.0 0.0 0.0 0.0 0.1 1.1 0.8 1.8 0.3 0.7 0.0 0.0 0.0 0.0 0.0 0.0 0.0 0.0 0.0 0.0 0.0 0.0 0.0 0.0 0.0 0.0
0.0 0.0 0.0 0.0 0.0 0.0 0.0 0.0 0.0 0.0 0.0 0.0 0.0 0.0 0.0 0.0 0.0 0.0 0.0 0.0 0.0 0.0 2.7 2.4 0.0 0.0 0.0 0.0 0.0 0.0 0.0 0.0 0.1 0.3 0.7 0.0 0.0 1.3 1.2 0.6 0.0 0.0 0.0 0.0 0.0 0.0 0.0 0.0 0.0 0.0 0.0 0.0 0.0 0.0
0.0 0.0 0.0 0.0 0.0 0.0 0.0 0.0 0.0 0.0 0.0 0.0 0.0 0.0 0.0 0.0 0.0 0.0 0.0 0.0 0.0 0.0 1.5 5.5 2.7 0.0 0.0 0.0 0.0 0.0 0.0 0.1 0.3 0.5 1.3 0.5 0.0 1.2 2.4 0.1 0.0 0.0 0.0 0.0 0.0 0.0 0.0 0.0 0.0 0.0 0.0 0.0 0.0 0.0
0.0 0.0 0.0 0.0 0.0 0.0 0.0 0.0 0.0 0.0 0.0 0.0 0.0 0.0 0.0 0.0 0.0 0.0 0.0 0.0 0.0 0.0 1.2 4.9 1.7 1.0 0.0 0.1 0.1 0.0 0.2 0.6 0.8 0.6 0.3 0.0 0.1 0.3 1.0 0.0 0.0 0.0 0.0 0.0 0.0 0.0 0.0 0.0 0.0 0.0 0.0 0.0 0.0 0.0
0.0 0.0 0.0 0.0 0.0 0.0 0.0 0.0 0.0 0.0 0.0 0.0 0.0 0.0 0.0 0.0 0.0 0.0 0.0 0.0 0.0 0.0 2.5 2.2 2.9 4.9 0.0 0.0 0.1 0.2 0.4 4.0 0.0 1.4 0.5 0.5 0.0 2.6 0.0 0.0 0.0 0.0 0.1 0.0 0.0 0.0 0.0 0.0 0.0 0.0 0.0 0.0 0.0 0.0
0.0 0.0 0.0 0.0 0.0 0.0 0.0 0.0 0.0 0.0 0.0 0.0 0.0 0.0 3.4 0.0 0.0 0.0 0.0 1.2 1.8 1.6 1.2 1.3 0.3 1.7 0.0 0.0 1.8 0.4 0.6 2.2 5.3 0.0 0.0 0.9 0.4 0.0 0.0 0.0 0.1 0.0 0.0 0.0 0.0 0.0 0.0 0.0 0.0 0.0 0.0 0.0 0.0 0.0
0.0 0.0 0.0 0.0 0.0 0.0 0.0 0.0 0.0 0.0 0.0 0.0 2.9 2.5 0.0 0.0 0.0 0.0 2.4 2.1 1.1 1.3 0.1 0.0 0.1 1.3 0.0 3.1 3.6 1.5 5.4 2.8 9.1 3.2 2.3 4.0 2.9 1.4 0.3 0.2 0.0 0.0 0.0 0.0 0.0 0.0 0.0 0.0 0.0 0.0 0.0 0.0 0.0 0.0
0.0 0.0 0.0 0.0 0.0 0.0 0.0 0.0 0.0 0.0 3.0 0.0 0.0 0.0 0.0 0.5 3.5 4.2 3.3 0.8 0.7 0.0 0.0 0.6 1.3 1.4 0.6 0.5 2.0 0.7 4.2 4.0 4.5 0.9 3.6 4.3 3.1 2.1 0.9 0.1 0.0 0.0 0.0 0.0 0.0 0.0 0.0 0.0 0.0 0.0 0.0 0.0 0.0 0.0
0.0 0.0 0.0 0.0 0.0 0.0 0.0 0.0 0.0 0.0 0.0 0.0 2.5 10.0 7.9 7.4 9.4 2.8 2.1 0.6 0.2 0.0 0.0 1.4 2.0 0.0 0.5 1.5 1.4 1.4 1.7 2.2 0.9 2.6 1.7 1.9 0.7 0.7 1.4 0.7 0.1 0.0 0.7 1.2 0.5 0.2 0.0 0.0 0.0 0.0 0.1 1.0 0.6 1.3
0.0 0.0 0.0 0.0 0.0 0.0 0.0 0.0 0.0 0.0 2.7 3.7 14.8 19.9 7.1 5.4 0.6 0.6 0.4 0.0 0.0 0.0 0.0 0.3 0.8 1.3 0.0 1.9 1.6 2.5 0.5 0.9 2.2 0.9 0.1 0.0 0.0 0.1 0.2 0.6 0.6 0.6 0.1 0.2 0.4 0.5 0.2 0.4 0.6 0.4 0.7 0.3 0.3 0.3
0.0 0.0 0.0 0.0 0.0 0.0 0.0 0.0 0.0 0.0 3.6 13.5 7.0 7.4 2.8 0.6 0.2 0.1 0.3 0.1 0.0 0.0 0.0 0.0 0.0 0.5 1.7 2.7 1.6 0.9 1.9 0.9 0.7 0.6 0.0 0.0 0.1 0.1 0.1 0.6 2.5 1.8 1.0 0.4 0.2 0.1 0.5 0.6 0.5 0.2 0.0 0.0 0.0 0.0
0.0 0.0 0.0 0.0 0.0 0.0 0.0 0.0 0.0 0.0 17.0 12.6 7.1 4.0 0.4 0.1 0.6 0.2 0.1 0.1 0.0 0.0 0.0 0.0 1.8 1.6 1.5 1.6 1.8 1.0 1.5 0.8 0.7 0.3 0.0 0.0 0.0 0.2 0.4 1.4 1.9 0.7 0.8 1.1 0.8 0.0 0.0 0.0 0.0 0.0 0.0 0.0 0.0 0.0
0.0 0.0 0.0 0.0 0.0 0.0 0.0 2.1 4.4 18.4 19.9 13.9 4.5 0.1 0.3 0.7 0.3 0.2 0.2 0.1 0.0 0.3 1.5 2.7 3.0 1.8 0.4 1.1 0.3 0.1 0.2 0.3 0.0 0.1 0.0 0.0 0.0 0.0 0.5 0.9 1.7 0.8 1.1 1.6 1.2 0.3 0.0 0.0 0.0 0.0 0.0 0.0 0.0 0.0
0.0 0.0 0.0 0.0 0.0 0.0 1.3 9.5 21.0 20.9 19.5 7.5 1.1 1.2 1.4 0.8 0.4 0.2 0.2 0.5 1.1 1.8 2.0 4.1 1.4 1.3 0.6 0.6 0.2 0.0 0.0 0.0 0.0 0.0 0.0 0.0 0.0 0.0 0.0 0.6 1.3 1.5 1.5 1.2 0.7 0.0 0.3 0.1 0.1 0.1 0.2 0.2 0.2 0.3
0.0 0.0 0.0 0.0 0.0 1.5 17.8 19.9 13.7 15.0 8.7 3.5 3.1 3.4 2.1 0.7 0.0 0.0 0.0 0.4 0.9 1.8 3.4 4.8 3.6 1.0 0.0 0.2 0.2 0.0 0.0 0.0 0.1 0.0 0.0 0.0 0.0 0.0 0.0 0.0 0.0 0.0 0.5 0.6 0.6 0.4 0.2 0.1 0.1 0.2 0.3 0.5 0.6 0.7
0.0 0.0 0.0 0.0 0.0 5.3 10.5 15.6 6.0 6.7 6.5 6.2 5.4 5.3 3.2 1.7 0.4 0.3 0.1 0.0 0.5 2.0 3.6 3.4 0.5 0.1 0.0 0.1 0.2 0.2 0.0 0.0 0.0 0.0 0.0 0.0 0.0 0.0 0.0 0.0 0.0 0.0 0.0 0.0 0.0 0.0 0.0 0.0 0.0 0.0 0.0 0.0 0.0 0.0
0.0 0.0 0.0 0.0 8.2 6.4 6.4 7.5 8.1 7.3 7.5 9.2 10.8 7.2 6.8 3.6 2.6 1.5 2.8 1.1 3.9 4.6 2.5 1.2 0.1 0.0 0.2 0.1 0.0 0.0 0.1 0.0 0.0 0.0 0.0 0.0 0.0 0.0 0.0 0.0 0.0 0.0 0.0 0.0 0.0 0.0 0.0 0.0 0.0 0.0 0.0 0.0 0.0 0.0
0.3 0.0 1.8 0.7 11.9 9.1 6.5 4.9 6.4 7.1 6.8 10.7 12.0 9.9 9.4 7.7 7.5 6.8 5.6 8.6 9.7 4.3 1.3 0.5 0.6 0.8 0.4 0.4 0.3 0.8 0.0 0.4 0.0 0.0 0.0 0.0 0.0 0.0 0.0 0.0 0.0 0.0 0.0 0.0 0.0 0.0 0.0 0.0 0.0 0.0 0.0 0.0 0.0 0.0
0.0 0.8 8.4 12.0 14.8 7.8 11.0 5.6 7.1 8.0 9.1 12.3 11.4 11.2 11.9 9.9 10.0 8.6 13.8 9.2 6.3 3.2 2.0 1.7 1.4 1.7 1.6 1.0 0.6 0.2 0.1 0.0 0.0 0.2 0.1 0.0 0.0 0.0 0.0 0.0 0.0 0.0 0.0 0.0 0.0 0.0 0.0 0.0 0.0 0.0 0.0 0.0 0.0 0.0
0.0 13.7 18.0 13.3 8.4 8.0 5.3 6.4 4.7 5.4 7.8 8.9 9.1 8.3 7.0 8.8 8.8 9.5 8.5 3.7 3.2 3.4 2.8 3.0 2.2 1.1 1.6 1.8 2.0 1.4 0.9 0.4 0.1 0.1 0.7 0.5 0.1 0.0 0.0 0.0 0.0 0.0 0.0 0.0 0.0 0.0 0.0 0.0 0.0 0.0 0.0 0.0 0.0 0.0
14.8 18.2 10.1 7.7 3.4 1.6 1.7 3.7 4.8 4.3 5.1 7.1 7.3 6.8 6.8 7.2 8.9 6.9 3.9 3.2 4.9 6.5 5.3 3.7 2.4 1.9 1.5 1.7 1.6 1.9 1.7 2.2 1.8 0.6 0.2 1.2 0.8 0.5 0.1 0.6 0.2 0.0 0.0 0.0 0.0 0.0 0.0 0.0 0.0 0.0 0.0 0.0 0.0 0.2
9.3 5.1 2.8 1.4 0.8 0.1 0.8 1.9 3.4 4.2 4.9 6.5 6.3 5.5 6.0 6.2 5.3 5.2 3.3 3.8 5.8 7.1 7.1 6.1 4.0 2.2 2.4 2.7 2.3 2.7 2.4 2.4 2.0 1.5 2.2 2.3 1.6 1.7 1.3 1.1 1.1 0.7 0.0 0.3 0.3 0.4 0.4 0.3 0.2 0.2 0.3 0.0 0.7 1.1
3.5 0.5 0.0 0.0 0.0 0.1 0.3 0.8 1.2 1.6 3.4 3.8 3.0 3.0 3.8 4.6 4.8 2.6 2.2 4.0 6.1 7.0 7.5 7.4 6.4 4.1 3.6 3.4 3.6 3.7 3.9 3.6 3.7 1.6 3.2 3.8 3.3 2.0 1.4 1.5 0.8 0.4 0.3 1.6 1.2 1.1 1.3 1.3 1.3 1.4 2.0 2.3 2.3 2.2
0.0 0.0 0.0 0.0 0.0 0.3 0.5 0.7 0.9 0.9 1.2 0.8 2.2 2.6 2.5 2.3 1.2 1.4 2.6 3.7 6.3 7.1 7.7 7.8 7.5 5.5 4.4 4.1 4.4 4.7 5.2 5.5 5.3 4.9 4.4 4.9 4.9 4.5 3.6 3.8 3.1 2.6 2.5 2.7 2.9 2.9 2.7 2.9 2.9 2.8 3.3 3.2 2.7 2.8
0.2 0.0 0.0 0.9 1.3 1.8 1.7 1.2 0.6 0.4 0.1 0.2 0.3 0.6 0.4 0.6 1.0 1.6 2.5 4.3 5.5 6.1 7.0 7.3 7.4 7.1 6.2 5.6 5.8 5.9 5.3 5.5 4.9 4.3 3.0 3.0 3.4 4.3 5.4 5.3 4.9 5.7 4.9 4.0 2.9 3.1 3.0 3.3 3.8 4.2 4.1 3.8 3.5 3.7
0.3 0.6 1.0 1.6 1.5 1.2 1.0 0.3 0.1 0.1 0.0 0.1 0.0 0.1 0.1 0.4 1.1 1.7 2.4 3.4 5.1 6.1 7.2 7.4 7.0 7.3 7.2 6.7 7.2 7.2 6.9 6.4 6.1 4.5 3.6 3.1 2.6 4.4 5.4 5.7 5.7 4.5 5.0 5.2 4.6 4.5 3.4 4.3 4.2 4.9 4.8 4.8 4.8 4.6
1.1 1.0 0.9 0.9 0.7 0.4 0.6 0.9 0.9 0.5 0.1 0.0 0.0 0.0 0.1 0.1 0.7 1.3 2.1 3.1 4.1 5.1 5.9 6.5 6.8 7.4 7.2 7.1 7.3 6.9 6.5 6.4 6.5 6.3 5.7 5.4 5.4 5.4 6.3 6.3 5.9 6.2 6.1 5.9 4.7 4.8 4.2 3.1 2.5 2.9 3.1 3.4 3.9 3.4
1.6 0.6 0.3 0.3 0.5 1.4 1.3 0.9 0.6 0.2 0.1 0.0 0.0 0.0 0.1 0.2 0.3 0.6 1.1 1.8 2.7 3.6 4.4 5.2 5.4 5.8 6.0 6.1 5.9 6.0 5.7 5.7 5.2 6.0 5.7 5.0 4.7 5.1 5.5 5.5 6.0 6.1 6.5 7.1 6.5 6.2 6.1 5.3 6.2 5.8 5.7 5.8 5.6 5.1
2.3 1.4 1.1 0.8 0.8 0.7 0.7 0.3 0.1 0.1 0.0 0.0 0.0 0.1 0.1 0.2 0.2 0.2 0.6 1.3 1.9 2.7 3.5 4.1 4.6 5.2 5.3 5.4 5.6 6.0 6.3 7.1 7.0 6.7 6.9 6.6 6.0 5.9 6.1 6.1 5.8 6.4 6.7 6.8 7.1 7.7 8.3 8.0 7.6 6.8 6.7 6.6 6.6 6.5

GFSWCAN_prec_kuchsnow_108.txt.gz
Snowfall_Accumulation
0.0 0.0 0.0 0.0 0.0 0.0 0.0 0.0 0.0 0.0 0.0 0.0 0.0 0.0 0.0 0.0 0.0 0.0 0.0 0.0 0.0 0.0 0.0 0.0 0.0 0.0 0.0 0.0 0.0 0.0 0.0 0.0 0.0 1.6 1.4 1.2 0.3 0.0 0.3 0.0 0.1 0.2 1.2 1.5 1.4 2.6 0.4 0.0 0.0 0.0 0.0 0.0 0.0 0.0
0.0 0.0 0.0 0.0 0.0 0.0 0.0 0.0 0.0 0.0 0.0 0.0 0.0 0.0 0.0 0.0 0.0 0.0 0.0 0.0 0.0 0.0 0.0 0.0 0.0 0.0 0.0 0.0 0.0 0.0 0.0 0.2 0.9 1.5 3.3 3.0 2.9 2.4 0.8 0.7 0.0 0.2 0.0 0.2 0.3 0.0 0.0 0.0 0.0 0.0 0.0 0.0 0.0 0.0
0.0 0.0 0.0 0.0 0.0 0.0 0.0 0.0 0.0 0.0 0.0 0.0 0.0 0.0 0.0 0.0 0.0 0.0 0.0 0.0 0.0 0.0 0.0 0.0 0.0 0.0 0.0 0.0 0.0 0.1 0.0 0.0 0.0 1.6 1.5 0.2 1.9 1.1 0.6 1.0 0.4 0.1 0.1 0.0 0.0 0.0 0.0 0.0 0.0 0.0 0.0 0.0 0.0 0.0
0.0 0.0 0.0 0.0 0.0 0.0 0.0 0.0 0.0 0.0 0.0 0.0 0.0 0.0 0.0 0.0 0.0 0.0 0.0 0.0 0.0 0.0 1.8 0.0 0.0 0.0 0.0 0.0 0.0 0.0 0.0 0.0 0.0 0.9 2.4 1.2 0.1 0.4 0.1 0.2 0.1 0.0 0.0 0.1 0.0 0.0 0.0 0.0 0.0 0.0 0.0 0.0 0.0 0.0
0.0 0.0 0.0 0.0 0.0 0.0 0.0 0.0 0.0 0.0 0.0 0.0 0.0 0.0 0.0 0.0 0.0 0.0 0.0 0.0 0.0 0.4 2.2 0.4 0.0 0.0 0.0 0.0 0.0 0.0 0.0 0.0 0.1 1.1 0.8 1.8 0.3 0.7 0.0 0.0 0.0 0.0 0.0 0.0 0.0 0.0 0.0 0.0 0.0 0.0 0.0 0.0 0.0 0.0
0.0 0.0 0.0 0.0 0.0 0.0 0.0 0.0 0.0 0.0 0.0 0.0 0.0 0.0 0.0 0.0 0.0 0.0 0.0 0.0 0.0 0.0 2.7 2.4 0.0 0.0 0.0 0.0 0.0 0.0 0.0 0.0 0.1 0.3 0.7 0.0 0.0 1.3 1.2 0.6 0.0 0.0 0.0 0.0 0.0 0.0 0.0 0.0 0.0 0.0 0.0 0.0 0.0 0.0
0.0 0.0 0.0 0.0 0.0 0.0 0.0 0.0 0.0 0.0 0.0 0.0 0.0 0.0 0.0 0.0 0.0 0.0 0.0 0.0 0.0 0.0 1.5 5.5 2.7 0.0 0.0 0.0 0.0 0.0 0.0 0.1 0.3 0.5 1.3 0.5 0.0 1.2 2.4 0.1 0.0 0.0 0.0 0.0 0.0 0.0 0.0 0.0 0.0 0.0 0.0 0.0 0.0 0.0
0.0 0.0 0.0 0.0 0.0 0.0 0.0 0.0 0.0 0.0 0.0 0.0 0.0 0.0 0.0 0.0 0.0 0.0 0.0 0.0 0.0 0.0 1.2 4.9 1.7 1.0 0.0 0.1 0.1 0.0 0.2 0.6 0.8 0.6 0.3 0.0 0.1 0.3 1.0 0.0 0.0 0.0 0.0 0.0 0.0 0.0 0.0 0.0 0.0 0.0 0.0 0.0 0.0 0.0
0.0 0.0 0.0 0.0 0.0 0.0 0.0 0.0 0.0 0.0 0.0 0.0 0.0 0.0 0.0 0.0 0.0 0.0 0.0 0.0 0.0 0.0 2.5 2.2 2.9 4.9 0.0 0.0 0.1 0.2 0.4 4.0 0.0 1.4 0.5 0.5 0.0 2.6 0.0 0.0 0.0 0.0 0.1 0.0 0.0 0.0 0.0 0.0 0.0 0.0 0.0 0.0 0.0 0.0
0.0 0.0 0.0 0.0 0.0 0.0 0.0 0.0 0.0 0.0 0.0 0.0 0.0 0.0 5.3 0.0 0.0 0.0 0.0 1.2 1.8 1.6 1.2 1.3 0.3 1.7 0.0 0.0 1.8 0.4 0.6 2.2 5.3 0.0 0.0 0.9 0.4 0.0 0.0 0.0 0.1 0.0 0.0 0.0 0.0 0.0 0.0 0.0 0.0 0.0 0.0 0.0 0.0 0.0
0.0 0.0 0.0 0.0 0.0 0.0 0.0 0.0 0.0 0.0 0.0 0.0 2.9 2.5 0.0 0.0 0.0 0.0 3.1 2.4 1.1 1.3 0.1 0.0 0.1 1.3 0.0 3.1 3.6 1.5 5.4 2.8 9.1 3.2 2.3 4.0 2.9 1.4 0.3 0.2 0.0 0.0 0.0 0.0 0.0 0.0 0.0 0.0 0.0 0.0 0.0 0.0 0.0 0.0
0.0 0.0 0.0 0.0 0.0 0.0 0.0 0.0 0.0 0.0 3.0 0.0 0.0 0.0 0.0 0.5 4.9 6.0 4.4 1.1 0.8 0.0 0.0 0.6 1.3 1.4 0.6 0.5 2.0 0.7 4.2 4.0 4.5 0.9 3.6 4.3 3.1 2.1 0.9 0.1 0.0 0.0 0.0 0.0 0.0 0.0 0.0 0.0 0.0 0.0 0.0 0.0 0.0 0.0
0.0 0.0 0.0 0.0 0.0 0.0 0.0 0.0 0.0 0.0 0.0 0.0 2.5 11.6 9.4 8.8 10.7 3.4 2.5 0.7 0.2 0.0 0.0 1.4 2.0 0.0 0.5 1.5 1.4 1.4 1.7 2.2 0.9 2.6 1.7 1.9 0.7 0.7 1.4 0.7 0.1 0.0 0.7 1.2 0.5 0.2 0.0 0.0 0.0 0.0 0.1 1.0 0.6 1.3
0.0 0.0 0.0 0.0 0.0 0.0 0.0 0.0 0.0 0.0 2.7 3.7 17.0 22.3 8.2 5.9 0.6 0.6 0.4 0.0 0.0 0.0 0.0 0.3 0.8 1.3 0.0 1.9 1.6 2.5 0.5 0.9 2.2 0.9 0.1 0.0 0.0 0.1 0.2 0.6 0.6 0.6 0.1 0.2 0.4 0.5 0.2 0.4 0.6 0.4 0.7 0.3 0.3 0.3
0.0 0.0 0.0 0.0 0.0 0.0 0.0 0.0 0.0 0.0 3.6 15.0 7.8 7.8 3.0 0.6 0.2 0.1 0.3 0.1 0.0 0.0 0.0 0.0 0.0 0.5 1.7 2.7 1.6 0.9 1.9 0.9 0.7 0.6 0.0 0.0 0.1 0.1 0.1 0.6 2.5 1.8 1.0 0.4 0.2 0.1 0.5 0.6 0.5 0.2 0.0 0.0 0.0 0.0
0.0 0.0 0.0 0.0 0.0 0.0 0.0 0.0 0.0 0.0 17.0 14.1 7.5 4.1 0.4 0.1 0.6 0.2 0.1 0.1 0.0 0.0 0.0 0.0 1.8 1.6 1.5 1.6 1.8 1.0 1.5 0.8 0.7 0.3 0.0 0.0 0.0 0.2 0.4 1.4 1.9 0.7 0.8 1.1 0.8 0.0 0.0 0.0 0.0 0.0 0.0 0.0 0.0 0.0
0.0 0.0 0.0 0.0 0.0 0.0 0.0 2.1 4.4 18.4 22.0 15.3 4.5 0.1 0.3 0.7 0.3 0.2 0.2 0.1 0.0 0.3 1.5 2.7 3.0 1.8 0.4 1.1 0.3 0.1 0.2 0.3 0.0 0.1 0.0 0.0 0.0 0.0 0.5 0.9 1.7 0.8 1.1 1.6 1.2 0.3 0.0 0.0 0.0 0.0 0.0 0.0 0.0 0.0
0.0 0.0 0.0 0.0 0.0 0.0 1.3 9.5 22.8 22.9 22.7 8.4 1.1 1.2 1.4 0.8 0.4 0.2 0.2 0.5 1.1 1.8 2.0 4.1 1.4 1.3 0.6 0.6 0.2 0.0 0.0 0.0 0.0 0.0 0.0 0.0 0.0 0.0 0.0 0.6 1.3 1.5 1.5 1.2 0.7 0.0 0.3 0.1 0.1 0.1 0.2 0.2 0.2 0.3
0.0 0.0 0.0 0.0 0.0 1.5 19.3 22.1 15.7 16.7 10.0 3.9 3.1 3.4 2.1 0.7 0.0 0.0 0.0 0.4 0.9 1.8 3.4 4.8 3.6 1.0 0.0 0.2 0.2 0.0 0.0 0.0 0.1 0.0 0.0 0.0 0.0 0.0 0.0 0.0 0.0 0.0 0.5 0.6 0.6 0.4 0.2 0.1 0.1 0.2 0.3 0.5 0.6 0.7
0.0 0.0 0.0 0.0 0.0 5.3 11.9 17.6 7.3 7.4 6.9 6.4 5.4 5.5 3.3 1.7 0.4 0.3 0.1 0.0 0.5 2.0 3.6 3.4 0.5 0.1 0.0 0.1 0.2 0.2 0.0 0.0 0.0 0.0 0.0 0.0 0.0 0.0 0.0 0.0 0.0 0.0 0.0 0.0 0.0 0.0 0.0 0.0 0.0 0.0 0.0 0.0 0.0 0.0
0.0 0.0 0.0 0.0 9.5 7.7 7.3 8.2 8.9 7.8 7.7 9.4 10.9 7.2 7.3 3.6 2.7 1.5 2.8 1.1 3.9 4.6 2.5 1.2 0.1 0.0 0.2 0.1 0.0 0.0 0.1 0.0 0.0 0.0 0.0 0.0 0.0 0.0 0.0 0.0 0.0 0.0 0.0 0.0 0.0 0.0 0.0 0.0 0.0 0.0 0.0 0.0 0.0 0.0
0.3 0.0 1.8 0.7 13.7 10.2 6.8 4.9 6.4 7.6 6.8 11.1 12.3 10.1 10.0 8.5 8.1 7.2 5.6 8.6 9.7 4.3 1.3 0.5 0.6 0.8 0.4 0.4 0.3 0.8 0.0 0.4 0.0 0.0 0.0 0.0 0.0 0.0 0.0 0.0 0.0 0.0 0.0 0.0 0.0 0.0 0.0 0.0 0.0 0.0 0.0 0.0 0.0 0.0
0.0 0.8 9.6 13.6 16.8 8.5 11.5 5.6 7.1 8.4 9.6 12.8 12.2 11.2 12.8 10.7 10.8 9.3 14.2 9.2 6.3 3.2 2.0 1.7 1.4 1.7 1.6 1.0 0.6 0.2 0.1 0.0 0.0 0.2 0.1 0.0 0.0 0.0 0.0 0.0 0.0 0.0 0.0 0.0 0.0 0.0 0.0 0.0 0.0 0.0 0.0 0.0 0.0 0.0
0.0 15.1 20.1 15.2 9.7 8.4 5.6 6.4 4.7 5.4 8.2 9.6 10.1 9.3 7.8 9.6 9.7 10.0 8.7 3.7 3.2 3.4 2.8 3.0 2.2 1.1 1.6 1.8 2.0 1.4 0.9 0.4 0.1 0.1 0.7 0.5 0.1 0.0 0.0 0.0 0.0 0.0 0.0 0.0 0.0 0.0 0.0 0.0 0.0 0.0 0.0 0.0 0.0 0.0
16.6 20.8 11.6 8.8 3.7 1.6 1.7 3.7 4.8 4.3 5.1 7.1 7.9 7.4 7.4 7.8 9.3 6.9 3.9 3.2 4.9 6.5 5.3 3.7 2.4 1.9 1.5 1.7 1.6 1.9 1.7 2.2 1.8 0.6 0.2 1.2 0.8 0.5 0.1 0.6 0.2 0.0 0.0 0.0 0.0 0.0 0.0 0.0 0.0 0.0 0.0 0.0 0.0 0.2
11.0 6.3 3.6 1.4 0.8 0.1 0.8 1.9 3.4 4.2 4.9 7.0 7.0 5.9 6.4 6.6 5.5 5.3 3.3 3.8 5.8 7.1 7.1 6.1 4.0 2.2 2.4 2.7 2.3 2.7 2.4 2.4 2.0 1.5 2.2 2.3 1.6 1.7 1.3 1.1 1.1 0.7 0.0 0.3 0.3 0.4 0.4 0.3 0.2 0.2 0.3 0.0 0.7 1.1
3.9 0.5 0.0 0.0 0.0 0.1 0.3 0.8 1.2 1.6 3.9 4.0 3.2 3.2 4.1 4.9 4.8 2.6 2.2 4.0 6.1 7.0 7.5 7.4 6.4 4.1 3.6 3.4 3.6 3.7 3.9 3.6 3.7 1.6 3.2 3.8 3.3 2.0 1.4 1.5 0.8 0.4 0.3 1.6 1.2 1.1 1.3 1.3 1.3 1.4 2.0 2.3 2.3 2.2
0.0 0.0 0.0 0.0 0.0 0.3 0.5 0.7 0.9 1.0 1.4 0.9 2.3 2.8 2.8 2.4 1.2 1.4 2.6 3.7 6.3 7.1 7.7 7.8 7.5 5.5 4.4 4.1 4.4 4.7 5.2 5.5 5.3 4.9 4.4 4.9 4.9 4.5 3.6 3.8 3.1 2.6 2.5 2.7 2.9 2.9 2.7 2.9 2.9 2.8 3.3 3.2 2.7 2.8
0.2 0.0 0.0 0.9 1.3 1.8 1.7 1.2 0.6 0.4 0.1 0.2 0.3 0.8 0.5 0.6 1.0 1.6 2.5 4.3 5.5 6.1 7.0 7.3 7.4 7.1 6.2 5.6 5.8 5.9 5.3 5.5 4.9 4.3 3.0 3.0 3.4 4.3 5.4 5.3 4.9 5.7 4.9 4.0 2.9 3.1 3.0 3.3 3.8 4.2 4.1 3.8 3.5 3.7
0.6 0.9 1.0 2.3 1.9 1.2 1.0 0.3 0.1 0.1 0.2 0.3 0.4 0.3 0.1 0.4 1.1 1.7 2.4 3.4 5.1 6.1 7.2 7.4 7.0 7.3 7.2 6.7 7.2 7.2 6.9 6.4 6.1 4.5 3.6 3.1 2.6 4.4 5.4 5.7 5.7 4.5 5.0 5.2 4.6 4.5 3.4 4.3 4.2 4.9 4.8 4.8 4.8 4.6
1.7 1.6 1.5 1.5 1.2 0.9 1.0 1.5 1.6 1.2 0.7 0.4 0.1 0.0 0.1 0.1 0.7 1.3 2.1 3.1 4.1 5.1 5.9 6.5 6.8 7.4 7.2 7.1 7.3 6.9 6.5 6.4 6.5 6.3 5.7 5.4 5.4 5.4 6.3 6.3 5.9 6.2 6.1 5.9 4.7 4.8 4.2 3.1 2.5 2.9 3.1 3.4 3.9 3.4
2.2 1.2 0.7 0.6 0.8 1.8 1.7 1.3 1.0 0.6 0.5 0.3 0.0 0.0 0.1 0.2 0.3 0.6 1.1 1.8 2.7 3.6 4.4 5.2 5.4 5.8 6.0 6.1 5.9 6.0 5.7 5.7 5.2 6.0 5.7 5.0 4.7 5.1 5.5 5.5 6.0 6.1 6.5 7.1 6.5 6.2 6.1 5.3 6.2 5.8 5.7 5.8 5.6 5.1
2.8 1.8 1.3 1.0 1.1 1.0 1.0 0.6 0.4 0.4 0.5 0.3 0.2 0.1 0.1 0.2 0.2 0.2 0.6 1.3 1.9 2.7 3.5 4.1 4.6 5.2 5.3 5.4 5.6 6.0 6.3 7.1 7.0 6.7 6.9 6.6 6.0 5.9 6.1 6.1 5.8 6.4 6.7 6.8 7.1 7.7 8.3 8.0 7.6 6.8 6.7 6.6 6.6 6.5

GFSWCAN_prec_kuchsnow_111.txt.gz
Snowfall_Accumulation
0.0 0.0 0.0 0.0 0.0 0.0 0.0 0.0 0.0 0.0 0.0 0.0 0.0 0.0 0.0 0.0 0.0 0.0 0.0 0.0 0.0 0.0 0.0 0.0 0.0 0.0 0.0 0.0 0.0 0.0 0.0 0.0 0.0 1.6 1.4 1.2 0.3 0.0 0.3 0.0 0.1 0.2 1.2 1.5 1.4 2.6 0.4 0.0 0.0 0.0 0.0 0.0 0.0 0.0
0.0 0.0 0.0 0.0 0.0 0.0 0.0 0.0 0.0 0.0 0.0 0.0 0.0 0.0 0.0 0.0 0.0 0.0 0.0 0.0 0.0 0.0 0.0 0.0 0.0 0.0 0.0 0.0 0.0 0.0 0.0 0.2 0.9 1.5 3.3 3.0 2.9 2.4 0.8 0.7 0.0 0.2 0.0 0.2 0.3 0.0 0.0 0.0 0.0 0.0 0.0 0.0 0.0 0.0
0.0 0.0 0.0 0.0 0.0 0.0 0.0 0.0 0.0 0.0 0.0 0.0 0.0 0.0 0.0 0.0 0.0 0.0 0.0 0.0 0.0 0.0 0.0 0.0 0.0 0.0 0.0 0.0 0.0 0.1 0.0 0.0 0.0 1.6 1.5 0.2 1.9 1.1 0.6 1.0 0.4 0.1 0.1 0.0 0.0 0.0 0.0 0.0 0.0 0.0 0.0 0.0 0.0 0.0
0.0 0.0 0.0 0.0 0.0 0.0 0.0 0.0 0.0 0.0 0.0 0.0 0.0 0.0 0.0 0.0 0.0 0.0 0.0 0.0 0.0 0.0 1.8 0.0 0.0 0.0 0.0 0.0 0.0 0.0 0.0 0.0 0.0 0.9 2.4 1.2 0.1 0.4 0.1 0.2 0.1 0.0 0.0 0.1 0.0 0.0 0.0 0.0 0.0 0.0 0.0 0.0 0.0 0.0
0.0 0.0 0.0 0.0 0.0 0.0 0.0 0.0 0.0 0.0 0.0 0.0 0.0 0.0 0.0 0.0 0.0 0.0 0.0 0.0 0.0 0.4 2.2 0.4 0.0 0.0 0.0 0.0 0.0 0.0 0.0 0.0 0.1 1.1 0.8 1.8 0.3 0.7 0.0 0.0 0.0 0.0 0.0 0.0 0.0 0.0 0.0 0.0 0.0 0.0 0.0 0.0 0.0 0.0
0.0 0.0 0.0 0.0 0.0 0.0 0.0 0.0 0.0 0.0 0.0 0.0 0.0 0.0 0.0 0.0 0.0 0.0 0.0 0.0 0.0 0.0 2.7 2.4 0.0 0.0 0.0 0.0 0.0 0.0 0.0 0.0 0.1 0.3 0.7 0.0 0.0 1.3 1.2 0.6 0.0 0.0 0.0 0.0 0.0 0.0 0.0 0.0 0.0 0.0 0.0 0.0 0.0 0.0
0.0 0.0 0.0 0.0 0.0 0.0 0.0 0.0 0.0 0.0 0.0 0.0 0.0 0.0 0.0 0.0 0.0 0.0 0.0 0.0 0.0 0.0 1.5 5.5 2.7 0.0 0.0 0.0 0.0 0.0 0.0 0.1 0.3 0.5 1.3 0.5 0.0 1.2 2.4 0.1 0.0 0.0 0.0 0.0 0.0 0.0 0.0 0.0 0.0 0.0 0.0 0.0 0.0 0.0
0.0 0.0 0.0 0.0 0.0 0.0 0.0 0.0 0.0 0.0 0.0 0.0 0.0 0.0 0.0 0.0 0.0 0.0 0.0 0.0 0.0 0.0 1.2 4.9 1.7 1.0 0.0 0.1 0.1 0.0 0.2 0.6 0.8 0.6 0.3 0.0 0.1 0.3 1.0 0.0 0.0 0.0 0.0 0.0 0.0 0.0 0.0 0.0 0.0 0.0 0.0 0.0 0.0 0.0
0.0 0.0 0.0 0.0 0.0 0.0 0.0 0.0 0.0 0.0 0.0 0.0 0.0 0.0 0.0 0.0 0.0 0.0 0.0 0.0 0.0 0.0 2.5 2.2 2.9 4.9 0.0 0.0 0.1 0.2 0.4 4.0 0.0 1.4 0.5 0.5 0.0 2.6 0.0 0.0 0.0 0.0 0.1 0.0 0.0 0.0 0.0 0.0 0.0 0.0 0.0 0.0 0.0 0.0
0.0 0.0 0.0 0.0 0.0 0.0 0.0 0.0 0.0 0.0 0.0 0.0 0.0 0.0 5.3 0.0 0.0 0.0 0.0 1.2 1.8 1.6 1.2 1.3 0.3 1.7 0.0 0.0 1.8 0.4 0.6 2.2 5.3 0.0 0.0 0.9 0.4 0.0 0.0 0.0 0.1 0.0 0.0 0.0 0.0 0.0 0.0 0.0 0.0 0.0 0.0 0.0 0.0 0.0
0.0 0.0 0.0 0.0 0.0 0.0 0.0 0.0 0.0 0.0 0.0 0.0 2.9 2.5 0.0 0.0 0.0 0.0 4.3 3.3 1.3 1.5 0.1 0.0 0.1 1.3 0.0 3.1 3.6 1.5 5.4 2.8 9.1 3.2 2.3 4.0 2.9 1.4 0.3 0.2 0.0 0.0 0.0 0.0 0.0 0.0 0.0 0.0 0.0 0.0 0.0 0.0 0.0 0.0
0.0 0.0 0.0 0.0 0.0 0.0 0.0 0.0 0.0 0.0 3.0 0.0 0.0 0.0 0.0 0.5 5.5 7.4 6.1 1.5 0.9 0.0 0.0 0.6 1.3 1.4 0.6 0.5 2.0 0.7 4.2 4.0 4.5 0.9 3.6 4.3 3.1 2.1 0.9 0.1 0.0 0.0 0.0 0.0 0.0 0.0 0.0 0.0 0.0 0.0 0.0 0.0 0.0 0.0
0.0 0.0 0.0 0.0 0.0 0.0 0.0 0.0 0.0 0.0 0.0 0.0 2.5 12.0 10.7 10.0 12.9 4.9 3.4 1.0 0.2 0.0 0.0 1.4 2.0 0.0 0.5 1.5 1.4 1.4 1.7 2.2 0.9 2.6 1.7 1.9 0.7 0.7 1.4 0.7 0.1 0.0 0.7 1.2 0.5 0.2 0.0 0.0 0.0 0.0 0.1 1.0 0.6 1.3
0.0 0.0 0.0 0.0 0.0 0.0 0.0 0.0 0.0 0.0 2.7 3.7 18.1 23.9 9.6 7.1 0.6 0.8 0.4 0.0 0.0 0.0 0.0 0.3 0.8 1.3 0.0 1.9 1.6 2.5 0.5 0.9 2.2 0.9 0.1 0.0 0.0 0.1 0.2 0.6 0.6 0.6 0.1 0.2 0.4 0.5 0.2 0.4 0.6 0.4 0.7 0.3 0.3 0.3
0.0 0.0 0.0 0.0 0.0 0.0 0.0 0.0 0.0 0.0 3.6 16.0 8.9 8.9 3.8 0.6 0.2 0.1 0.3 0.1 0.0 0.0 0.0 0.0 0.0 0.5 1.7 2.7 1.6 0.9 1.9 0.9 0.7 0.6 0.0 0.0 0.1 0.1 0.1 0.6 2.5 1.8 1.0 0.4 0.2 0.1 0.5 0.6 0.5 0.2 0.0 0.0 0.0 0.0
0.0 0.0 0.0 0.0 0.0 0.0 0.0 0.0 0.0 0.0 17.8 14.7 8.3 4.9 0.4 0.1 0.6 0.2 0.1 0.1 0.0 0.0 0.0 0.0 1.8 1.6 1.5 1.6 1.8 1.0 1.5 0.8 0.7 0.3 0.0 0.0 0.0 0.2 0.4 1.4 1.9 0.7 0.8 1.1 0.8 0.0 0.0 0.0 0.0 0.0 0.0 0.0 0.0 0.0
0.0 0.0 0.0 0.0 0.0 0.0 0.0 2.1 4.4 20.7 23.4 16.6 5.2 0.1 0.3 0.7 0.3 0.3 0.2 0.1 0.0 0.3 1.5 2.7 3.0 1.8 0.4 1.1 0.3 0.1 0.2 0.3 0.0 0.1 0.0 0.0 0.0 0.0 0.5 0.9 1.7 0.8 1.1 1.6 1.2 0.3 0.0 0.0 0.0 0.0 0.0 0.0 0.0 0.0
0.0 0.0 0.0 0.0 0.0 0.0 1.3 9.5 24.2 24.1 24.0 9.1 1.1 1.2 1.5 0.9 0.4 0.2 0.2 0.5 1.1 1.8 2.0 4.1 1.4 1.3 0.6 0.6 0.2 0.0 0.0 0.0 0.0 0.0 0.0 0.0 0.0 0.0 0.0 0.6 1.3 1.5 1.5 1.2 0.7 0.0 0.3 0.1 0.1 0.1 0.2 0.2 0.2 0.3
0.0 0.0 0.0 0.0 0.0 1.5 20.8 23.3 16.0 17.1 10.6 3.9 3.1 3.4 2.1 0.7 0.0 0.0 0.0 0.4 0.9 1.8 3.4 4.8 3.6 1.0 0.0 0.2 0.2 0.0 0.0 0.0 0.1 0.0 0.0 0.0 0.0 0.0 0.0 0.0 0.0 0.0 0.5 0.6 0.6 0.4 0.2 0.1 0.1 0.2 0.3 0.5 0.6 0.7
0.0 0.0 0.0 0.0 0.0 5.3 12.5 18.7 7.3 7.4 6.9 6.4 5.4 6.0 3.7 1.7 0.4 0.3 0.1 0.1 0.5 2.0 3.6 3.4 0.5 0.1 0.0 0.1 0.2 0.2 0.0 0.0 0.0 0.0 0.0 0.0 0.0 0.0 0.0 0.0 0.0 0.0 0.0 0.0 0.0 0.0 0.0 0.0 0.0 0.0 0.0 0.0 0.0 0.0
0.0 0.0 0.0 0.0 9.8 8.0 7.8 8.7 8.9 7.8 7.7 9.4 10.9 7.7 8.0 3.7 2.7 1.6 3.0 1.1 3.9 4.6 2.5 1.2 0.1 0.0 0.2 0.1 0.0 0.0 0.1 0.0 0.0 0.0 0.0 0.0 0.0 0.0 0.0 0.0 0.0 0.0 0.0 0.0 0.0 0.0 0.0 0.0 0.0 0.0 0.0 0.0 0.0 0.0
0.3 0.0 1.8 0.7 14.1 10.2 8.1 4.9 6.4 7.6 6.8 11.6 13.6 10.9 10.7 9.4 8.5 7.3 5.8 8.9 9.8 4.3 1.3 0.5 0.6 0.8 0.4 0.4 0.3 0.8 0.0 0.4 0.0 0.0 0.0 0.0 0.0 0.0 0.0 0.0 0.0 0.0 0.0 0.0 0.0 0.0 0.0 0.0 0.0 0.0 0.0 0.0 0.0 0.0
0.0 0.8 9.6 14.1 18.0 8.5 12.4 6.2 8.2 10.3 10.9 13.5 12.7 11.9 13.4 11.5 11.8 9.3 14.2 9.2 6.3 3.2 2.0 1.7 1.4 1.7 1.6 1.0 0.6 0.2 0.1 0.0 0.0 0.2 0.1 0.0 0.0 0.0 0.0 0.0 0.0 0.0 0.0 0.0 0.0 0.0 0.0 0.0 0.0 0.0 0.0 0.0 0.0 0.0
0.0 16.5 21.7 16.2 9.7 10.0 6.1 6.9 5.2 6.0 8.9 10.6 10.6 9.8 8.2 10.2 10.7 11.4 9.7 3.9 3.2 3.4 2.8 3.0 2.2 1.1 1.6 1.8 2.0 1.4 0.9 0.4 0.1 0.1 0.7 0.5 0.1 0.0 0.0 0.0 0.0 0.0 0.0 0.0 0.0 0.0 0.0 0.0 0.0 0.0 0.0 0.0 0.0 0.0
18.6 23.6 13.7 10.5 4.3 2.2 2.0 3.9 4.9 4.3 5.1 7.2 8.2 7.9 7.8 8.4 9.8 7.3 4.1 3.2 4.9 6.5 5.3 3.7 2.4 1.9 1.5 1.7 1.6 1.9 1.7 2.2 1.8 0.6 0.2 1.2 0.8 0.5 0.1 0.6 0.2 0.0 0.0 0.0 0.0 0.0 0.0 0.0 0.0 0.0 0.0 0.0 0.0 0.2
13.6 8.1 5.3 2.0 0.8 0.1 0.8 1.9 3.4 4.2 4.9 7.0 7.0 6.2 6.9 7.2 5.5 5.3 3.3 3.8 5.8 7.1 7.1 6.1 4.0 2.2 2.4 2.7 2.3 2.7 2.4 2.4 2.0 1.5 2.2 2.3 1.6 1.7 1.3 1.1 1.1 0.7 0.0 0.3 0.3 0.4 0.4 0.3 0.2 0.2 0.3 0.0 0.7 1.1
5.9 1.2 0.2 0.0 0.0 0.1 0.3 0.8 1.2 1.6 3.9 4.0 3.2 3.2 4.1 5.7 4.8 2.6 2.2 4.0 6.1 7.0 7.5 7.4 6.4 4.1 3.6 3.4 3.6 3.7 3.9 3.6 3.7 1.6 3.2 3.8 3.3 2.0 1.4 1.5 0.8 0.4 0.3 1.6 1.2 1.1 1.3 1.3 1.3 1.4 2.0 2.3 2.3 2.2
0.4 0.1 0.0 0.0 0.0 0.3 0.5 0.7 0.9 1.0 1.4 0.9 2.3 2.8 2.8 2.4 1.2 1.4 2.6 3.7 6.3 7.1 7.7 7.8 7.5 5.5 4.4 4.1 4.4 4.7 5.2 5.5 5.3 4.9 4.4 4.9 4.9 4.5 3.6 3.8 3.1 2.6 2.5 2.7 2.9 2.9 2.7 2.9 2.9 2.8 3.3 3.2 2.7 2.8
0.2 0.0 0.0 0.9 1.3 1.8 1.7 1.2 0.6 0.4 0.1 0.2 0.3 0.8 0.5 0.6 1.0 1.6 2.5 4.3 5.5 6.1 7.0 7.3 7.5 7.1 6.2 5.6 5.8 5.9 5.3 5.5 4.9 4.3 3.0 3.0 3.4 4.3 5.4 5.3 4.9 5.7 4.9 4.0 2.9 3.1 3.0 3.3 3.8 4.2 4.1 3.8 3.5 3.7
0.7 0.9 1.0 2.3 1.9 1.2 1.0 0.3 0.1 0.1 0.2 0.3 0.4 0.3 0.1 0.4 1.1 1.7 2.4 3.4 5.1 6.2 7.2 7.4 7.1 7.3 7.2 6.7 7.2 7.2 6.9 6.4 6.1 4.5 3.6 3.1 2.6 4.4 5.4 5.7 5.7 4.5 5.0 5.2 4.6 4.5 3.4 4.3 4.2 4.9 4.8 4.8 4.8 4.6
1.7 1.6 1.6 1.7 1.2 0.9 1.1 1.7 1.9 1.6 1.2 0.9 0.7 0.8 0.7 0.1 0.7 1.3 2.1 3.1 4.1 5.1 5.9 6.5 6.9 7.5 7.2 7.1 7.3 6.9 6.5 6.4 6.5 6.3 5.7 5.4 5.4 5.4 6.3 6.3 5.9 6.2 6.1 5.9 4.7 4.8 4.2 3.1 2.5 2.9 3.1 3.4 3.9 3.4
2.4 1.4 0.7 0.6 0.8 2.5 2.3 2.0 1.7 1.3 1.2 1.0 0.8 0.5 0.5 0.4 0.4 0.6 1.1 1.8 2.7 3.7 4.5 5.2 5.4 5.8 6.0 6.1 5.9 6.0 5.7 5.7 5.2 6.0 5.7 5.0 4.7 5.1 5.5 5.5 6.0 6.1 6.5 7.1 6.5 6.2 6.1 5.3 6.2 5.8 5.7 5.8 5.6 5.1
3.5 2.6 1.3 1.7 2.0 2.0 2.0 1.5 1.2 1.2 1.3 1.0 0.8 0.5 0.3 0.2 0.2 0.2 0.6 1.3 1.9 2.7 3.5 4.1 4.6 5.2 5.3 5.4 5.6 6.0 6.3 7.1 7.0 6.7 6.9 6.6 6.0 5.9 6.1 6.1 5.8 6.4 6.7 6.8 7.1 7.7 8.3 8.0 7.6 6.8 6.7 6.6 6.6 6.5

GFSWCAN_prec_kuchsnow_114.txt.gz
Snowfall_Accumulation
0.0 0.0 0.0 0.0 0.0 0.0 0.0 0.0 0.0 0.0 0.0 0.0 0.0 0.0 0.0 0.0 0.0 0.0 0.0 0.0 0.0 0.0 0.0 0.0 0.0 0.0 0.0 0.0 0.0 0.0 0.0 0.0 0.0 1.6 1.4 1.2 0.3 0.0 0.3 0.0 0.1 0.2 1.2 1.5 1.4 2.6 0.4 0.0 0.0 0.0 0.0 0.0 0.0 0.0
0.0 0.0 0.0 0.0 0.0 0.0 0.0 0.0 0.0 0.0 0.0 0.0 0.0 0.0 0.0 0.0 0.0 0.0 0.0 0.0 0.0 0.0 0.0 0.0 0.0 0.0 0.0 0.0 0.0 0.0 0.0 0.2 0.9 1.5 3.3 3.0 2.9 2.4 0.8 0.7 0.0 0.2 0.0 0.2 0.3 0.0 0.0 0.0 0.0 0.0 0.0 0.0 0.0 0.0
0.0 0.0 0.0 0.0 0.0 0.0 0.0 0.0 0.0 0.0 0.0 0.0 0.0 0.0 0.0 0.0 0.0 0.0 0.0 0.0 0.0 0.0 0.0 0.0 0.0 0.0 0.0 0.0 0.0 0.1 0.0 0.0 0.0 1.6 1.5 0.2 1.9 1.1 0.6 1.0 0.4 0.1 0.1 0.0 0.0 0.0 0.0 0.0 0.0 0.0 0.0 0.0 0.0 0.0
0.0 0.0 0.0 0.0 0.0 0.0 0.0 0.0 0.0 0.0 0.0 0.0 0.0 0.0 0.0 0.0 0.0 0.0 0.0 0.0 0.0 0.0 1.8 0.0 0.0 0.0 0.0 0.0 0.0 0.0 0.0 0.0 0.0 0.9 2.4 1.2 0.1 0.4 0.1 0.2 0.1 0.0 0.0 0.1 0.0 0.0 0.0 0.0 0.0 0.0 0.0 0.0 0.0 0.0
0.0 0.0 0.0 0.0 0.0 0.0 0.0 0.0 0.0 0.0 0.0 0.0 0.0 0.0 0.0 0.0 0.0 0.0 0.0 0.0 0.0 0.4 2.2 0.4 0.0 0.0 0.0 0.0 0.0 0.0 0.0 0.0 0.1 1.1 0.8 1.8 0.3 0.7 0.0 0.0 0.0 0.0 0.0 0.0 0.0 0.0 0.0 0.0 0.0 0.0 0.0 0.0 0.0 0.0
0.0 0.0 0.0 0.0 0.0 0.0 0.0 0.0 0.0 0.0 0.0 0.0 0.0 0.0 0.0 0.0 0.0 0.0 0.0 0.0 0.0 0.0 2.7 2.4 0.0 0.0 0.0 0.0 0.0 0.0 0.0 0.0 0.1 0.3 0.7 0.0 0.0 1.3 1.2 0.6 0.0 0.0 0.0 0.0 0.0 0.0 0.0 0.0 0.0 0.0 0.0 0.0 0.0 0.0
0.0 0.0 0.0 0.0 0.0 0.0 0.0 0.0 0.0 0.0 0.0 0.0 0.0 0.0 0.0 0.0 0.0 0.0 0.0 0.0 0.0 0.0 1.5 5.5 2.7 0.0 0.0 0.0 0.0 0.0 0.0 0.1 0.3 0.5 1.3 0.5 0.0 1.2 2.4 0.1 0.0 0.0 0.0 0.0 0.0 0.0 0.0 0.0 0.0 0.0 0.0 0.0 0.0 0.0
0.0 0.0 0.0 0.0 0.0 0.0 0.0 0.0 0.0 0.0 0.0 0.0 0.0 0.0 0.0 0.0 0.0 0.0 0.0 0.0 0.0 0.0 1.2 4.9 1.7 1.0 0.0 0.1 0.1 0.0 0.2 0.6 0.8 0.6 0.3 0.0 0.1 0.3 1.0 0.0 0.0 0.0 0.0 0.0 0.0 0.0 0.0 0.0 0.0 0.0 0.0 0.0 0.0 0.0
0.0 0.0 0.0 0.0 0.0 0.0 0.0 0.0 0.0 0.0 0.0 0.0 0.0 0.0 0.0 0.0 0.0 0.0 0.0 0.0 0.0 0.0 2.5 2.2 2.9 4.9 0.0 0.0 0.1 0.2 0.4 4.0 0.0 1.4 0.5 0.5 0.0 2.6 0.0 0.0 0.0 0.0 0.1 0.0 0.0 0.0 0.0 0.0 0.0 0.0 0.0 0.0 0.0 0.0
0.0 0.0 0.0 0.0 0.0 0.0 0.0 0.0 0.0 0.0 0.0 0.0 0.0 0.0 5.3 0.0 0.0 0.0 0.0 1.2 1.8 1.6 1.2 1.3 0.3 1.7 0.0 0.0 1.8 0.4 0.6 2.2 5.3 0.0 0.0 0.9 0.4 0.0 0.0 0.0 0.1 0.0 0.0 0.0 0.0 0.0 0.0 0.0 0.0 0.0 0.0 0.0 0.0 0.0
0.0 0.0 0.0 0.0 0.0 0.0 0.0 0.0 0.0 0.0 0.0 0.0 2.9 2.5 0.0 0.0 0.0 0.0 4.3 4.6 2.1 2.3 0.3 0.0 0.1 1.3 0.0 3.1 3.6 1.5 5.4 2.8 9.1 3.2 2.3 4.0 2.9 1.4 0.3 0.2 0.0 0.0 0.0 0.0 0.0 0.0 0.0 0.0 0.0 0.0 0.0 0.0 0.0 0.0
0.0 0.0 0.0 0.0 0.0 0.0 0.0 0.0 0.0 0.0 3.0 0.0 0.0 0.0 0.0 0.5 5.5 7.4 6.1 1.5 1.2 0.0 0.0 0.6 1.3 1.4 0.6 0.5 2.0 0.7 4.2 4.0 4.5 0.9 3.6 4.3 3.1 2.1 0.9 0.1 0.0 0.0 0.0 0.0 0.0 0.0 0.0 0.0 0.0 0.0 0.0 0.0 0.0 0.0
0.0 0.0 0.0 0.0 0.0 0.0 0.0 0.0 0.0 0.0 0.0 0.0 2.5 12.5 11.0 10.4 13.1 5.4 3.4 1.1 0.2 0.0 0.0 1.4 2.0 0.0 0.5 1.5 1.4 1.4 1.7 2.2 0.9 2.6 1.7 1.9 0.7 0.7 1.4 0.7 0.1 0.0 0.7 1.2 0.5 0.2 0.0 0.0 0.0 0.0 0.1 1.0 0.6 1.3
0.0 0.0 0.0 0.0 0.0 0.0 0.0 0.0 0.0 0.0 2.7 4.5 19.1 25.4 10.1 7.5 0.6 0.8 0.4 0.0 0.0 0.0 0.0 0.3 0.8 1.3 0.0 1.9 1.6 2.5 0.5 0.9 2.2 0.9 0.1 0.0 0.0 0.1 0.2 0.6 0.6 0.6 0.1 0.2 0.4 0.5 0.2 0.4 0.6 0.4 0.7 0.3 0.3 0.3
0.0 0.0 0.0 0.0 0.0 0.0 0.0 0.0 0.0 0.0 3.6 17.6 9.6 9.3 4.0 0.6 0.2 0.1 0.3 0.1 0.0 0.0 0.0 0.0 0.0 0.5 1.7 2.7 1.6 0.9 1.9 0.9 0.7 0.6 0.0 0.0 0.1 0.1 0.1 0.6 2.5 1.8 1.0 0.4 0.2 0.1 0.5 0.6 0.5 0.2 0.0 0.0 0.0 0.0
0.0 0.0 0.0 0.0 0.0 0.0 0.0 0.0 0.0 0.0 17.8 15.6 9.0 5.1 0.4 0.1 0.6 0.2 0.1 0.1 0.0 0.0 0.0 0.0 1.8 1.6 1.6 1.6 1.8 1.0 1.5 0.8 0.7 0.3 0.0 0.0 0.0 0.2 0.4 1.4 1.9 0.7 0.8 1.1 0.8 0.0 0.0 0.0 0.0 0.0 0.0 0.0 0.0 0.0
0.0 0.0 0.0 0.0 0.0 0.0 0.0 2.1 4.4 20.7 26.3 18.7 6.1 0.1 0.3 0.7 0.3 0.3 0.2 0.1 0.0 0.3 1.5 2.7 3.0 1.8 0.4 1.1 0.3 0.1 0.2 0.3 0.0 0.1 0.0 0.0 0.0 0.0 0.5 0.9 1.7 0.8 1.1 1.6 1.2 0.3 0.0 0.0 0.0 0.0 0.0 0.0 0.0 0.0
0.0 0.0 0.0 0.0 0.0 0.0 1.3 9.5 24.2 26.5 26.4 10.2 1.5 1.2 1.5 0.9 0.4 0.2 0.2 0.5 1.1 1.8 2.0 4.1 1.4 1.3 0.6 0.6 0.2 0.0 0.0 0.0 0.0 0.0 0.0 0.0 0.0 0.0 0.0 0.6 1.3 1.5 1.5 1.2 0.7 0.0 0.3 0.1 0.1 0.1 0.2 0.2 0.2 0.3
0.0 0.0 0.0 0.0 0.0 1.5 22.3 25.9 17.4 18.6 11.4 4.1 3.1 3.4 2.1 0.7 0.0 0.0 0.0 0.4 0.9 1.8 3.4 4.8 3.8 1.0 0.0 0.2 0.2 0.0 0.0 0.0 0.1 0.0 0.0 0.0 0.0 0.0 0.0 0.0 0.0 0.0 0.5 0.6 0.6 0.4 0.2 0.1 0.1 0.2 0.3 0.5 0.6 0.7
0.0 0.0 0.0 0.0 0.0 5.3 13.3 20.6 8.3 8.0 7.4 6.6 5.4 6.0 3.7 1.7 0.4 0.3 0.1 0.1 0.5 3.2 4.8 3.4 0.5 0.1 0.0 0.1 0.2 0.2 0.0 0.0 0.0 0.0 0.0 0.0 0.0 0.0 0.0 0.0 0.0 0.0 0.0 0.0 0.0 0.0 0.0 0.0 0.0 0.0 0.0 0.0 0.0 0.0
0.0 0.0 0.0 0.0 9.8 8.5 8.2 9.1 9.4 8.0 7.8 9.5 10.9 7.7 8.0 3.7 2.7 1.6 3.0 1.1 5.8 6.3 3.4 1.2 0.1 0.0 0.2 0.1 0.0 0.0 0.1 0.0 0.0 0.0 0.0 0.0 0.0 0.0 0.0 0.0 0.0 0.0 0.0 0.0 0.0 0.0 0.0 0.0 0.0 0.0 0.0 0.0 0.0 0.0
0.3 0.0 1.8 0.7 14.4 10.6 8.2 4.9 6.4 7.6 6.8 11.6 13.6 10.9 10.7 9.4 8.5 7.5 5.8 8.9 11.4 4.7 1.3 0.6 0.6 0.8 0.4 0.4 0.3 0.8 0.0 0.4 0.0 0.0 0.0 0.0 0.0 0.0 0.0 0.0 0.0 0.0 0.0 0.0 0.0 0.0 0.0 0.0 0.0 0.0 0.0 0.0 0.0 0.0
0.0 0.8 10.3 14.9 18.6 8.7 12.8 6.7 8.2 10.3 10.9 13.6 12.7 11.9 13.4 11.5 11.8 9.3 14.2 9.2 6.3 3.2 2.0 1.7 1.4 1.7 1.6 1.0 0.6 0.2 0.1 0.0 0.0 0.2 0.1 0.0 0.0 0.0 0.0 0.0 0.0 0.0 0.0 0.0 0.0 0.0 0.0 0.0 0.0 0.0 0.0 0.0 0.0 0.0
0.0 17.1 22.9 17.0 10.0 10.3 6.4 7.8 5.2 6.0 10.1 10.6 10.6 9.8 8.2 10.2 11.7 12.4 9.7 3.9 3.2 3.4 2.8 3.6 2.9 1.4 1.8 1.8 2.0 1.4 0.9 0.4 0.1 0.1 0.7 0.5 0.1 0.0 0.0 0.0 0.0 0.0 0.0 0.0 0.0 0.0 0.0 0.0 0.0 0.0 0.0 0.0 0.0 0.0
20.5 25.7 14.8 11.3 4.6 2.2 2.0 4.2 5.9 5.4 5.1 7.2 8.2 8.9 7.8 8.4 11.2 8.2 4.3 3.2 4.9 6.5 5.3 3.9 2.9 2.4 1.9 1.8 1.6 1.9 1.7 2.2 1.8 0.6 0.2 1.2 0.8 0.5 0.1 0.6 0.2 0.0 0.0 0.0 0.0 0.0 0.0 0.0 0.0 0.0 0.0 0.0 0.0 0.2
15.8 10.0 6.4 2.5 0.9 0.1 0.8 1.9 3.4 4.2 4.9 7.0 7.5 6.7 8.0 8.7 6.7 5.8 3.4 3.8 5.8 7.2 7.2 6.1 4.1 2.3 2.6 2.7 2.3 2.7 2.4 2.4 2.0 1.5 2.2 2.3 1.6 1.7 1.3 1.1 1.1 0.7 0.0 0.3 0.3 0.4 0.4 0.3 0.2 0.2 0.3 0.0 0.7 1.1
7.4 2.2 0.5 0.0 0.0 0.1 0.3 0.9 1.2 1.7 4.1 4.0 3.2 3.3 4.1 6.3 5.2 2.6 2.2 4.0 6.1 7.0 7.5 7.4 6.4 4.1 3.6 3.4 3.6 3.7 3.9 3.6 3.7 1.6 3.3 3.8 3.3 2.0 1.4 1.5 0.8 0.4 0.3 1.6 1.2 1.1 1.3 1.3 1.3 1.4 2.0 2.3 2.3 2.2
0.9 0.1 0.0 0.0 0.0 0.3 0.5 0.7 0.9 1.0 1.4 0.9 2.3 2.8 2.8 2.4 1.2 1.4 2.6 3.7 6.3 7.5 8.4 8.5 7.8 5.6 4.4 4.1 4.4 4.7 5.2 5.5 5.3 5.0 4.5 4.9 4.9 4.5 3.6 3.8 3.1 2.6 2.5 2.7 2.9 2.9 2.7 2.9 2.9 2.8 3.3 3.2 2.7 2.8
0.2 0.0 0.0 0.9 1.3 1.8 1.7 1.2 0.6 0.4 0.1 0.2 0.3 0.8 0.5 0.6 1.0 1.6 2.5 4.3 6.2 7.2 8.3 8.6 8.3 7.2 6.2 5.6 5.8 5.9 5.3 5.5 5.0 4.3 3.1 3.0 3.4 4.3 5.4 5.3 4.9 5.7 4.9 4.0 2.9 3.1 3.0 3.3 3.8 4.2 4.1 3.8 3.5 3.7
0.7 0.9 1.0 2.3 1.9 1.2 1.0 0.3 0.2 0.1 0.2 0.3 0.4 0.3 0.1 0.4 1.1 1.7 2.4 3.4 5.4 6.8 8.1 8.4 7.8 7.7 7.2 6.7 7.2 7.2 6.9 6.4 6.1 4.5 3.6 3.1 2.6 4.4 5.4 5.7 5.7 4.5 5.0 5.2 4.6 4.5 3.4 4.3 4.2 4.9 4.8 4.8 4.8 4.6
1.7 1.6 1.6 1.7 1.2 0.9 1.1 1.8 2.0 1.6 1.2 0.9 0.7 0.8 0.7 0.1 0.7 1.3 2.1 3.1 4.1 5.3 6.4 7.6 8.3 8.4 7.6 7.3 7.4 6.9 6.5 6.4 6.5 6.3 5.7 5.4 5.4 5.4 6.3 6.3 5.9 6.2 6.1 5.9 4.7 4.8 4.2 3.1 2.5 2.9 3.1 3.4 3.9 3.4
2.5 1.4 0.7 0.6 0.8 2.6 2.5 2.1 1.7 1.3 1.2 1.0 0.8 0.5 0.5 0.4 0.4 0.6 1.1 1.8 2.9 4.2 5.0 6.1 6.4 6.7 6.6 6.3 6.0 6.0 5.7 5.7 5.2 6.0 5.7 5.0 4.7 5.1 5.5 5.5 6.0 6.1 6.5 7.1 6.5 6.2 6.1 5.3 6.2 5.8 5.7 5.8 5.6 5.1
3.6 2.6 1.3 1.7 2.4 2.0 2.5 1.5 1.2 1.5 1.5 1.3 0.8 0.5 0.3 0.5 0.5 0.2 0.6 1.4 2.4 3.5 4.2 4.9 5.3 5.7 5.7 5.5 5.6 6.0 6.3 7.1 7.0 6.7 6.9 6.6 6.0 5.9 6.1 6.1 5.8 6.4 6.7 6.8 7.1 7.7 8.3 8.0 7.6 6.8 6.7 6.6 6.6 6.5

GFSWCAN_prec_kuchsnow_117.txt.gz
Snowfall_Accumulation
0.0 0.0 0.0 0.0 0.0 0.0 0.0 0.0 0.0 0.0 0.0 0.0 0.0 0.0 0.0 0.0 0.0 0.0 0.0 0.0 0.0 0.0 0.0 0.0 0.0 0.0 0.0 0.0 0.0 0.0 0.0 0.0 0.0 1.6 1.4 1.2 0.3 0.0 0.3 0.0 0.1 0.2 1.2 1.5 1.4 2.6 0.4 0.0 0.0 0.0 0.0 0.0 0.0 0.0
0.0 0.0 0.0 0.0 0.0 0.0 0.0 0.0 0.0 0.0 0.0 0.0 0.0 0.0 0.0 0.0 0.0 0.0 0.0 0.0 0.0 0.0 0.0 0.0 0.0 0.0 0.0 0.0 0.0 0.0 0.0 0.2 0.9 1.5 3.3 3.0 2.9 2.4 0.8 0.7 0.0 0.2 0.0 0.2 0.3 0.0 0.0 0.0 0.0 0.0 0.0 0.0 0.0 0.0
0.0 0.0 0.0 0.0 0.0 0.0 0.0 0.0 0.0 0.0 0.0 0.0 0.0 0.0 0.0 0.0 0.0 0.0 0.0 0.0 0.0 0.0 0.0 0.0 0.0 0.0 0.0 0.0 0.0 0.1 0.0 0.0 0.0 1.6 1.5 0.2 1.9 1.1 0.6 1.0 0.4 0.1 0.1 0.0 0.0 0.0 0.0 0.0 0.0 0.0 0.0 0.0 0.0 0.0
0.0 0.0 0.0 0.0 0.0 0.0 0.0 0.0 0.0 0.0 0.0 0.0 0.0 0.0 0.0 0.0 0.0 0.0 0.0 0.0 0.0 0.0 1.8 0.0 0.0 0.0 0.0 0.0 0.0 0.0 0.0 0.0 0.0 0.9 2.4 1.2 0.1 0.4 0.1 0.2 0.1 0.0 0.0 0.1 0.0 0.0 0.0 0.0 0.0 0.0 0.0 0.0 0.0 0.0
0.0 0.0 0.0 0.0 0.0 0.0 0.0 0.0 0.0 0.0 0.0 0.0 0.0 0.0 0.0 0.0 0.0 0.0 0.0 0.0 0.0 0.4 2.2 0.4 0.0 0.0 0.0 0.0 0.0 0.0 0.0 0.0 0.1 1.1 0.8 1.8 0.3 0.7 0.0 0.0 0.0 0.0 0.0 0.0 0.0 0.0 0.0 0.0 0.0 0.0 0.0 0.0 0.0 0.0
0.0 0.0 0.0 0.0 0.0 0.0 0.0 0.0 0.0 0.0 0.0 0.0 0.0 0.0 0.0 0.0 0.0 0.0 0.0 0.0 0.0 0.0 2.7 2.4 0.0 0.0 0.0 0.0 0.0 0.0 0.0 0.0 0.1 0.3 0.7 0.0 0.0 1.3 1.2 0.6 0.0 0.0 0.0 0.0 0.0 0.0 0.0 0.0 0.0 0.0 0.0 0.0 0.0 0.0
0.0 0.0 0.0 0.0 0.0 0.0 0.0 0.0 0.0 0.0 0.0 0.0 0.0 0.0 0.0 0.0 0.0 0.0 0.0 0.0 0.0 0.0 1.5 5.5 2.7 0.0 0.0 0.0 0.0 0.0 0.0 0.1 0.3 0.5 1.3 0.5 0.0 1.2 2.4 0.1 0.0 0.0 0.0 0.0 0.0 0.0 0.0 0.0 0.0 0.0 0.0 0.0 0.0 0.0
0.0 0.0 0.0 0.0 0.0 0.0 0.0 0.0 0.0 0.0 0.0 0.0 0.0 0.0 0.0 0.0 0.0 0.0 0.0 0.0 0.0 0.0 1.2 4.9 1.7 1.0 0.0 0.1 0.1 0.0 0.2 0.6 0.8 0.6 0.3 0.0 0.1 0.3 1.0 0.0 0.0 0.0 0.0 0.0 0.0 0.0 0.0 0.0 0.0 0.0 0.0 0.0 0.0 0.0
0.0 0.0 0.0 0.0 0.0 0.0 0.0 0.0 0.0 0.0 0.0 0.0 0.0 0.0 0.0 0.0 0.0 0.0 0.0 0.0 0.0 0.0 2.5 2.3 2.9 4.9 0.0 0.0 0.1 0.2 0.4 4.0 0.0 1.4 0.5 0.5 0.0 2.6 0.0 0.0 0.0 0.0 0.1 0.0 0.0 0.0 0.0 0.0 0.0 0.0 0.0 0.0 0.0 0.0
0.0 0.0 0.0 0.0 0.0 0.0 0.0 0.0 0.0 0.0 0.0 0.0 0.0 0.0 5.3 0.0 0.0 0.0 0.0 1.2 1.8 1.6 1.2 1.5 0.3 1.7 0.0 0.0 1.8 0.4 0.6 2.2 5.3 0.0 0.0 0.9 0.4 0.0 0.0 0.0 0.1 0.0 0.0 0.0 0.0 0.0 0.0 0.0 0.0 0.0 0.0 0.0 0.0 0.0
0.0 0.0 0.0 0.0 0.0 0.0 0.0 0.0 0.0 0.0 0.0 0.0 2.9 2.5 0.0 0.0 0.0 0.0 4.3 4.6 2.1 3.0 0.5 0.1 0.1 1.3 0.0 3.1 3.6 1.5 5.4 2.8 9.1 3.2 2.3 4.0 2.9 1.4 0.3 0.2 0.0 0.0 0.0 0.0 0.0 0.0 0.0 0.0 0.0 0.0 0.0 0.0 0.0 0.0
0.0 0.0 0.0 0.0 0.0 0.0 0.0 0.0 0.0 0.0 3.0 0.0 0.0 0.0 0.0 0.5 5.6 7.4 6.1 1.6 1.3 0.0 0.0 0.6 1.3 1.4 0.6 0.5 2.0 0.7 4.2 4.0 4.5 0.9 3.6 4.3 3.1 2.1 0.9 0.1 0.0 0.0 0.0 0.0 0.0 0.0 0.0 0.0 0.0 0.0 0.0 0.0 0.0 0.0
0.0 0.0 0.0 0.0 0.0 0.0 0.0 0.0 0.0 0.0 0.0 0.0 2.5 13.1 11.3 10.8 13.3 5.5 3.5 1.2 0.2 0.0 0.0 1.4 2.0 0.0 0.5 1.5 1.4 1.4 1.7 2.2 0.9 2.6 1.7 1.9 0.7 0.7 1.4 0.7 0.1 0.0 0.7 1.2 0.5 0.2 0.0 0.0 0.0 0.0 0.1 1.0 0.6 1.3
0.0 0.0 0.0 0.0 0.0 0.0 0.0 0.0 0.0 0.0 2.7 5.4 20.1 26.8 10.6 7.8 0.6 0.8 0.4 0.0 0.0 0.0 0.0 0.3 0.8 1.3 0.0 1.9 1.6 2.5 0.5 0.9 2.2 0.9 0.1 0.0 0.0 0.1 0.2 0.6 0.6 0.6 0.1 0.2 0.4 0.5 0.2 0.4 0.6 0.4 0.7 0.3 0.3 0.3
0.0 0.0 0.0 0.0 0.0 0.0 0.0 0.0 0.0 0.0 3.6 18.9 10.3 9.8 4.1 0.6 0.2 0.1 0.3 0.1 0.0 0.0 0.0 0.0 0.0 0.5 1.7 2.7 1.6 0.9 1.9 0.9 0.7 0.6 0.0 0.0 0.1 0.1 0.1 0.6 2.5 1.8 1.0 0.4 0.2 0.1 0.5 0.6 0.5 0.2 0.0 0.0 0.0 0.0
0.0 0.0 0.0 0.0 0.0 0.0 0.0 0.0 0.0 0.0 18.9 16.6 9.4 5.1 0.4 0.1 0.6 0.2 0.1 0.1 0.0 0.0 0.0 0.0 1.8 1.6 1.6 1.6 1.8 1.0 1.5 0.8 0.7 0.3 0.0 0.0 0.0 0.2 0.4 1.4 1.9 0.7 0.8 1.1 0.8 0.0 0.0 0.0 0.0 0.0 0.0 0.0 0.0 0.0
0.0 0.0 0.0 0.0 0.0 0.0 0.0 2.1 4.4 24.1 28.2 19.8 6.3 0.1 0.3 0.7 0.3 0.3 0.2 0.1 0.0 0.3 1.5 2.7 3.0 1.8 0.4 1.1 0.3 0.1 0.2 0.3 0.0 0.1 0.0 0.0 0.0 0.0 0.5 0.9 1.7 0.8 1.1 1.6 1.2 0.3 0.0 0.0 0.0 0.0 0.0 0.0 0.0 0.0
0.0 0.0 0.0 0.0 0.0 0.0 1.3 9.5 24.2 28.6 28.1 10.6 1.5 1.2 1.5 0.9 0.4 0.2 0.2 0.5 1.1 1.8 2.0 4.1 1.4 1.3 0.6 0.6 0.2 0.0 0.0 0.0 0.0 0.0 0.0 0.0 0.0 0.0 0.0 0.6 1.3 1.5 1.5 1.2 0.7 0.0 0.3 0.1 0.1 0.1 0.2 0.2 0.2 0.3
0.0 0.0 0.0 0.0 0.0 1.5 25.6 29.1 19.1 20.1 11.8 4.1 3.1 3.4 2.1 0.7 0.0 0.0 0.0 0.4 0.9 1.8 3.4 4.8 3.8 1.0 0.0 0.2 0.2 0.0 0.0 0.0 0.1 0.0 0.0 0.0 0.0 0.0 0.0 0.0 0.0 0.0 0.5 0.6 0.6 0.4 0.2 0.1 0.1 0.2 0.3 0.5 0.6 0.7
0.0 0.0 0.0 0.0 0.0 6.8 15.4 22.9 9.1 8.7 7.4 6.6 5.4 6.0 3.7 1.7 0.4 0.3 0.1 0.1 0.5 3.2 4.8 3.4 0.5 0.1 0.0 0.1 0.2 0.2 0.0 0.0 0.0 0.0 0.0 0.0 0.0 0.0 0.0 0.0 0.0 0.0 0.0 0.0 0.0 0.0 0.0 0.0 0.0 0.0 0.0 0.0 0.0 0.0
0.0 0.0 0.0 0.0 9.8 10.3 9.2 10.0 10.1 8.6 8.1 9.5 10.9 7.7 8.0 3.7 2.7 1.6 3.0 1.1 5.8 6.5 3.4 1.2 0.1 0.0 0.2 0.1 0.0 0.0 0.1 0.0 0.0 0.0 0.0 0.0 0.0 0.0 0.0 0.0 0.0 0.0 0.0 0.0 0.0 0.0 0.0 0.0 0.0 0.0 0.0 0.0 0.0 0.0
0.3 0.0 1.8 0.7 16.4 12.1 9.0 5.3 6.4 7.6 6.9 11.7 13.6 10.9 10.8 9.5 8.5 7.5 5.8 8.9 11.6 4.7 1.3 0.6 0.6 0.8 0.4 0.4 0.3 0.8 0.0 0.4 0.0 0.0 0.0 0.0 0.0 0.0 0.0 0.0 0.0 0.0 0.0 0.0 0.0 0.0 0.0 0.0 0.0 0.0 0.0 0.0 0.0 0.0
0.0 0.8 10.3 16.5 20.6 10.1 14.0 7.0 8.3 10.5 11.0 13.7 12.9 12.1 13.6 11.5 11.8 9.3 14.3 9.4 6.3 3.2 2.0 1.7 1.4 1.7 1.6 1.0 0.6 0.2 0.1 0.0 0.0 0.2 0.1 0.0 0.0 0.0 0.0 0.0 0.0 0.0 0.0 0.0 0.0 0.0 0.0 0.0 0.0 0.0 0.0 0.0 0.0 0.0
0.0 18.1 24.7 18.5 10.7 10.9 7.1 8.5 5.4 6.1 10.2 10.7 10.8 9.9 8.3 10.2 11.7 12.5 9.7 3.9 3.2 3.4 2.8 3.6 2.9 1.4 1.8 1.8 2.0 1.4 0.9 0.4 0.1 0.1 0.7 0.5 0.1 0.0 0.0 0.0 0.0 0.0 0.0 0.0 0.0 0.0 0.0 0.0 0.0 0.0 0.0 0.0 0.0 0.0
22.0 27.2 16.0 13.0 5.3 2.4 2.2 4.6 6.0 5.4 5.1 7.2 8.2 8.9 7.9 8.4 11.3 8.4 4.3 3.2 4.9 6.5 5.3 3.9 2.9 2.4 1.9 1.8 1.6 1.9 1.7 2.2 1.8 0.6 0.3 1.2 0.8 0.5 0.1 0.6 0.2 0.0 0.0 0.0 0.0 0.0 0.0 0.0 0.0 0.0 0.0 0.0 0.0 0.2
17.3 11.0 7.0 2.9 1.1 0.1 0.8 1.9 3.4 4.2 4.9 7.0 7.5 6.7 8.0 8.8 6.7 5.8 3.4 3.8 5.8 7.2 7.2 6.1 4.1 2.3 2.6 2.7 3.6 3.7 3.0 2.5 2.0 1.5 2.3 2.3 1.6 1.7 1.3 1.1 1.1 0.7 0.0 0.3 0.3 0.4 0.4 0.3 0.2 0.2 0.3 0.0 0.7 1.1
8.7 3.0 0.6 0.0 0.0 0.1 0.3 0.9 1.2 1.7 4.1 4.0 3.2 3.3 4.1 6.9 5.2 2.6 2.2 4.0 6.1 7.0 7.5 7.4 6.4 4.1 3.6 4.4 4.7 4.5 4.4 3.9 3.7 1.6 3.3 3.8 3.3 2.0 1.4 1.5 0.8 0.4 0.3 1.6 1.2 1.1 1.3 1.3 1.3 1.4 2.0 2.3 2.3 2.2
1.5 0.1 0.0 0.0 0.0 0.3 0.5 0.7 0.9 1.0 1.4 0.9 2.3 2.8 2.8 2.4 1.2 1.4 2.6 3.7 6.3 7.5 8.5 8.5 7.8 6.2 5.9 5.6 5.3 5.4 5.7 5.6 5.3 5.0 4.5 4.9 4.9 4.5 3.6 3.8 3.1 2.7 2.5 2.7 2.9 2.9 2.7 2.9 2.9 2.8 3.3 3.2 2.7 2.8
0.2 0.0 0.0 0.9 1.3 1.8 1.7 1.2 0.6 0.4 0.1 0.2 0.3 0.8 0.5 0.6 1.0 1.6 2.5 4.3 6.2 7.5 8.9 9.7 10.1 9.0 7.9 6.8 6.5 6.2 5.5 5.5 5.0 4.3 3.1 3.0 3.5 4.4 5.4 5.3 4.9 5.7 4.9 4.0 2.9 3.1 3.0 3.3 3.8 4.2 4.1 3.8 3.5 3.7
0.7 0.9 1.0 2.3 1.9 1.2 1.0 0.3 0.2 0.1 0.2 0.3 0.4 0.3 0.1 0.4 1.1 1.7 2.4 3.4 5.4 7.7 10.0 10.9 9.8 9.2 8.1 7.3 7.6 7.6 7.0 6.4 6.1 4.5 3.6 3.1 2.6 4.4 5.4 5.7 5.7 4.5 5.0 5.2 4.6 4.5 3.4 4.3 4.2 4.9 4.8 4.8 4.8 4.6
1.7 1.6 1.6 1.7 1.2 0.9 1.1 1.8 2.0 1.6 1.2 0.9 0.7 0.8 0.7 0.1 0.7 1.3 2.1 3.1 4.1 6.2 8.5 10.2 10.9 10.4 8.6 8.0 7.8 7.2 6.6 6.4 6.5 6.3 5.7 5.4 5.4 5.4 6.3 6.3 5.9 6.2 6.1 5.9 4.7 4.8 4.2 3.1 2.5 2.9 3.1 3.4 3.9 3.4
2.6 1.4 0.7 0.6 0.8 2.7 2.5 2.1 1.7 1.3 1.2 1.0 0.8 0.5 0.5 0.4 0.4 0.6 1.1 1.8 2.9 5.0 6.9 8.2 8.3 8.8 8.0 7.0 6.3 6.0 5.7 5.7 5.2 6.0 5.7 5.0 4.7 5.1 5.5 5.5 6.0 6.1 6.5 7.1 6.5 6.2 6.1 5.3 6.2 5.8 5.7 5.8 5.6 5.1
3.7 2.6 1.3 1.7 2.4 2.1 2.6 1.5 1.2 1.6 1.5 1.3 0.8 0.5 0.3 0.5 0.5 0.2 0.6 1.4 2.4 3.9 5.8 6.7 7.2 7.7 7.4 6.6 6.1 6.0 6.3 7.4 7.1 6.7 6.9 6.6 6.0 5.9 6.1 6.1 5.8 6.4 6.7 6.8 7.1 7.7 8.3 8.0 7.6 6.8 6.7 6.6 6.6 6.5

GFSWCAN_prec_kuchsnow_120.txt.gz
Snowfall_Accumulation
0.0 0.0 0.0 0.0 0.0 0.0 0.0 0.0 0.0 0.0 0.0 0.0 0.0 0.0 0.0 0.0 0.0 0.0 0.0 0.0 0.0 0.0 0.0 0.0 0.0 0.0 0.0 0.0 0.0 0.0 0.0 0.0 0.0 1.6 1.4 1.2 0.3 0.0 0.3 0.0 0.1 0.2 1.2 1.5 1.4 2.6 0.4 0.0 0.0 0.0 0.0 0.0 0.0 0.0
0.0 0.0 0.0 0.0 0.0 0.0 0.0 0.0 0.0 0.0 0.0 0.0 0.0 0.0 0.0 0.0 0.0 0.0 0.0 0.0 0.0 0.0 0.0 0.0 0.0 0.0 0.0 0.0 0.0 0.0 0.0 0.2 0.9 1.5 3.3 3.0 2.9 2.4 0.8 0.7 0.0 0.2 0.0 0.2 0.3 0.0 0.0 0.0 0.0 0.0 0.0 0.0 0.0 0.0
0.0 0.0 0.0 0.0 0.0 0.0 0.0 0.0 0.0 0.0 0.0 0.0 0.0 0.0 0.0 0.0 0.0 0.0 0.0 0.0 0.0 0.0 0.0 0.0 0.0 0.0 0.0 0.0 0.0 0.1 0.0 0.0 0.0 1.6 1.5 0.2 1.9 1.1 0.6 1.0 0.4 0.1 0.1 0.0 0.0 0.0 0.0 0.0 0.0 0.0 0.0 0.0 0.0 0.0
0.0 0.0 0.0 0.0 0.0 0.0 0.0 0.0 0.0 0.0 0.0 0.0 0.0 0.0 0.0 0.0 0.0 0.0 0.0 0.0 0.0 0.0 1.8 0.0 0.0 0.0 0.0 0.0 0.0 0.0 0.0 0.0 0.0 0.9 2.4 1.2 0.1 0.4 0.1 0.2 0.1 0.0 0.0 0.1 0.0 0.0 0.0 0.0 0.0 0.0 0.0 0.0 0.0 0.0
0.0 0.0 0.0 0.0 0.0 0.0 0.0 0.0 0.0 0.0 0.0 0.0 0.0 0.0 0.0 0.0 0.0 0.0 0.0 0.0 0.0 0.4 2.2 0.4 0.0 0.0 0.0 0.0 0.0 0.0 0.0 0.0 0.1 1.1 0.8 1.8 0.3 0.7 0.0 0.0 0.0 0.0 0.0 0.0 0.0 0.0 0.0 0.0 0.0 0.0 0.0 0.0 0.0 0.0
0.0 0.0 0.0 0.0 0.0 0.0 0.0 0.0 0.0 0.0 0.0 0.0 0.0 0.0 0.0 0.0 0.0 0.0 0.0 0.0 0.0 0.0 2.7 2.4 0.0 0.0 0.0 0.0 0.0 0.0 0.0 0.0 0.1 0.3 0.7 0.0 0.0 1.3 1.2 0.6 0.0 0.0 0.0 0.0 0.0 0.0 0.0 0.0 0.0 0.0 0.0 0.0 0.0 0.0
0.0 0.0 0.0 0.0 0.0 0.0 0.0 0.0 0.0 0.0 0.0 0.0 0.0 0.0 0.0 0.0 0.0 0.0 0.0 0.0 0.0 0.0 1.5 5.5 2.7 0.0 0.0 0.0 0.0 0.0 0.0 0.1 0.3 0.5 1.3 0.5 0.0 1.2 2.4 0.1 0.0 0.0 0.0 0.0 0.0 0.0 0.0 0.0 0.0 0.0 0.0 0.0 0.0 0.0
0.0 0.0 0.0 0.0 0.0 0.0 0.0 0.0 0.0 0.0 0.0 0.0 0.0 0.0 0.0 0.0 0.0 0.0 0.0 0.0 0.0 0.0 1.2 4.9 1.7 1.0 0.0 0.1 0.1 0.0 0.2 0.6 0.8 0.6 0.3 0.0 0.1 0.3 1.0 0.0 0.0 0.0 0.0 0.0 0.0 0.0 0.0 0.0 0.0 0.0 0.0 0.0 0.0 0.0
0.0 0.0 0.0 0.0 0.0 0.0 0.0 0.0 0.0 0.0 0.0 0.0 0.0 0.0 0.0 0.0 0.0 0.0 0.0 0.0 0.0 0.0 2.5 2.4 2.9 4.9 0.0 0.0 0.1 0.2 0.4 4.0 0.0 1.4 0.5 0.5 0.0 2.6 0.0 0.0 0.0 0.0 0.1 0.0 0.0 0.0 0.0 0.0 0.0 0.0 0.0 0.0 0.0 0.0
0.0 0.0 0.0 0.0 0.0 0.0 0.0 0.0 0.0 0.0 0.0 0.0 0.0 0.0 5.3 0.0 0.0 0.0 0.0 1.2 1.8 1.6 1.2 1.7 0.3 1.7 0.0 0.0 1.8 0.4 0.6 2.2 5.3 0.0 0.0 0.9 0.4 0.0 0.0 0.0 0.1 0.0 0.0 0.0 0.0 0.0 0.0 0.0 0.0 0.0 0.0 0.0 0.0 0.0
0.0 0.0 0.0 0.0 0.0 0.0 0.0 0.0 0.0 0.0 0.0 0.0 2.9 2.5 0.0 0.0 0.0 0.0 4.3 4.6 2.1 3.3 0.7 0.2 0.1 1.3 0.0 3.1 3.6 1.5 5.4 2.8 9.1 3.2 2.3 4.0 2.9 1.4 0.3 0.2 0.0 0.0 0.0 0.0 0.0 0.0 0.0 0.0 0.0 0.0 0.0 0.0 0.0 0.0
0.0 0.0 0.0 0.0 0.0 0.0 0.0 0.0 0.0 0.0 3.0 0.0 0.0 0.0 0.0 0.5 6.3 8.2 6.5 1.6 1.3 0.0 0.0 0.6 1.3 1.4 0.6 0.5 2.0 0.7 4.2 4.0 4.5 0.9 3.6 4.3 3.1 2.1 0.9 0.1 0.0 0.0 0.0 0.0 0.0 0.0 0.0 0.0 0.0 0.0 0.0 0.0 0.0 0.0
0.0 0.0 0.0 0.0 0.0 0.0 0.0 0.0 0.0 0.0 0.0 0.0 3.2 15.1 12.6 11.8 14.3 6.2 3.8 1.2 0.2 0.0 0.0 1.4 2.0 0.0 0.5 1.5 1.4 1.4 1.7 2.2 0.9 2.6 1.7 1.9 0.7 0.7 1.4 0.7 0.1 0.0 0.7 1.2 0.5 0.2 0.0 0.0 0.0 0.0 0.1 1.0 0.6 1.3
0.0 0.0 0.0 0.0 0.0 0.0 0.0 0.0 0.0 0.0 2.7 8.6 23.2 30.0 11.8 8.5 0.6 0.8 0.4 0.0 0.0 0.0 0.0 0.3 0.8 1.3 0.0 1.9 1.6 2.5 0.5 0.9 2.2 0.9 0.1 0.0 0.0 0.1 0.2 0.6 0.6 0.6 0.1 0.2 0.4 0.5 0.2 0.4 0.6 0.4 0.7 0.3 0.3 0.3
0.0 0.0 0.0 0.0 0.0 0.0 0.0 0.0 0.0 0.0 3.6 22.7 12.8 11.6 4.6 0.6 0.2 0.1 0.3 0.1 0.0 0.0 0.0 0.0 0.0 0.5 1.7 2.7 1.6 0.9 1.9 0.9 0.7 0.6 0.0 0.0 0.1 0.1 0.1 0.6 2.5 1.8 1.0 0.4 0.2 0.1 0.5 0.6 0.5 0.2 0.0 0.0 0.0 0.0
0.0 0.0 0.0 0.0 0.0 0.0 0.0 0.0 0.0 0.0 22.8 19.8 11.1 5.1 0.4 0.1 0.6 0.2 0.1 0.1 0.0 0.0 0.0 0.0 1.8 1.6 1.6 1.6 1.8 1.0 1.5 0.8 0.7 0.3 0.0 0.0 0.0 0.2 0.4 1.4 1.9 0.7 0.8 1.1 0.8 0.0 0.0 0.0 0.0 0.0 0.0 0.0 0.0 0.0
0.0 0.0 0.0 0.0 0.0 0.0 0.0 2.1 4.4 28.9 32.1 23.1 7.5 0.3 0.3 0.7 0.3 0.3 0.2 0.1 0.0 0.3 1.5 2.7 3.0 1.8 0.4 1.1 0.3 0.1 0.2 0.3 0.0 0.1 0.0 0.0 0.0 0.0 0.5 0.9 1.7 0.8 1.1 1.6 1.2 0.3 0.0 0.0 0.0 0.0 0.0 0.0 0.0 0.0
0.0 0.0 0.0 0.0 0.0 0.0 1.3 13.9 27.5 31.3 30.6 11.3 1.7 1.2 1.5 0.9 0.4 0.2 0.2 0.5 1.1 1.8 2.0 4.1 1.4 1.3 0.6 0.6 0.2 0.0 0.0 0.0 0.0 0.0 0.0 0.0 0.0 0.0 0.0 0.6 1.3 1.5 1.5 1.2 0.7 0.0 0.3 0.1 0.1 0.1 0.2 0.2 0.2 0.3
0.0 0.0 0.0 0.0 0.0 1.5 31.1 34.4 21.7 21.9 12.4 4.2 3.1 3.4 2.1 0.7 0.0 0.0 0.0 0.4 0.9 1.8 3.4 4.8 3.8 1.0 0.0 0.2 0.2 0.0 0.0 0.0 0.1 0.0 0.0 0.0 0.0 0.0 0.0 0.0 0.0 0.0 0.5 0.6 0.6 0.4 0.2 0.1 0.1 0.2 0.3 0.5 0.6 0.7
0.0 0.0 0.0 0.0 0.0 9.5 18.7 26.0 10.4 9.3 7.6 6.6 5.4 6.0 3.7 1.7 0.4 0.3 0.1 0.1 0.5 3.2 4.8 3.4 0.5 0.1 0.0 0.1 0.2 0.2 0.0 0.0 0.0 0.0 0.0 0.0 0.0 0.0 0.0 0.0 0.0 0.0 0.0 0.0 0.0 0.0 0.0 0.0 0.0 0.0 0.0 0.0 0.0 0.0
0.0 0.0 0.0 0.0 9.8 13.5 11.4 11.6 10.6 8.9 8.3 9.5 10.9 7.7 8.0 3.7 2.7 1.6 3.0 1.1 5.8 6.6 3.4 1.2 0.1 0.0 0.2 0.1 0.0 0.0 0.1 0.0 0.0 0.0 0.0 0.0 0.0 0.0 0.0 0.0 0.0 0.0 0.1 0.0 0.0 0.0 0.0 0.0 0.0 0.0 0.0 0.0 0.0 0.0
0.3 0.0 1.8 0.7 20.6 15.0 10.7 6.0 6.4 7.7 7.0 11.7 13.6 10.9 11.0 9.7 8.5 7.5 5.8 9.0 11.6 4.7 1.3 0.6 0.6 0.8 0.4 0.4 0.3 0.8 0.0 0.4 0.0 0.0 0.0 0.0 0.0 0.0 0.0 0.0 0.0 0.0 0.1 0.0 0.0 0.0 0.0 0.0 0.0 0.0 0.0 0.0 0.0 0.0
0.0 0.8 12.5 19.0 23.7 11.9 15.8 7.5 8.3 10.7 11.0 14.0 13.0 12.2 13.8 11.6 11.8 9.3 14.5 9.5 6.3 3.2 2.0 1.7 1.4 1.7 1.6 1.0 0.6 0.2 0.1 0.0 0.0 0.2 0.1 0.0 0.0 0.0 0.0 0.0 0.0 0.0 0.1 0.0 0.0 0.0 0.0 0.0 0.0 0.0 0.0 0.0 0.0 0.0
0.0 19.9 27.2 21.1 12.2 12.0 8.0 9.4 5.7 6.2 10.5 11.2 11.1 10.1 8.5 10.3 11.9 12.7 9.9 3.9 3.2 3.4 2.8 3.6 2.9 1.4 1.8 1.8 2.0 1.4 0.9 0.4 0.1 0.1 0.7 0.5 0.1 0.0 0.0 0.0 0.0 0.0 0.0 0.0 0.0 0.0 0.0 0.0 0.0 0.0 0.0 0.0 0.0 0.0
24.2 30.1 18.1 15.1 6.2 2.7 2.5 4.9 6.4 5.4 5.2 7.4 8.2 9.0 8.0 8.6 11.5 8.5 4.3 3.2 4.9 6.5 5.3 3.9 2.9 2.4 1.9 1.8 1.6 1.9 1.7 2.2 1.8 0.6 0.3 1.2 0.8 0.8 0.2 0.6 0.3 0.1 0.0 0.0 0.0 0.0 0.0 0.0 0.0 0.0 0.0 0.0 0.0 0.2
18.9 12.5 8.1 3.3 1.3 0.1 0.8 1.9 3.4 4.3 4.9 7.0 7.5 6.8 8.1 8.8 6.7 5.8 3.4 3.8 5.8 7.2 7.2 6.1 4.1 2.3 2.6 2.7 3.6 3.7 3.0 2.5 2.0 1.5 2.3 2.3 1.6 2.0 1.5 1.2 1.2 0.8 0.0 0.3 0.3 0.4 0.4 0.3 0.2 0.2 0.3 0.0 0.7 1.1
9.8 3.3 0.8 0.0 0.0 0.1 0.3 0.9 1.2 1.7 4.1 4.0 3.2 3.3 4.1 6.9 5.2 2.6 2.2 4.0 6.1 7.0 7.5 7.4 6.4 4.1 3.6 4.4 4.7 4.5 4.4 3.9 3.7 1.6 3.3 3.8 3.3 2.0 1.4 1.5 0.8 0.4 0.3 1.6 1.2 1.1 1.3 1.4 1.3 1.4 2.0 2.3 2.3 2.2
1.9 0.1 0.0 0.0 0.0 0.3 0.5 0.7 0.9 1.0 1.4 0.9 2.3 2.8 2.8 2.4 1.2 1.4 2.6 3.7 6.3 7.5 8.5 8.5 7.8 6.2 5.9 5.6 5.3 6.8 7.6 7.4 6.9 5.9 4.8 5.1 5.1 4.5 3.6 3.8 3.1 2.7 2.5 2.7 2.9 2.9 2.7 2.9 2.9 2.8 3.3 3.2 2.7 2.8
0.2 0.0 0.0 0.9 1.3 1.8 1.7 1.2 0.6 0.4 0.1 0.2 0.3 0.8 0.5 0.6 1.0 1.6 2.5 4.3 6.2 7.5 8.9 9.7 10.3 9.0 9.0 8.6 8.3 7.6 6.5 6.6 6.1 5.0 3.2 3.2 3.9 4.8 5.6 5.3 4.9 5.7 4.9 4.1 3.0 3.1 3.0 3.3 3.8 4.2 4.1 3.8 3.5 3.7
0.8 0.9 1.0 2.3 1.9 1.2 1.0 0.3 0.2 0.1 0.2 0.3 0.4 0.3 0.1 0.4 1.1 1.7 2.4 3.4 5.4 7.7 10.0 10.9 10.9 10.6 9.7 8.8 9.2 9.5 9.1 8.0 6.5 4.5 3.6 3.1 2.6 4.6 5.7 5.9 5.8 4.6 5.0 5.2 4.6 4.5 3.4 4.3 4.2 4.9 4.8 4.8 4.8 4.6
1.7 1.6 1.6 1.7 1.2 0.9 1.1 1.8 2.0 1.6 1.2 0.9 0.7 0.8 0.7 0.1 0.7 1.3 2.1 3.1 4.1 6.2 8.5 10.2 12.0 12.0 10.4 9.7 9.2 8.4 8.3 8.0 7.4 6.5 5.7 5.5 5.4 5.5 6.3 6.4 5.9 6.2 6.1 5.9 4.7 4.8 4.2 3.1 2.5 2.9 3.1 3.4 3.9 3.4
2.6 1.4 0.7 0.6 0.8 2.8 2.6 2.1 1.8 1.3 1.2 1.0 0.8 0.5 0.5 0.4 0.4 0.6 1.1 1.8 2.9 5.0 6.9 8.9 9.5 10.4 10.0 8.7 7.6 6.9 6.2 6.3 5.7 6.2 5.8 5.0 4.7 5.1 5.5 5.5 6.0 6.1 6.5 7.1 6.5 6.2 6.1 5.3 6.2 5.8 5.7 5.8 5.6 5.1
3.7 2.6 1.3 1.7 2.5 2.1 2.6 1.5 1.2 1.6 1.5 1.3 0.8 0.5 0.3 0.5 0.5 0.2 0.6 1.4 2.4 3.9 5.8 6.7 8.3 9.2 9.0 8.3 7.5 7.1 6.9 8.0 7.6 6.9 7.1 6.6 6.0 5.9 6.1 6.1 5.8 6.4 6.7 6.8 7.1 7.7 8.3 8.0 7.6 6.8 6.7 6.6 6.6 6.5

GFSWCAN_prec_kuchsnow_123.txt.gz
Snowfall_Accumulation
0.0 0.0 0.0 0.0 0.0 0.0 0.0 0.0 0.0 0.0 0.0 0.0 0.0 0.0 0.0 0.0 0.0 0.0 0.0 0.0 0.0 0.0 0.0 0.0 0.0 0.0 0.0 0.0 0.0 0.0 0.0 0.0 0.0 1.6 1.4 1.2 0.3 0.0 0.3 0.0 0.1 0.2 1.2 1.5 1.4 2.6 0.4 0.0 0.0 0.0 0.0 0.0 0.0 0.0
0.0 0.0 0.0 0.0 0.0 0.0 0.0 0.0 0.0 0.0 0.0 0.0 0.0 0.0 0.0 0.0 0.0 0.0 0.0 0.0 0.0 0.0 0.0 0.0 0.0 0.0 0.0 0.0 0.0 0.0 0.0 0.2 0.9 1.5 3.3 3.0 2.9 2.4 0.8 0.7 0.0 0.2 0.0 0.2 0.3 0.0 0.0 0.0 0.0 0.0 0.0 0.0 0.0 0.0
0.0 0.0 0.0 0.0 0.0 0.0 0.0 0.0 0.0 0.0 0.0 0.0 0.0 0.0 0.0 0.0 0.0 0.0 0.0 0.0 0.0 0.0 0.0 0.0 0.0 0.0 0.0 0.0 0.0 0.1 0.0 0.0 0.0 1.6 1.5 0.2 1.9 1.1 0.6 1.0 0.4 0.1 0.1 0.0 0.0 0.0 0.0 0.0 0.0 0.0 0.0 0.0 0.0 0.0
0.0 0.0 0.0 0.0 0.0 0.0 0.0 0.0 0.0 0.0 0.0 0.0 0.0 0.0 0.0 0.0 0.0 0.0 0.0 0.0 0.0 0.0 1.8 0.0 0.0 0.0 0.0 0.0 0.0 0.0 0.0 0.0 0.0 0.9 2.4 1.2 0.1 0.4 0.1 0.2 0.1 0.0 0.0 0.1 0.0 0.0 0.0 0.0 0.0 0.0 0.0 0.0 0.0 0.0
0.0 0.0 0.0 0.0 0.0 0.0 0.0 0.0 0.0 0.0 0.0 0.0 0.0 0.0 0.0 0.0 0.0 0.0 0.0 0.0 0.0 0.4 2.2 0.4 0.0 0.0 0.0 0.0 0.0 0.0 0.0 0.0 0.1 1.1 0.8 1.8 0.3 0.7 0.0 0.0 0.0 0.0 0.0 0.0 0.0 0.0 0.0 0.0 0.0 0.0 0.0 0.0 0.0 0.0
0.0 0.0 0.0 0.0 0.0 0.0 0.0 0.0 0.0 0.0 0.0 0.0 0.0 0.0 0.0 0.0 0.0 0.0 0.0 0.0 0.0 0.0 2.7 2.4 0.0 0.0 0.0 0.0 0.0 0.0 0.0 0.0 0.1 0.3 0.7 0.0 0.0 1.3 1.2 0.6 0.0 0.0 0.0 0.0 0.0 0.0 0.0 0.0 0.0 0.0 0.0 0.0 0.0 0.0
0.0 0.0 0.0 0.0 0.0 0.0 0.0 0.0 0.0 0.0 0.0 0.0 0.0 0.0 0.0 0.0 0.0 0.0 0.0 0.0 0.0 0.0 1.5 5.5 2.7 0.0 0.0 0.0 0.0 0.0 0.0 0.1 0.3 0.5 1.3 0.5 0.0 1.2 2.4 0.1 0.0 0.0 0.0 0.0 0.0 0.0 0.0 0.0 0.0 0.0 0.0 0.0 0.0 0.0
0.0 0.0 0.0 0.0 0.0 0.0 0.0 0.0 0.0 0.0 0.0 0.0 0.0 0.0 0.0 0.0 0.0 0.0 0.0 0.0 0.0 0.0 1.2 4.9 1.7 1.0 0.0 0.1 0.1 0.0 0.2 0.6 0.8 0.6 0.3 0.0 0.1 0.3 1.0 0.0 0.0 0.0 0.0 0.0 0.0 0.0 0.0 0.0 0.0 0.0 0.0 0.0 0.0 0.0
0.0 0.0 0.0 0.0 0.0 0.0 0.0 0.0 0.0 0.0 0.0 0.0 0.0 0.0 0.0 0.0 0.0 0.0 0.0 0.0 0.0 0.0 2.5 2.5 2.9 4.9 0.0 0.0 0.1 0.2 0.4 4.0 0.0 1.4 0.5 0.5 0.0 2.6 0.0 0.0 0.0 0.0 0.1 0.0 0.0 0.0 0.0 0.0 0.0 0.0 0.0 0.0 0.0 0.0
0.0 0.0 0.0 0.0 0.0 0.0 0.0 0.0 0.0 0.0 0.0 0.0 0.0 0.0 8.0 0.0 0.0 0.0 0.0 1.2 1.8 1.6 1.2 1.9 0.3 1.7 0.0 0.0 1.8 0.4 0.6 2.2 5.3 0.0 0.0 0.9 0.4 0.0 0.0 0.0 0.1 0.0 0.0 0.0 0.0 0.0 0.0 0.0 0.0 0.0 0.0 0.0 0.0 0.0
0.0 0.0 0.0 0.0 0.0 0.0 0.0 0.0 0.0 0.0 0.0 0.0 7.2 5.3 0.0 0.0 0.0 0.0 6.1 5.6 2.5 3.6 0.7 0.2 0.1 1.3 0.0 3.1 3.6 1.5 5.4 2.8 9.1 3.2 2.3 4.0 2.9 1.4 0.3 0.2 0.0 0.0 0.0 0.0 0.0 0.0 0.0 0.0 0.0 0.0 0.0 0.0 0.0 0.0
0.0 0.0 0.0 0.0 0.0 0.0 0.0 0.0 0.0 0.0 3.0 0.0 0.0 0.0 0.0 1.3 8.1 10.3 8.4 2.1 1.4 0.0 0.0 0.6 1.3 1.4 0.6 0.5 2.0 0.7 4.2 4.0 4.5 0.9 3.6 4.3 3.1 2.1 0.9 0.1 0.0 0.0 0.0 0.0 0.0 0.0 0.0 0.0 0.0 0.0 0.0 0.0 0.0 0.0
0.0 0.0 0.0 0.0 0.0 0.0 0.0 0.0 0.0 0.0 0.0 0.0 5.1 19.0 15.6 14.6 17.0 7.8 4.5 1.3 0.2 0.0 0.0 1.4 2.0 0.0 0.5 1.5 1.4 1.4 1.7 2.2 0.9 2.6 1.7 1.9 0.7 0.7 1.4 0.7 0.1 0.0 0.7 1.2 0.5 0.2 0.0 0.0 0.0 0.0 0.1 1.0 0.6 1.3
0.0 0.0 0.0 0.0 0.0 0.0 0.0 0.0 0.0 0.0 2.7 13.3 28.9 37.2 15.2 11.4 1.3 0.8 0.4 0.0 0.0 0.0 0.0 0.3 0.8 1.3 0.0 1.9 1.6 2.5 0.5 0.9 2.2 0.9 0.1 0.0 0.0 0.1 0.2 0.6 0.6 0.6 0.1 0.2 0.4 0.5 0.2 0.4 0.6 0.4 0.7 0.3 0.3 0.3
0.0 0.0 0.0 0.0 0.0 0.0 0.0 0.0 0.0 0.0 3.6 29.3 18.4 17.1 7.2 0.9 0.2 0.1 0.3 0.1 0.0 0.0 0.0 0.0 0.0 0.5 1.7 2.8 1.7 0.9 1.9 0.9 0.7 0.6 0.0 0.0 0.1 0.1 0.1 0.6 2.5 1.8 1.0 0.4 0.2 0.1 0.5 0.6 0.5 0.2 0.0 0.0 0.0 0.0
0.0 0.0 0.0 0.0 0.0 0.0 0.0 0.0 0.0 0.0 22.8 26.1 16.2 8.0 0.4 0.1 0.6 0.2 0.1 0.1 0.0 0.0 0.0 0.0 2.1 2.1 1.9 1.6 1.8 1.0 1.5 0.8 0.7 0.3 0.0 0.0 0.0 0.2 0.4 1.4 1.9 0.7 0.8 1.1 0.8 0.0 0.0 0.0 0.0 0.0 0.0 0.0 0.0 0.0
0.0 0.0 0.0 0.0 0.0 0.0 0.0 2.1 4.4 35.1 38.7 30.5 12.0 1.3 0.3 0.7 0.3 0.3 0.2 0.1 0.0 0.3 1.7 2.9 3.3 2.1 0.4 1.1 0.3 0.1 0.2 0.3 0.0 0.1 0.0 0.0 0.0 0.0 0.5 0.9 1.7 0.8 1.1 1.6 1.2 0.3 0.0 0.0 0.0 0.0 0.0 0.0 0.0 0.0
0.0 0.0 0.0 0.0 0.0 0.0 1.3 13.9 27.5 36.4 37.2 14.8 3.1 1.2 1.5 0.9 0.4 0.2 0.2 0.5 1.1 1.8 2.1 4.1 1.4 1.3 0.6 0.6 0.2 0.0 0.0 0.0 0.0 0.0 0.0 0.0 0.0 0.0 0.0 0.6 1.3 1.5 1.5 1.2 0.7 0.0 0.3 0.1 0.1 0.1 0.2 0.2 0.2 0.3
0.0 0.0 0.0 0.0 0.0 1.5 38.2 42.2 26.1 26.5 15.1 5.2 3.3 3.4 2.1 0.7 0.0 0.0 0.0 0.4 0.9 1.8 3.4 4.8 4.2 1.1 0.0 0.2 0.2 0.0 0.0 0.0 0.1 0.0 0.0 0.0 0.0 0.0 0.0 0.0 0.0 0.0 0.5 0.6 0.6 0.4 0.2 0.1 0.1 0.2 0.3 0.5 0.6 0.7
0.0 0.0 0.0 0.0 0.0 13.4 24.0 30.8 12.8 10.8 8.2 6.7 5.4 6.0 3.7 1.7 0.4 0.3 0.1 0.1 0.5 3.3 5.3 3.9 0.5 0.1 0.0 0.1 0.2 0.2 0.0 0.0 0.0 0.0 0.0 0.0 0.0 0.0 0.0 0.0 0.0 0.0 0.0 0.0 0.0 0.0 0.0 0.0 0.0 0.0 0.0 0.0 0.0 0.0
0.0 0.0 0.0 0.0 9.8 18.2 14.7 14.0 11.8 9.7 8.9 9.5 10.9 7.7 8.0 3.7 2.7 1.7 3.2 1.1 6.3 7.3 3.7 1.2 0.1 0.0 0.2 0.1 0.0 0.0 0.1 0.0 0.0 0.0 0.0 0.0 0.0 0.0 0.0 0.0 0.0 0.0 0.1 0.0 0.0 0.0 0.0 0.0 0.0 0.0 0.0 0.0 0.0 0.0
0.3 0.0 1.8 0.7 26.4 19.4 13.0 6.9 6.7 8.2 7.4 12.0 13.6 10.9 11.1 9.7 8.7 7.7 6.0 9.8 12.2 4.7 1.3 0.6 0.6 0.8 0.4 0.4 0.3 0.8 0.0 0.4 0.0 0.0 0.0 0.0 0.0 0.0 0.0 0.0 0.0 0.0 0.1 0.0 0.0 0.0 0.0 0.0 0.0 0.0 0.0 0.0 0.0 0.0
0.0 0.8 15.1 22.5 27.9 14.5 17.9 8.2 8.4 10.9 11.4 14.9 13.5 13.0 14.8 12.4 12.5 9.9 16.1 10.4 6.4 3.2 2.0 1.7 1.4 1.7 1.6 1.0 0.6 0.2 0.1 0.0 0.0 0.2 0.1 0.0 0.0 0.0 0.0 0.0 0.0 0.0 0.1 0.0 0.0 0.4 0.2 0.0 0.0 0.0 0.0 0.0 0.0 0.0
0.0 22.7 31.0 24.6 13.9 12.8 8.9 10.3 6.1 6.4 11.0 12.1 12.0 10.9 9.1 10.7 12.6 13.9 10.8 4.0 3.2 3.4 2.8 3.6 2.9 1.4 1.8 1.8 2.0 1.4 0.9 0.4 0.1 0.1 0.7 0.5 0.1 0.0 0.0 0.0 0.0 0.0 0.0 0.0 0.5 0.5 0.1 0.0 0.0 0.0 0.0 0.0 0.0 0.0
27.0 33.2 20.0 16.8 6.8 3.0 2.7 5.2 6.7 5.5 5.6 7.9 8.6 9.6 8.5 8.8 11.9 8.8 4.4 3.2 4.9 6.5 5.3 3.9 2.9 2.4 1.9 1.8 1.6 1.9 1.7 2.2 1.8 0.6 0.3 1.2 0.8 0.8 0.2 0.6 0.3 0.1 0.2 0.4 0.4 0.2 0.0 0.0 0.0 0.0 0.0 0.0 0.0 0.2
20.4 13.8 8.7 3.3 1.4 0.1 0.8 1.9 3.4 4.3 4.9 7.0 7.9 7.3 8.3 8.8 6.7 5.8 3.4 3.8 5.8 7.2 7.2 6.1 4.1 2.3 2.6 2.7 3.6 3.7 3.0 2.5 2.0 1.5 2.3 2.3 1.6 2.0 1.5 1.2 1.2 2.1 0.7 0.6 0.4 0.4 0.4 0.3 0.2 0.2 0.3 0.0 0.7 1.1
10.2 3.5 1.0 0.0 0.0 0.1 0.3 0.9 1.2 1.7 4.1 4.0 3.5 3.5 4.1 6.9 5.2 2.6 2.2 4.0 6.1 7.0 7.5 7.4 6.4 4.1 3.6 4.4 4.7 4.5 4.4 3.9 3.7 1.6 3.3 3.8 3.3 2.0 1.4 1.5 0.8 0.9 0.9 1.8 1.3 1.1 1.3 1.4 1.3 1.4 2.0 2.3 2.3 2.2
1.9 0.1 0.0 0.0 0.0 0.3 0.5 0.7 0.9 1.0 1.4 0.9 2.3 2.8 2.8 2.4 1.2 1.4 2.6 3.7 6.3 7.5 8.5 8.5 7.8 6.2 5.9 5.6 5.3 6.8 7.6 7.4 6.9 5.9 4.8 5.1 5.1 4.5 3.6 4.1 3.6 3.2 3.0 2.8 2.9 2.9 2.7 2.9 2.9 3.0 3.3 3.2 2.7 2.8
0.2 0.0 0.0 0.9 1.3 1.8 1.7 1.2 0.6 0.4 0.1 0.2 0.3 0.8 0.5 0.6 1.0 1.6 2.5 4.3 6.2 7.5 8.9 9.7 10.3 9.0 9.0 8.6 8.3 7.6 6.5 6.6 6.4 5.8 3.2 3.7 4.4 5.4 6.2 5.7 5.5 6.2 5.1 4.1 3.0 3.1 3.0 3.6 4.0 4.2 4.1 3.8 3.5 3.7
0.8 0.9 1.0 2.3 1.9 1.2 1.0 0.3 0.2 0.1 0.2 0.3 0.4 0.3 0.1 0.4 1.1 1.7 2.4 3.4 5.4 7.7 10.0 10.9 10.9 10.6 9.7 8.8 9.8 10.6 10.4 8.9 6.8 4.5 3.6 3.1 2.6 4.6 6.1 6.3 6.2 5.0 5.4 5.5 5.1 5.2 3.8 4.4 4.2 4.9 4.8 4.8 4.8 4.6
1.7 1.6 1.6 1.7 1.2 0.9 1.1 1.8 2.0 1.6 1.2 0.9 0.7 0.8 0.7 0.1 0.7 1.3 2.1 3.1 4.1 6.2 8.5 10.2 12.0 12.0 10.4 9.7 9.7 9.0 9.1 8.9 8.3 7.1 6.2 6.0 6.0 6.2 7.0 6.8 6.2 6.4 6.4 6.2 5.0 5.0 4.3 3.1 2.5 2.9 3.1 3.4 3.9 3.4
2.6 1.4 0.7 0.6 0.8 2.8 2.6 2.1 1.8 1.3 1.2 1.0 0.8 0.5 0.5 0.4 0.4 0.6 1.1 1.8 2.9 5.0 6.9 8.9 9.5 10.4 10.0 8.7 7.6 7.7 6.2 7.0 6.6 7.1 6.8 5.9 5.4 5.7 6.0 6.0 6.5 6.5 6.9 7.5 6.6 6.2 6.1 5.3 6.2 5.8 5.7 5.8 5.6 5.1
3.7 2.6 1.3 1.7 2.5 2.1 2.6 1.5 1.2 1.6 1.5 1.3 0.8 0.5 0.3 0.5 0.5 0.2 0.6 1.4 2.4 3.9 5.8 6.7 8.3 9.2 9.0 8.3 7.5 7.8 6.9 9.4 8.7 7.8 7.9 7.2 6.3 6.2 6.5 6.6 6.3 6.8 6.9 6.8 7.1 7.7 8.3 8.0 7.6 6.8 6.7 6.6 6.6 6.5

GFSWCAN_prec_kuchsnow_126.txt.gz
Snowfall_Accumulation
0.0 0.0 0.0 0.0 0.0 0.0 0.0 0.0 0.0 0.0 0.0 0.0 0.0 0.0 0.0 0.0 0.0 0.0 0.0 0.0 0.0 0.0 0.0 0.0 0.0 0.0 0.0 0.0 0.0 0.0 0.0 0.0 0.0 1.6 1.4 1.2 0.3 0.0 0.3 0.0 0.1 0.2 1.2 1.5 1.4 2.6 0.4 0.0 0.0 0.0 0.0 0.0 0.0 0.0
0.0 0.0 0.0 0.0 0.0 0.0 0.0 0.0 0.0 0.0 0.0 0.0 0.0 0.0 0.0 0.0 0.0 0.0 0.0 0.0 0.0 0.0 0.0 0.0 0.0 0.0 0.0 0.0 0.0 0.0 0.0 0.2 0.9 1.5 3.3 3.0 2.9 2.4 0.8 0.7 0.0 0.2 0.0 0.2 0.3 0.0 0.0 0.0 0.0 0.0 0.0 0.0 0.0 0.0
0.0 0.0 0.0 0.0 0.0 0.0 0.0 0.0 0.0 0.0 0.0 0.0 0.0 0.0 0.0 0.0 0.0 0.0 0.0 0.0 0.0 0.0 0.0 0.0 0.0 0.0 0.0 0.0 0.0 0.1 0.0 0.0 0.0 1.6 1.5 0.2 1.9 1.1 0.6 1.0 0.4 0.1 0.1 0.0 0.0 0.0 0.0 0.0 0.0 0.0 0.0 0.0 0.0 0.0
0.0 0.0 0.0 0.0 0.0 0.0 0.0 0.0 0.0 0.0 0.0 0.0 0.0 0.0 0.0 0.0 0.0 0.0 0.0 0.0 0.0 0.0 1.8 0.0 0.0 0.0 0.0 0.0 0.0 0.0 0.0 0.0 0.0 0.9 2.4 1.2 0.1 0.4 0.1 0.2 0.1 0.0 0.0 0.1 0.0 0.0 0.0 0.0 0.0 0.0 0.0 0.0 0.0 0.0
0.0 0.0 0.0 0.0 0.0 0.0 0.0 0.0 0.0 0.0 0.0 0.0 0.0 0.0 0.0 0.0 0.0 0.0 0.0 0.0 0.0 0.4 2.2 0.4 0.0 0.0 0.0 0.0 0.0 0.0 0.0 0.0 0.1 1.1 0.8 1.8 0.3 0.7 0.0 0.0 0.0 0.0 0.0 0.0 0.0 0.0 0.0 0.0 0.0 0.0 0.0 0.0 0.0 0.0
0.0 0.0 0.0 0.0 0.0 0.0 0.0 0.0 0.0 0.0 0.0 0.0 0.0 0.0 0.0 0.0 0.0 0.0 0.0 0.0 0.0 0.0 2.7 2.4 0.0 0.0 0.0 0.0 0.0 0.0 0.0 0.0 0.1 0.3 0.7 0.0 0.0 1.3 1.2 0.6 0.0 0.0 0.0 0.0 0.0 0.0 0.0 0.0 0.0 0.0 0.0 0.0 0.0 0.0
0.0 0.0 0.0 0.0 0.0 0.0 0.0 0.0 0.0 0.0 0.0 0.0 0.0 0.0 0.0 0.0 0.0 0.0 0.0 0.0 0.0 0.0 1.5 5.5 2.7 0.0 0.0 0.0 0.0 0.0 0.0 0.1 0.3 0.5 1.3 0.5 0.0 1.2 2.4 0.1 0.0 0.0 0.0 0.0 0.0 0.0 0.0 0.0 0.0 0.0 0.0 0.0 0.0 0.0
0.0 0.0 0.0 0.0 0.0 0.0 0.0 0.0 0.0 0.0 0.0 0.0 0.0 0.0 0.0 0.0 0.0 0.0 0.0 0.0 0.0 0.0 1.2 4.9 1.7 1.0 0.0 0.1 0.1 0.0 0.2 0.6 0.8 0.6 0.3 0.0 0.1 0.3 1.0 0.0 0.0 0.0 0.0 0.0 0.0 0.0 0.0 0.0 0.0 0.0 0.0 0.0 0.0 0.0
0.0 0.0 0.0 0.0 0.0 0.0 0.0 0.0 0.0 0.0 0.0 0.0 0.0 0.0 0.0 0.0 0.0 0.0 0.0 0.0 0.0 0.0 2.9 2.6 2.9 4.9 0.0 0.0 0.1 0.2 0.4 4.0 0.0 1.4 0.5 0.5 0.0 2.6 0.0 0.0 0.0 0.0 0.1 0.0 0.0 0.0 0.0 0.0 0.0 0.0 0.0 0.0 0.0 0.0
0.0 0.0 0.0 0.0 0.0 0.0 0.0 0.0 0.0 0.0 0.0 0.0 0.0 0.0 14.2 0.0 0.0 0.0 0.0 1.2 1.8 1.6 1.2 2.1 0.3 1.7 0.0 0.0 1.8 0.4 0.6 2.2 5.3 0.0 0.0 0.9 0.4 0.0 0.0 0.0 0.1 0.0 0.0 0.0 0.0 0.0 0.0 0.0 0.0 0.0 0.0 0.0 0.0 0.0
0.0 0.0 0.0 0.0 0.0 0.0 0.0 0.0 0.0 0.0 0.0 0.0 7.2 9.7 0.0 0.0 0.0 0.0 9.5 8.6 3.7 4.1 0.8 0.3 0.1 1.3 0.0 3.1 3.6 1.6 5.4 2.8 9.1 3.2 2.3 4.0 2.9 1.4 0.3 0.2 0.0 0.0 0.0 0.0 0.0 0.0 0.0 0.0 0.0 0.0 0.0 0.0 0.0 0.0
0.0 0.0 0.0 0.0 0.0 0.0 0.0 0.0 0.0 0.0 3.0 0.0 0.0 0.0 0.0 3.2 11.0 14.2 11.7 3.2 1.9 0.0 0.0 0.6 1.3 1.4 0.6 0.5 2.3 1.2 4.5 4.1 4.5 0.9 3.6 4.3 3.1 2.1 0.9 0.1 0.0 0.0 0.0 0.0 0.0 0.0 0.0 0.0 0.0 0.0 0.0 0.0 0.0 0.0
0.0 0.0 0.0 0.0 0.0 0.0 0.0 0.0 0.0 0.0 0.0 0.0 8.5 25.6 21.9 19.4 21.7 11.0 6.0 1.7 0.2 0.0 0.1 1.4 2.0 0.0 0.5 1.7 2.3 2.2 1.9 2.2 0.9 2.6 1.7 1.9 0.7 0.7 1.4 0.7 0.1 0.0 0.7 1.2 0.5 0.2 0.0 0.0 0.0 0.0 0.1 1.0 0.6 1.3
0.0 0.0 0.0 0.0 0.0 0.0 0.0 0.0 0.0 0.0 2.7 17.6 36.1 46.2 21.4 16.9 3.5 1.1 0.4 0.0 0.0 0.0 0.0 0.3 0.8 1.3 0.4 2.6 2.6 3.2 0.6 0.9 2.2 0.9 0.1 0.0 0.0 0.1 0.2 0.6 0.6 0.6 0.1 0.2 0.4 0.5 0.2 0.4 0.6 0.4 0.7 0.3 0.3 0.3
0.0 0.0 0.0 0.0 0.0 0.0 0.0 0.0 0.0 0.0 3.6 34.3 24.1 23.8 11.7 2.1 0.4 0.1 0.3 0.1 0.0 0.0 0.0 0.0 0.1 0.8 2.2 3.9 2.5 1.2 2.1 0.9 0.7 0.6 0.0 0.0 0.1 0.1 0.1 0.6 2.5 1.8 1.0 0.4 0.2 0.1 0.5 0.6 0.5 0.2 0.0 0.0 0.0 0.0
0.0 0.0 0.0 0.0 0.0 0.0 0.0 0.0 0.0 0.0 27.1 30.5 21.4 12.5 1.8 0.1 0.6 0.2 0.1 0.1 0.0 0.0 0.0 0.0 2.5 3.3 2.9 2.0 2.2 1.1 1.5 0.8 0.7 0.3 0.0 0.0 0.0 0.2 0.4 1.4 1.9 0.7 0.8 1.1 0.8 0.0 0.0 0.0 0.0 0.0 0.0 0.0 0.0 0.0
0.0 0.0 0.0 0.0 0.0 0.0 0.0 2.1 4.4 35.1 45.8 37.6 17.3 3.3 0.6 0.7 0.3 0.3 0.2 0.1 0.0 0.3 1.7 2.9 4.1 2.6 0.9 1.5 0.4 0.1 0.2 0.3 0.0 0.1 0.0 0.0 0.0 0.0 0.5 0.9 1.7 0.8 1.1 1.6 1.2 0.3 0.0 0.0 0.0 0.0 0.0 0.0 0.0 0.0
0.0 0.0 0.0 0.0 0.0 0.0 1.3 13.9 27.5 43.2 44.4 18.7 5.3 1.8 1.5 0.9 0.4 0.2 0.2 0.5 1.1 1.8 2.1 4.1 1.6 2.1 1.0 0.8 0.2 0.0 0.0 0.0 0.0 0.0 0.0 0.0 0.0 0.0 0.0 0.6 1.3 1.5 1.5 1.2 0.7 0.0 0.3 0.1 0.1 0.1 0.2 0.2 0.2 0.3
0.0 0.0 0.0 0.0 0.0 1.5 43.0 47.1 30.8 32.6 19.0 6.5 3.6 3.4 2.1 0.7 0.0 0.0 0.0 0.4 0.9 1.8 3.4 4.8 5.8 1.9 0.0 0.2 0.2 0.0 0.0 0.0 0.1 0.0 0.0 0.0 0.0 0.0 0.0 0.0 0.0 0.0 0.5 0.6 0.6 0.4 0.2 0.1 0.1 0.2 0.3 0.5 0.6 0.7
0.0 0.0 0.0 0.0 0.0 19.3 30.7 35.6 16.0 13.1 9.3 7.1 5.5 6.0 3.7 1.7 0.4 0.3 0.1 0.1 0.5 3.6 6.4 5.4 0.5 0.1 0.0 0.1 0.2 0.2 0.0 0.0 0.0 0.0 0.0 0.0 0.0 0.0 0.0 0.0 0.0 0.0 0.0 0.0 0.0 0.0 0.0 0.0 0.0 0.0 0.0 0.0 0.0 0.0
0.0 0.0 0.0 0.0 9.8 22.9 19.3 17.2 13.9 10.7 9.3 9.6 10.9 7.7 8.0 3.7 2.7 1.7 3.2 1.1 7.0 8.4 4.4 1.2 0.1 0.0 0.2 0.1 0.0 0.0 0.1 0.0 0.0 0.0 0.0 0.0 0.0 0.0 0.0 0.0 0.0 0.0 0.1 0.0 0.0 0.0 0.0 0.0 0.0 0.0 0.0 0.0 0.0 0.0
0.3 0.0 1.8 0.7 31.1 23.6 16.0 8.2 7.2 8.5 7.6 12.1 13.6 10.9 11.5 10.0 9.2 8.2 6.3 10.8 13.0 4.7 1.3 0.6 0.6 0.8 0.4 0.4 0.3 0.8 0.0 0.4 0.0 0.0 0.0 0.0 0.0 0.0 0.0 0.0 0.0 0.0 0.1 0.0 0.0 0.0 0.0 0.0 0.0 0.0 0.0 0.0 0.0 0.0
0.0 0.8 18.2 26.3 33.3 17.7 20.0 9.0 8.8 11.3 11.8 15.8 14.0 14.0 16.0 13.3 13.1 10.2 17.5 11.3 6.4 3.2 2.0 1.7 1.4 1.7 1.6 1.0 0.6 0.2 0.1 0.0 0.0 0.2 0.1 0.0 0.0 0.0 0.0 0.0 0.0 0.0 0.1 0.0 0.0 0.4 0.2 0.0 0.0 0.0 0.0 0.0 0.0 0.0
0.0 26.0 36.0 29.3 17.0 14.2 9.9 11.1 6.5 6.7 11.7 13.2 13.3 12.6 10.2 11.5 13.3 14.7 11.5 4.0 3.2 3.4 2.8 3.6 2.9 1.4 1.8 1.8 2.0 1.4 0.9 0.4 0.1 0.1 0.7 0.5 0.1 0.0 0.0 0.0 0.0 0.0 0.0 0.0 0.5 0.5 0.1 0.0 0.0 0.4 0.3 0.1 0.0 0.0
31.7 37.4 23.5 19.7 8.1 3.5 2.9 5.5 7.1 5.8 6.2 8.7 9.3 10.3 9.1 9.2 12.2 9.2 4.5 3.2 4.9 6.5 5.3 3.9 2.9 2.4 1.9 1.8 1.6 1.9 1.7 2.2 1.8 0.6 0.3 1.2 0.8 0.8 0.2 0.6 0.3 0.1 0.2 0.4 0.4 0.2 0.0 0.7 0.5 0.5 0.3 0.1 0.0 0.2
24.2 15.7 9.9 3.7 1.6 0.1 0.8 1.9 3.4 4.3 4.9 7.1 8.1 7.5 8.5 8.8 6.7 5.8 3.4 3.8 5.8 7.2 7.2 6.1 4.1 2.3 2.6 2.7 3.6 3.7 3.0 2.5 2.0 1.5 2.3 2.3 1.6 2.0 1.5 1.2 1.2 2.1 0.7 0.6 0.4 1.9 2.0 1.5 1.1 0.8 0.6 0.0 0.7 1.1
11.6 4.0 1.3 0.0 0.0 0.1 0.3 1.0 1.2 1.7 4.2 4.2 3.8 3.7 4.2 7.1 5.2 2.6 2.2 4.0 6.1 7.0 7.5 7.4 6.4 4.1 3.6 4.4 4.7 4.5 4.4 3.9 3.7 1.6 3.3 3.8 3.3 2.0 1.4 1.5 0.8 0.9 0.9 1.8 2.3 2.3 2.4 2.4 2.1 1.8 2.1 2.3 2.3 2.2
2.0 0.1 0.0 0.0 0.0 0.3 0.5 0.7 0.9 1.0 1.4 0.9 2.3 2.8 2.8 2.4 1.2 1.4 2.6 3.7 6.3 7.5 8.5 8.5 7.8 6.2 5.9 5.6 5.3 6.8 7.6 7.4 6.9 5.9 4.8 5.1 5.1 4.5 3.6 4.1 3.6 3.2 3.0 2.8 3.7 4.0 3.6 3.4 3.1 3.0 3.3 3.2 2.7 2.9
0.2 0.0 0.0 0.9 1.3 1.8 1.7 1.2 0.6 0.4 0.1 0.2 0.3 0.8 0.5 0.6 1.0 1.6 2.5 4.3 6.2 7.5 8.9 9.7 10.3 9.0 9.0 8.6 8.3 7.6 6.5 6.6 6.4 5.8 3.2 3.7 4.4 5.4 6.2 5.7 5.5 6.2 5.1 4.7 3.4 3.4 3.2 3.7 4.0 4.2 4.3 3.9 3.5 3.7
0.9 0.9 1.0 2.3 1.9 1.2 1.0 0.3 0.2 0.1 0.2 0.3 0.4 0.3 0.1 0.4 1.1 1.7 2.4 3.4 5.4 7.7 10.0 10.9 10.9 10.6 9.7 8.8 9.8 10.6 10.4 9.0 6.8 4.5 3.6 3.1 2.6 4.6 6.1 6.4 6.6 5.0 5.4 5.5 5.5 5.8 4.3 5.2 4.8 5.3 4.9 4.8 4.8 4.6
1.7 1.6 1.6 1.7 1.2 0.9 1.1 1.9 2.0 1.6 1.2 0.9 0.7 0.8 0.7 0.1 0.7 1.3 2.1 3.1 4.1 6.2 8.5 10.2 12.0 12.0 10.4 9.7 9.7 9.0 9.2 9.1 8.6 7.4 6.2 6.1 6.2 6.3 7.0 6.8 6.2 6.9 6.7 6.3 5.0 5.2 4.6 3.4 2.7 3.0 3.1 3.4 3.9 3.4
2.6 1.4 0.7 0.6 0.8 2.8 2.6 2.1 1.8 1.3 1.2 1.0 0.8 0.5 0.5 0.4 0.4 0.6 1.1 1.8 2.9 5.0 6.9 8.9 9.5 10.4 10.0 8.7 7.6 7.7 6.2 7.0 6.7 7.2 6.8 6.4 5.8 6.1 6.4 6.5 7.2 7.0 6.9 7.8 7.1 6.6 6.2 5.3 6.2 5.8 5.7 5.8 5.6 5.1
3.7 2.6 1.3 1.7 2.5 2.1 2.6 1.5 1.2 1.6 1.5 1.3 0.8 0.5 0.3 0.5 0.5 0.2 0.6 1.4 2.4 3.9 5.8 6.7 8.3 9.2 9.0 8.3 7.5 7.8 6.9 9.4 8.7 7.8 8.2 7.6 6.6 6.6 6.9 7.1 6.9 7.6 7.7 7.4 7.4 7.8 8.3 8.0 7.6 6.8 6.7 6.6 6.6 6.5

GFSWCAN_prec_kuchsnow_129.txt.gz
Snowfall_Accumulation
0.0 0.0 0.0 0.0 0.0 0.0 0.0 0.0 0.0 0.0 0.0 0.0 0.0 0.0 0.0 0.0 0.0 0.0 0.0 0.0 0.0 0.0 0.0 0.0 0.0 0.0 0.0 0.0 0.0 0.0 0.0 0.0 0.0 1.6 1.4 1.2 0.3 0.0 0.3 0.0 0.1 0.2 1.2 1.5 1.4 2.6 0.4 0.0 0.0 0.0 0.0 0.0 0.0 0.0
0.0 0.0 0.0 0.0 0.0 0.0 0.0 0.0 0.0 0.0 0.0 0.0 0.0 0.0 0.0 0.0 0.0 0.0 0.0 0.0 0.0 0.0 0.0 0.0 0.0 0.0 0.0 0.0 0.0 0.0 0.0 0.2 0.9 1.5 3.3 3.0 2.9 2.4 0.8 0.7 0.0 0.2 0.0 0.2 0.3 0.0 0.0 0.0 0.0 0.0 0.0 0.0 0.0 0.0
0.0 0.0 0.0 0.0 0.0 0.0 0.0 0.0 0.0 0.0 0.0 0.0 0.0 0.0 0.0 0.0 0.0 0.0 0.0 0.0 0.0 0.0 0.0 0.0 0.0 0.0 0.0 0.0 0.0 0.1 0.0 0.0 0.0 1.6 1.5 0.2 1.9 1.1 0.6 1.0 0.4 0.1 0.1 0.0 0.0 0.0 0.0 0.0 0.0 0.0 0.0 0.0 0.0 0.0
0.0 0.0 0.0 0.0 0.0 0.0 0.0 0.0 0.0 0.0 0.0 0.0 0.0 0.0 0.0 0.0 0.0 0.0 0.0 0.0 0.0 0.0 1.8 0.0 0.0 0.0 0.0 0.0 0.0 0.0 0.0 0.0 0.0 0.9 2.4 1.2 0.1 0.4 0.1 0.2 0.1 0.0 0.0 0.1 0.0 0.0 0.0 0.0 0.0 0.0 0.0 0.0 0.0 0.0
0.0 0.0 0.0 0.0 0.0 0.0 0.0 0.0 0.0 0.0 0.0 0.0 0.0 0.0 0.0 0.0 0.0 0.0 0.0 0.0 0.0 0.4 2.2 0.4 0.0 0.0 0.0 0.0 0.0 0.0 0.0 0.0 0.1 1.1 0.8 1.8 0.3 0.7 0.0 0.0 0.0 0.0 0.0 0.0 0.0 0.0 0.0 0.0 0.0 0.0 0.0 0.0 0.0 0.0
0.0 0.0 0.0 0.0 0.0 0.0 0.0 0.0 0.0 0.0 0.0 0.0 0.0 0.0 0.0 0.0 0.0 0.0 0.0 0.0 0.0 0.0 2.7 2.5 0.0 0.0 0.0 0.0 0.0 0.0 0.0 0.0 0.1 0.3 0.7 0.0 0.0 1.3 1.2 0.6 0.0 0.0 0.0 0.0 0.0 0.0 0.0 0.0 0.0 0.0 0.0 0.0 0.0 0.0
0.0 0.0 0.0 0.0 0.0 0.0 0.0 0.0 0.0 0.0 0.0 0.0 0.0 0.0 0.0 0.0 0.0 0.0 0.0 0.0 0.0 0.0 1.5 5.8 2.7 0.0 0.0 0.0 0.0 0.0 0.0 0.1 0.3 0.5 1.3 0.5 0.0 1.2 2.4 0.1 0.0 0.0 0.0 0.0 0.0 0.0 0.0 0.0 0.0 0.0 0.0 0.0 0.0 0.0
0.0 0.0 0.0 0.0 0.0 0.0 0.0 0.0 0.0 0.0 0.0 0.0 0.0 0.0 0.0 0.0 0.0 0.0 0.0 0.0 0.0 0.0 1.2 5.3 1.7 1.0 0.0 0.1 0.1 0.0 0.2 0.6 0.8 0.6 0.3 0.0 0.1 0.3 1.0 0.0 0.0 0.0 0.0 0.0 0.0 0.0 0.0 0.0 0.0 0.0 0.0 0.0 0.0 0.0
0.0 0.0 0.0 0.0 0.0 0.0 0.0 0.0 0.0 0.0 0.0 0.0 0.0 0.0 0.0 0.0 0.0 0.0 0.0 0.0 0.0 0.0 3.8 2.8 2.9 4.9 0.0 0.0 0.1 0.2 0.4 4.0 0.0 1.4 0.5 0.5 0.0 2.6 0.0 0.0 0.0 0.0 0.1 0.0 0.0 0.0 0.0 0.0 0.0 0.0 0.0 0.0 0.0 0.0
0.0 0.0 0.0 0.0 0.0 0.0 0.0 0.0 0.0 0.0 0.0 0.0 0.0 0.0 14.2 0.0 0.0 0.0 0.0 1.2 1.8 1.6 1.2 2.3 0.3 1.7 0.0 0.0 1.8 0.4 0.6 2.2 5.4 0.0 0.0 0.9 0.4 0.0 0.0 0.0 0.1 0.0 0.0 0.0 0.0 0.0 0.0 0.0 0.0 0.0 0.0 0.0 0.0 0.0
0.0 0.0 0.0 0.0 0.0 0.0 0.0 0.0 0.0 0.0 0.0 0.0 7.2 9.7 0.0 0.0 0.0 0.0 14.3 13.0 6.0 5.1 0.8 0.3 0.1 1.3 0.0 3.1 3.6 1.6 5.4 2.8 9.1 3.2 2.3 4.0 2.9 1.4 0.3 0.2 0.0 0.0 0.0 0.0 0.0 0.0 0.0 0.0 0.0 0.0 0.0 0.0 0.0 0.0
0.0 0.0 0.0 0.0 0.0 0.0 0.0 0.0 0.0 0.0 3.0 0.0 0.0 0.0 0.0 7.5 15.0 20.1 16.8 5.4 2.9 0.0 0.0 0.6 1.3 1.4 0.6 0.5 2.3 1.9 5.7 5.3 4.9 0.9 3.6 4.3 3.1 2.1 0.9 0.1 0.0 0.0 0.0 0.0 0.0 0.0 0.0 0.0 0.0 0.0 0.0 0.0 0.0 0.0
0.0 0.0 0.0 0.0 0.0 0.0 0.0 0.0 0.0 0.0 0.0 0.0 9.9 29.3 27.0 24.0 27.1 16.1 9.2 2.4 0.3 0.0 0.1 1.4 2.0 0.0 0.5 1.7 2.3 4.1 4.0 3.3 1.0 2.6 1.7 1.9 0.7 0.7 1.4 0.7 0.1 0.0 0.7 1.2 0.5 0.2 0.0 0.0 0.0 0.0 0.1 1.0 0.6 1.3
0.0 0.0 0.0 0.0 0.0 0.0 0.0 0.0 0.0 0.0 2.7 19.7 39.8 51.1 25.8 21.1 5.8 2.3 0.4 0.0 0.0 0.0 0.0 0.3 0.8 1.3 0.6 3.1 4.1 5.1 1.6 1.3 2.3 0.9 0.1 0.0 0.0 0.1 0.2 0.6 0.6 0.6 0.1 0.2 0.4 0.5 0.2 0.4 0.6 0.4 0.7 0.3 0.3 0.3
0.0 0.0 0.0 0.0 0.0 0.0 0.0 0.0 0.0 0.0 3.6 37.6 28.1 27.6 14.2 2.1 0.4 0.1 0.3 0.1 0.0 0.0 0.0 0.0 0.1 0.8 2.8 5.0 3.7 1.2 3.0 0.9 0.7 0.6 0.0 0.0 0.1 0.1 0.1 0.6 2.5 1.8 1.0 0.4 0.2 0.1 0.5 0.6 0.5 0.2 0.0 0.0 0.0 0.0
0.0 0.0 0.0 0.0 0.0 0.0 0.0 0.0 0.0 0.0 27.1 33.8 24.5 15.7 3.4 0.1 0.6 0.2 0.1 0.1 0.0 0.0 0.0 0.0 2.5 4.4 4.2 2.8 2.9 1.1 1.5 0.8 0.7 0.3 0.0 0.0 0.0 0.2 0.4 1.4 1.9 0.7 0.8 1.1 0.8 0.0 0.0 0.0 0.0 0.0 0.0 0.0 0.0 0.0
0.0 0.0 0.0 0.0 0.0 0.0 0.0 2.1 4.4 35.9 47.8 41.9 20.6 3.3 0.6 0.8 0.3 0.3 0.2 0.1 0.0 0.3 1.7 2.9 4.5 3.2 1.3 2.0 0.5 0.1 0.2 0.3 0.0 0.1 0.0 0.0 0.0 0.0 0.5 0.9 1.7 0.8 1.1 1.6 1.2 0.3 0.0 0.0 0.0 0.0 0.0 0.0 0.0 0.0
0.0 0.0 0.0 0.0 0.0 0.0 1.3 13.9 28.2 44.9 46.8 18.7 5.3 1.8 1.5 0.9 0.4 0.2 0.2 0.5 1.1 1.8 2.1 4.1 1.6 2.9 1.6 1.0 0.2 0.0 0.0 0.0 0.0 0.0 0.0 0.0 0.0 0.0 0.0 0.6 1.3 1.5 1.5 1.2 0.7 0.0 0.3 0.1 0.1 0.1 0.2 0.2 0.2 0.3
0.0 0.0 0.0 0.0 0.0 1.5 43.0 47.1 30.8 34.8 19.0 6.5 3.6 3.4 2.1 0.7 0.0 0.0 0.0 0.4 0.9 1.8 3.4 4.8 5.8 3.4 0.2 0.2 0.2 0.0 0.0 0.0 0.1 0.0 0.0 0.0 0.0 0.0 0.0 0.0 0.0 0.0 0.5 0.6 0.6 0.4 0.2 0.1 0.1 0.2 0.3 0.5 0.6 0.7
0.0 0.0 0.0 0.0 0.0 20.5 33.3 37.3 17.1 14.6 10.3 7.3 5.5 6.0 3.7 1.7 0.4 0.3 0.1 0.1 0.5 3.6 6.9 6.8 1.2 0.1 0.0 0.1 0.2 0.2 0.0 0.0 0.0 0.0 0.0 0.0 0.0 0.0 0.0 0.0 0.0 0.0 0.0 0.0 0.0 0.0 0.0 0.0 0.0 0.0 0.0 0.0 0.0 0.0
0.0 0.0 0.0 0.0 9.8 23.4 20.7 18.2 14.7 11.2 9.6 9.6 10.9 7.7 8.1 3.7 2.7 1.7 3.2 1.1 7.4 9.9 5.6 1.4 0.1 0.0 0.2 0.1 0.0 0.0 0.1 0.0 0.0 0.0 0.0 0.0 0.0 0.0 0.0 0.0 0.0 0.0 0.1 0.0 0.0 0.0 0.0 0.0 0.0 0.0 0.0 0.0 0.0 0.0
0.3 0.0 1.8 0.7 31.8 24.7 17.4 8.7 7.2 8.9 7.6 12.1 13.6 10.9 12.0 10.5 9.6 8.2 6.3 11.9 14.3 5.1 1.3 0.6 0.6 0.8 0.4 0.4 0.3 0.8 0.0 0.4 0.0 0.0 0.0 0.0 0.0 0.0 0.0 0.0 0.0 0.0 0.1 0.0 0.0 0.0 0.0 0.0 0.0 0.0 0.0 0.0 0.0 0.0
0.0 0.8 19.1 27.3 35.6 20.2 20.0 9.0 8.8 11.3 12.8 16.8 14.7 14.9 17.0 14.0 13.4 10.3 18.2 11.9 6.4 3.2 2.0 1.7 1.4 1.7 1.6 1.0 0.6 0.2 0.1 0.0 0.0 0.2 0.1 0.0 0.0 0.0 0.0 0.0 0.0 0.0 0.1 0.0 0.0 0.4 0.2 0.0 0.0 0.0 0.0 0.0 0.0 0.0
0.0 27.0 37.7 31.1 19.0 16.1 11.0 12.4 7.5 7.7 12.6 14.1 14.3 13.7 11.0 12.0 13.8 15.2 11.9 4.0 3.2 3.4 2.8 3.6 2.9 1.4 1.8 1.8 2.0 1.4 0.9 0.4 0.1 0.1 0.7 0.5 0.1 0.0 0.0 0.0 0.0 0.0 0.0 0.0 0.5 0.5 0.1 0.0 0.0 0.4 0.3 0.1 0.0 0.4
33.9 37.4 25.0 21.3 9.2 4.6 3.7 6.0 7.7 6.6 6.8 9.2 9.8 10.8 9.6 9.6 12.8 9.5 4.6 3.2 4.9 6.5 5.3 3.9 2.9 2.4 1.9 1.8 1.6 1.9 1.7 2.2 1.8 0.6 0.3 1.2 0.8 0.8 0.2 0.6 0.3 0.1 0.2 0.4 0.4 0.2 0.0 0.7 0.5 0.5 0.3 0.8 0.8 1.2
28.1 15.7 11.1 4.1 1.6 0.1 0.8 2.1 3.7 4.6 5.1 7.2 8.1 7.5 8.7 9.1 6.9 5.9 3.4 3.8 5.8 7.2 7.2 6.1 4.1 2.3 2.6 2.7 3.6 3.7 3.0 2.5 2.0 1.5 2.3 2.3 1.6 2.0 1.5 1.2 1.2 2.1 0.7 0.6 0.4 1.9 2.0 1.5 1.1 0.8 2.1 1.6 2.0 2.1
13.8 5.0 2.0 0.2 0.1 0.3 0.5 1.0 1.2 2.0 4.6 4.7 4.2 4.1 4.8 8.0 5.7 2.6 2.2 4.0 6.1 7.0 7.5 7.4 6.4 4.1 3.6 4.4 4.7 4.5 4.4 3.9 3.7 1.6 3.3 3.8 3.3 2.0 1.4 1.5 0.8 0.9 0.9 1.8 2.3 2.3 2.4 2.4 2.1 2.9 3.4 3.4 2.9 2.5
3.0 0.1 0.5 0.2 0.1 0.3 0.8 1.1 0.9 1.0 1.4 0.9 2.4 3.1 3.2 2.7 1.2 1.4 2.6 3.7 6.3 7.5 8.5 8.5 7.8 6.2 5.9 5.6 5.3 6.8 7.6 7.4 6.9 5.9 4.8 5.1 5.1 4.5 3.6 4.1 3.6 3.2 3.0 2.8 3.7 4.0 3.6 3.4 3.7 3.7 3.9 3.5 2.9 3.0
0.2 0.0 0.0 1.6 2.2 2.8 2.6 1.7 0.9 0.4 0.2 0.2 0.5 0.9 0.5 0.6 1.0 1.6 2.5 4.3 6.2 7.5 8.9 9.7 10.3 9.0 9.0 8.6 8.3 7.6 6.5 6.6 6.4 5.8 3.2 3.7 4.4 5.4 6.2 5.7 5.5 6.2 5.1 4.7 3.4 3.4 3.2 3.7 4.3 4.5 4.6 4.1 3.7 3.7
0.9 0.9 1.8 3.1 2.4 1.5 1.1 0.4 0.2 0.1 0.2 0.3 0.4 0.3 0.1 0.4 1.1 1.7 2.4 3.4 5.4 7.7 10.0 10.9 10.9 10.6 9.7 8.8 9.8 10.6 10.4 9.0 6.8 4.5 3.6 3.1 2.6 4.6 6.1 6.4 6.6 5.0 5.4 5.5 5.7 6.4 4.7 5.7 5.2 5.5 4.9 4.8 4.8 4.9
1.7 2.1 2.2 2.1 1.4 0.9 1.1 1.9 2.1 1.6 1.2 0.9 0.7 0.8 0.7 0.1 0.7 1.3 2.1 3.1 4.1 6.2 8.5 10.2 12.0 12.0 10.4 9.7 9.7 9.0 9.2 9.1 8.6 7.4 6.2 6.1 6.2 6.3 7.0 7.0 6.3 7.0 6.9 6.4 5.1 5.2 4.6 3.4 2.7 3.0 3.1 3.7 4.1 3.4
2.8 1.6 0.8 0.6 0.8 2.8 2.6 2.1 1.8 1.3 1.2 1.0 0.8 0.5 0.5 0.4 0.4 0.6 1.1 1.8 2.9 5.0 6.9 8.9 9.5 10.4 10.0 8.7 7.6 7.7 6.2 7.0 6.7 7.2 6.8 6.4 5.8 6.1 6.4 6.8 7.5 7.3 7.2 8.0 7.2 6.6 6.2 5.3 6.2 5.8 5.9 5.9 5.6 5.1
3.7 2.6 1.3 1.7 2.5 2.1 2.6 1.5 1.2 1.6 1.5 1.3 0.8 0.5 0.3 0.5 0.5 0.2 0.6 1.4 2.4 3.9 5.8 6.7 8.3 9.2 9.0 8.3 7.5 7.8 6.9 9.4 8.7 7.8 8.2 7.6 6.6 6.6 7.3 7.4 6.9 7.6 8.0 7.6 7.4 7.8 8.5 8.2 7.8 6.9 6.7 6.6 6.6 6.5

GFSWCAN_prec_kuchsnow_135.txt.gz
Snowfall_Accumulation
0.0 0.0 0.0 0.0 0.0 0.0 0.0 0.0 0.0 0.0 0.0 0.0 0.0 0.0 0.0 0.0 0.0 0.0 0.0 0.0 0.0 0.0 0.0 0.0 0.0 0.0 0.0 0.0 0.0 0.0 0.0 0.0 0.0 1.6 1.4 1.2 0.3 0.0 0.3 0.0 0.1 0.2 1.2 1.5 1.4 2.6 0.4 0.0 0.0 0.0 0.0 0.0 0.0 0.0
0.0 0.0 0.0 0.0 0.0 0.0 0.0 0.0 0.0 0.0 0.0 0.0 0.0 0.0 0.0 0.0 0.0 0.0 0.0 0.0 0.0 0.0 0.0 0.0 0.0 0.0 0.0 0.0 0.0 0.0 0.0 0.2 0.9 1.5 3.3 3.0 2.9 2.4 0.8 0.7 0.0 0.2 0.0 0.2 0.3 0.0 0.0 0.0 0.0 0.0 0.0 0.0 0.0 0.0
0.0 0.0 0.0 0.0 0.0 0.0 0.0 0.0 0.0 0.0 0.0 0.0 0.0 0.0 0.0 0.0 0.0 0.0 0.0 0.0 0.0 0.0 0.0 0.0 0.0 0.0 0.0 0.0 0.0 0.1 0.0 0.0 0.0 1.6 1.5 0.2 1.9 1.1 0.6 1.0 0.4 0.1 0.1 0.0 0.0 0.0 0.0 0.0 0.0 0.0 0.0 0.0 0.0 0.0
0.0 0.0 0.0 0.0 0.0 0.0 0.0 0.0 0.0 0.0 0.0 0.0 0.0 0.0 0.0 0.0 0.0 0.0 0.0 0.0 0.0 0.0 2.3 0.0 0.0 0.0 0.0 0.0 0.0 0.0 0.0 0.0 0.0 0.9 2.4 1.2 0.1 0.4 0.1 0.2 0.1 0.0 0.0 0.1 0.0 0.0 0.0 0.0 0.0 0.0 0.0 0.0 0.0 0.0
0.0 0.0 0.0 0.0 0.0 0.0 0.0 0.0 0.0 0.0 0.0 0.0 0.0 0.0 0.0 0.0 0.0 0.0 0.0 0.0 0.0 0.4 2.2 0.4 0.0 0.0 0.0 0.0 0.0 0.0 0.0 0.0 0.1 1.1 0.8 1.8 0.3 0.7 0.0 0.0 0.0 0.0 0.0 0.0 0.0 0.0 0.0 0.0 0.0 0.0 0.0 0.0 0.0 0.0
0.0 0.0 0.0 0.0 0.0 0.0 0.0 0.0 0.0 0.0 0.0 0.0 0.0 0.0 0.0 0.0 0.0 0.0 0.0 0.0 0.0 0.0 2.7 3.6 0.0 0.0 0.0 0.0 0.0 0.0 0.0 0.0 0.1 0.3 0.7 0.0 0.0 1.3 1.2 0.6 0.0 0.0 0.0 0.0 0.0 0.0 0.0 0.0 0.0 0.0 0.0 0.0 0.0 0.0
0.0 0.0 0.0 0.0 0.0 0.0 0.0 0.0 0.0 0.0 0.0 0.0 0.0 0.0 0.0 0.0 0.0 0.0 0.0 0.0 0.0 0.0 1.5 8.8 3.5 0.0 0.0 0.0 0.0 0.0 0.0 0.1 0.3 0.5 1.3 0.5 0.0 1.2 2.4 0.1 0.0 0.0 0.0 0.0 0.0 0.0 0.0 0.0 0.0 0.0 0.0 0.0 0.0 0.0
0.0 0.0 0.0 0.0 0.0 0.0 0.0 0.0 0.0 0.0 0.0 0.0 0.0 0.0 0.0 0.0 0.0 0.0 0.0 0.0 0.0 0.0 1.2 9.7 3.0 1.0 0.0 0.1 0.1 0.0 0.2 0.6 0.9 0.6 0.3 0.0 0.1 0.3 1.0 0.0 0.0 0.0 0.0 0.0 0.0 0.0 0.0 0.0 0.0 0.0 0.0 0.0 0.0 0.0
0.0 0.0 0.0 0.0 0.0 0.0 0.0 0.0 0.0 0.0 0.0 0.0 0.0 0.0 0.0 0.0 0.0 0.0 0.0 0.0 0.0 0.0 8.3 5.5 3.4 4.9 0.0 0.0 0.1 0.2 0.4 4.2 0.0 1.7 0.5 0.5 0.0 2.6 0.0 0.0 0.0 0.0 0.1 0.0 0.0 0.0 0.0 0.0 0.0 0.0 0.0 0.0 0.0 0.0
0.0 0.0 0.0 0.0 0.0 0.0 0.0 0.0 0.0 0.0 0.0 0.0 0.0 0.0 14.2 0.0 0.0 0.0 0.0 1.2 8.8 7.0 3.6 4.5 0.3 1.7 0.0 0.0 1.8 0.4 0.7 2.5 6.1 0.0 0.0 0.9 0.4 0.0 0.0 0.0 0.1 0.0 0.0 0.0 0.0 0.0 0.0 0.0 0.0 0.0 0.0 0.0 0.0 0.0
0.0 0.0 0.0 0.0 0.0 0.0 0.0 0.0 0.0 0.0 0.0 0.0 7.2 9.7 0.0 0.0 0.0 0.0 22.5 22.0 11.6 9.3 2.0 0.4 0.1 1.3 0.0 3.1 3.6 1.6 5.9 3.6 10.2 3.2 2.3 4.0 2.9 1.4 0.3 0.2 0.0 0.0 0.0 0.0 0.0 0.0 0.0 0.0 0.0 0.0 0.0 0.0 0.0 0.0
0.0 0.0 0.0 0.0 0.0 0.0 0.0 0.0 0.0 0.0 3.0 0.0 0.0 0.0 0.0 9.2 17.0 24.2 22.3 10.7 6.7 0.9 0.1 0.6 1.3 1.4 0.6 0.5 2.3 2.1 6.7 7.3 6.3 0.9 3.8 4.3 3.1 2.1 0.9 0.1 0.0 0.0 0.0 0.0 0.0 0.0 0.0 0.0 0.0 0.0 0.0 0.0 0.0 0.0
0.0 0.0 0.0 0.0 0.0 0.0 0.0 0.0 0.0 0.0 0.0 0.0 9.9 29.3 29.4 26.3 30.4 19.6 12.6 4.4 1.1 0.0 0.1 1.4 2.0 0.0 0.6 1.7 2.6 5.4 7.2 5.4 1.4 3.2 1.8 1.9 0.7 0.7 1.4 0.7 0.1 0.0 0.7 1.2 0.5 0.2 0.0 0.0 0.0 0.0 0.1 1.0 0.6 1.3
0.0 0.0 0.0 0.0 0.0 0.0 0.0 0.0 0.0 0.0 2.7 19.8 40.7 52.7 27.0 23.2 5.9 2.3 0.4 0.0 0.0 0.0 0.0 0.3 0.8 1.3 0.7 3.5 4.6 7.9 3.8 2.9 3.7 1.4 0.1 0.0 0.0 0.1 0.2 0.6 0.6 0.6 0.1 0.2 0.4 0.5 0.2 0.4 0.6 0.4 0.7 0.3 0.3 0.3
0.0 0.0 0.0 0.0 0.0 0.0 0.0 0.0 0.0 0.0 4.0 38.2 29.0 29.2 14.9 2.1 0.4 0.1 0.3 0.1 0.0 0.0 0.0 0.0 0.1 0.8 3.5 6.4 5.6 3.3 6.9 3.3 1.3 0.6 0.0 0.0 0.1 0.1 0.1 0.6 2.5 1.8 1.0 0.4 0.2 0.1 0.5 0.6 0.5 0.2 0.0 0.0 0.0 0.0
0.0 0.0 0.0 0.0 0.0 0.0 0.0 0.0 0.0 0.0 30.1 35.4 25.4 15.7 3.4 0.1 0.6 0.2 0.1 0.1 0.0 0.0 0.0 0.4 3.7 6.4 6.1 3.9 4.5 2.5 2.3 1.0 0.7 0.3 0.0 0.0 0.0 0.2 0.4 1.4 1.9 0.7 0.8 1.1 0.8 0.0 0.0 0.0 0.0 0.0 0.0 0.0 0.0 0.0
0.0 0.0 0.0 0.0 0.0 0.0 0.0 2.1 4.4 38.4 50.8 43.3 20.9 3.3 0.6 0.8 0.3 0.3 0.2 0.1 0.0 0.4 2.2 3.6 7.1 5.2 2.0 4.1 1.5 0.1 0.2 0.3 0.0 0.1 0.0 0.0 0.0 0.0 0.5 0.9 1.7 0.8 1.1 1.6 1.2 0.3 0.0 0.0 0.0 0.0 0.0 0.0 0.0 0.0
0.0 0.0 0.0 0.0 0.0 0.0 1.3 13.9 30.6 47.4 48.9 19.2 5.3 1.8 1.5 0.9 0.4 0.2 0.2 0.5 1.1 2.3 2.9 5.5 2.4 5.3 4.0 2.4 0.2 0.0 0.0 0.0 0.0 0.0 0.0 0.0 0.0 0.0 0.0 0.6 1.3 1.5 1.5 1.2 0.7 0.0 0.3 0.1 0.1 0.1 0.2 0.2 0.2 0.3
0.0 0.0 0.0 0.0 0.0 1.5 43.5 48.0 30.8 36.5 19.4 6.6 3.6 3.4 2.1 0.7 0.0 0.0 0.0 0.4 0.9 1.8 3.5 5.4 8.5 7.9 1.2 0.3 0.2 0.0 0.0 0.0 0.1 0.0 0.0 0.0 0.0 0.0 0.0 0.0 0.0 0.0 0.5 0.6 0.6 0.4 0.2 0.1 0.1 0.2 0.3 0.5 0.6 0.7
0.0 0.0 0.0 0.0 0.0 22.5 36.2 38.7 17.5 14.8 10.3 7.3 5.5 6.0 3.7 1.7 0.4 0.3 0.1 0.1 0.5 3.7 8.3 9.3 3.0 0.2 0.0 0.1 0.2 0.2 0.0 0.0 0.0 0.0 0.0 0.0 0.0 0.0 0.0 0.0 0.0 0.0 0.0 0.0 0.0 0.0 0.0 0.0 0.0 0.0 0.0 0.0 0.0 0.0
0.0 0.0 0.0 0.0 9.8 25.6 23.4 18.7 15.7 11.3 9.6 9.6 10.9 7.7 8.1 3.7 2.7 1.7 3.2 1.1 7.5 10.2 6.2 1.7 0.1 0.0 0.2 0.1 0.0 0.0 0.1 0.0 0.0 0.0 0.0 0.0 0.0 0.0 0.0 0.0 0.0 0.0 0.1 0.0 0.0 0.0 0.0 0.0 0.0 0.0 0.0 0.0 0.0 0.0
0.3 0.0 1.8 0.7 33.3 26.7 19.7 9.5 7.9 9.0 7.6 12.1 13.6 10.9 12.0 10.9 9.6 8.3 6.3 12.3 14.8 5.3 1.3 0.6 0.6 0.8 0.4 0.4 0.3 0.8 0.0 0.4 0.0 0.0 0.0 0.0 0.0 0.0 0.0 0.0 0.0 0.0 0.1 0.0 0.0 0.0 0.0 0.0 0.0 0.0 0.0 0.0 0.0 0.0
0.0 0.8 20.1 27.7 36.9 21.8 20.7 9.1 8.8 11.3 12.9 16.8 14.7 15.1 17.0 14.0 13.4 10.3 18.7 12.1 6.4 3.2 2.0 1.7 1.4 1.7 1.6 1.0 0.6 0.2 0.1 0.0 0.0 0.2 0.1 0.0 0.0 0.0 0.0 0.0 0.0 0.0 0.1 0.0 0.0 0.4 0.2 0.0 0.0 0.0 0.0 0.0 0.0 0.0
0.0 28.3 39.6 33.1 20.4 17.1 11.0 12.4 7.5 7.7 12.6 14.4 14.6 14.2 11.0 12.2 13.8 16.0 12.5 4.0 3.2 3.4 2.8 3.6 2.9 1.4 1.8 1.8 2.0 1.4 0.9 0.4 0.1 0.1 0.7 0.5 0.1 0.0 0.0 0.0 0.0 0.0 0.0 0.0 0.5 0.5 0.1 0.0 0.0 0.4 0.3 0.1 0.0 0.4
37.8 41.2 26.6 22.9 10.0 4.9 4.0 6.1 7.7 7.2 7.6 9.7 10.3 11.2 9.6 10.1 13.7 10.2 4.8 3.2 4.9 6.5 5.3 3.9 2.9 2.4 1.9 1.8 1.6 1.9 1.7 2.2 1.8 0.6 0.3 1.2 0.8 0.8 0.2 0.6 0.3 0.1 0.2 0.4 0.4 0.2 0.0 0.7 0.5 0.5 0.3 0.8 0.8 1.2
31.0 16.2 12.4 4.1 1.6 0.1 0.8 2.1 3.7 4.6 5.1 7.2 8.1 7.5 8.7 10.0 8.3 6.3 3.4 3.8 5.8 7.2 7.2 6.1 4.1 2.3 2.6 2.7 3.6 3.7 3.0 2.5 2.0 1.5 2.3 2.3 1.6 2.0 1.6 1.2 1.2 2.1 0.7 0.6 0.4 1.9 2.0 1.5 1.1 0.8 2.1 1.6 2.0 2.1
15.1 5.1 2.0 0.2 0.1 0.3 0.6 1.0 1.2 2.0 5.1 5.0 4.2 4.1 6.0 10.1 5.7 2.6 2.3 4.0 6.1 7.1 7.5 7.4 6.4 4.1 3.6 4.4 4.7 4.5 4.4 3.9 3.7 1.6 3.3 3.8 3.3 2.0 1.4 1.5 0.8 0.9 0.9 1.8 2.3 2.3 2.4 2.4 2.1 2.9 3.4 3.7 3.2 2.5
3.5 0.1 0.5 0.2 0.1 0.3 1.0 1.1 1.3 1.3 1.8 1.0 2.7 4.0 4.5 3.3 1.2 1.4 2.6 3.7 6.3 7.5 8.5 8.5 7.9 6.2 5.9 5.6 5.3 6.8 7.6 7.4 6.9 5.9 4.8 5.1 5.1 4.5 3.6 4.1 3.6 3.2 3.0 2.8 3.7 4.0 3.6 3.4 3.7 3.7 3.9 3.5 2.9 3.0
0.2 0.0 0.0 1.6 3.1 3.9 3.6 2.3 1.1 0.4 0.2 0.3 1.4 1.6 0.6 0.6 1.0 1.6 2.5 4.3 6.2 7.5 8.9 9.8 10.4 9.0 9.0 8.6 8.3 7.6 6.5 6.6 6.4 5.8 3.2 3.7 4.4 5.4 6.2 5.7 5.5 6.2 5.1 4.7 3.4 3.4 3.2 3.7 4.3 4.5 4.6 4.1 3.7 4.0
0.9 0.9 1.8 3.1 2.4 1.5 1.1 0.4 0.2 0.1 1.0 1.1 1.0 0.7 0.2 0.4 1.1 1.7 2.4 3.4 5.5 7.8 10.2 11.1 10.9 10.6 9.7 8.8 9.8 10.6 10.4 9.0 6.8 4.5 3.6 3.1 2.6 4.6 6.1 6.4 6.6 5.0 5.4 5.5 5.7 6.4 4.8 5.9 5.6 6.0 5.2 5.2 5.2 5.3
1.7 2.1 2.2 2.1 1.4 0.9 1.1 1.9 2.9 2.8 2.4 1.9 1.5 1.3 0.9 0.2 0.7 1.3 2.1 3.1 4.1 6.2 8.5 10.2 12.0 12.0 10.4 9.7 9.7 9.0 9.2 9.1 8.6 7.4 6.2 6.1 6.2 6.3 7.0 7.0 6.3 7.0 6.9 6.4 5.1 5.3 4.7 3.5 2.7 3.1 3.1 3.7 4.1 3.4
2.8 1.6 0.8 0.6 0.8 2.8 3.6 3.2 2.6 2.1 1.8 1.4 1.1 0.7 1.4 1.4 0.8 0.6 1.1 1.8 2.9 5.0 6.9 8.9 9.5 10.4 10.0 8.7 7.6 7.7 6.2 7.0 6.7 7.2 6.8 6.4 5.8 6.1 6.4 6.8 7.5 7.4 7.3 8.1 7.2 6.6 6.2 5.3 6.2 5.9 6.0 5.9 5.6 5.1
4.0 3.1 2.1 2.5 3.3 2.9 3.3 2.1 2.6 2.7 2.0 1.6 0.8 0.5 0.5 0.7 0.5 0.2 0.6 1.4 2.4 3.9 5.8 6.7 8.3 9.2 9.0 8.3 7.5 7.8 6.9 9.4 8.7 7.8 8.3 7.6 6.6 6.7 7.5 7.6 7.2 7.8 8.1 7.7 7.7 8.0 8.7 8.4 7.9 6.9 6.7 6.7 6.7 6.5

GFSWCAN_prec_kuchsnow_141.txt.gz
Snowfall_Accumulation
0.0 0.0 0.0 0.0 0.0 0.0 0.0 0.0 0.0 0.0 0.0 0.0 0.0 0.0 0.0 0.0 0.0 0.0 0.0 0.0 0.0 0.0 0.0 0.0 0.0 0.0 0.0 0.0 0.0 0.0 0.0 0.0 0.0 1.6 1.4 1.2 0.3 0.0 0.3 0.0 0.1 0.2 1.2 1.5 1.4 2.6 0.4 0.0 0.0 0.0 0.0 0.0 0.0 0.0
0.0 0.0 0.0 0.0 0.0 0.0 0.0 0.0 0.0 0.0 0.0 0.0 0.0 0.0 0.0 0.0 0.0 0.0 0.0 0.0 0.0 0.0 0.0 0.0 0.0 0.0 0.0 0.0 0.0 0.0 0.0 0.2 0.9 1.5 3.3 3.0 2.9 2.4 0.8 0.7 0.0 0.2 0.0 0.2 0.3 0.0 0.0 0.0 0.0 0.0 0.0 0.0 0.0 0.0
0.0 0.0 0.0 0.0 0.0 0.0 0.0 0.0 0.0 0.0 0.0 0.0 0.0 0.0 0.0 0.0 0.0 0.0 0.0 0.0 0.0 0.0 0.0 0.0 0.0 0.0 0.0 0.0 0.0 0.1 0.0 0.0 0.0 1.6 1.5 0.2 1.9 1.1 0.6 1.0 0.4 0.1 0.1 0.0 0.0 0.0 0.0 0.0 0.0 0.0 0.0 0.0 0.0 0.0
0.0 0.0 0.0 0.0 0.0 0.0 0.0 0.0 0.0 0.0 0.0 0.0 0.0 0.0 0.0 0.0 0.0 0.0 0.0 0.0 0.0 0.0 2.3 0.0 0.0 0.0 0.0 0.0 0.0 0.0 0.0 0.0 0.0 0.9 2.4 1.2 0.1 0.4 0.1 0.2 0.1 0.0 0.0 0.1 0.0 0.0 0.0 0.0 0.0 0.0 0.0 0.0 0.0 0.0
0.0 0.0 0.0 0.0 0.0 0.0 0.0 0.0 0.0 0.0 0.0 0.0 0.0 0.0 0.0 0.0 0.0 0.0 0.0 0.0 0.0 0.4 2.2 0.4 0.0 0.0 0.0 0.0 0.0 0.0 0.0 0.0 0.1 1.2 1.5 2.2 0.3 0.7 0.0 0.0 0.0 0.0 0.0 0.0 0.0 0.0 0.0 0.0 0.0 0.0 0.0 0.0 0.0 0.0
0.0 0.0 0.0 0.0 0.0 0.0 0.0 0.0 0.0 0.0 0.0 0.0 0.0 0.0 0.0 0.0 0.0 0.0 0.0 0.0 0.0 0.0 2.7 5.1 0.0 0.0 0.0 0.0 0.0 0.0 0.0 0.0 0.1 0.6 1.1 0.1 0.0 1.3 1.3 0.7 0.0 0.0 0.0 0.0 0.0 0.0 0.0 0.0 0.0 0.0 0.0 0.0 0.0 0.0
0.0 0.0 0.0 0.0 0.0 0.0 0.0 0.0 0.0 0.0 0.0 0.0 0.0 0.0 0.0 0.0 0.0 0.0 0.0 0.0 0.0 0.0 1.5 13.1 3.5 0.0 0.0 0.0 0.0 0.0 0.0 0.1 0.3 0.5 1.5 0.6 0.0 1.2 2.6 0.4 0.0 0.0 0.0 0.0 0.0 0.0 0.0 0.0 0.0 0.0 0.0 0.0 0.0 0.0
0.0 0.0 0.0 0.0 0.0 0.0 0.0 0.0 0.0 0.0 0.0 0.0 0.0 0.0 0.0 0.0 0.0 0.0 0.0 0.0 0.0 0.0 1.2 15.2 5.8 1.0 0.0 0.1 0.1 0.0 0.2 0.8 1.2 1.0 0.9 0.3 0.2 0.5 2.6 0.0 0.0 0.0 0.0 0.0 0.0 0.0 0.0 0.0 0.0 0.0 0.0 0.0 0.0 0.0
0.0 0.0 0.0 0.0 0.0 0.0 0.0 0.0 0.0 0.0 0.0 0.0 0.0 0.0 0.0 0.0 0.0 0.0 0.0 0.0 0.0 0.0 13.0 7.7 5.1 5.4 0.0 0.0 0.1 0.3 0.5 5.6 0.9 3.7 1.1 0.5 0.9 3.9 0.0 0.0 0.0 0.0 0.1 0.0 0.0 0.0 0.0 0.0 0.0 0.0 0.0 0.0 0.0 0.0
0.0 0.0 0.0 0.0 0.0 0.0 0.0 0.0 0.0 0.0 0.0 0.0 0.0 0.0 14.2 0.0 0.0 0.0 0.0 1.2 8.8 8.2 5.8 7.6 0.7 2.8 0.1 0.0 1.8 1.0 1.8 3.7 8.7 0.9 0.0 1.7 0.5 0.0 0.0 0.0 0.1 0.0 0.0 0.0 0.0 0.0 0.0 0.0 0.0 0.0 0.0 0.0 0.0 0.0
0.0 0.0 0.0 0.0 0.0 0.0 0.0 0.0 0.0 0.0 0.0 0.0 7.2 9.7 0.0 0.0 0.0 0.0 22.5 22.8 11.7 10.6 2.5 0.6 0.1 1.3 0.0 3.1 3.6 2.0 7.4 4.9 12.6 3.5 2.3 4.7 2.9 1.4 0.3 0.2 0.0 0.0 0.0 0.0 0.0 0.0 0.0 0.0 0.0 0.0 0.0 0.0 0.0 0.0
0.0 0.0 0.0 0.0 0.0 0.0 0.0 0.0 0.0 0.0 3.0 0.0 0.0 0.0 0.0 9.2 17.1 24.3 22.5 10.8 7.2 0.9 0.1 0.6 1.3 1.4 0.6 0.5 2.8 3.4 8.4 10.0 9.2 1.5 5.6 5.3 3.1 2.1 0.9 0.1 0.0 0.0 0.0 0.0 0.0 0.0 0.0 0.0 0.0 0.0 0.0 0.0 0.0 0.0
0.0 0.0 0.0 0.0 0.0 0.0 0.0 0.0 0.0 0.0 0.0 0.0 10.1 30.2 29.8 26.5 31.1 20.7 13.2 4.7 1.1 0.0 0.1 1.4 2.0 0.0 0.7 2.1 4.4 8.1 10.8 8.0 2.3 6.1 2.8 1.9 0.7 0.7 1.4 0.7 0.1 0.0 0.7 1.2 0.5 0.2 0.0 0.0 0.0 0.0 0.1 1.0 0.6 1.3
0.0 0.0 0.0 0.0 0.0 0.0 0.0 0.0 0.0 0.0 2.7 21.6 42.9 54.6 27.7 23.2 6.3 2.3 0.4 0.0 0.0 0.0 0.2 0.3 0.9 1.6 0.9 4.8 6.0 10.5 4.7 4.9 5.2 3.7 0.4 0.0 0.0 0.1 0.2 0.6 0.6 0.6 0.1 0.2 0.4 0.5 0.2 0.4 0.6 0.4 0.7 0.3 0.3 0.3
0.0 0.0 0.0 0.0 0.0 0.0 0.0 0.0 0.0 0.0 5.2 41.6 31.6 30.6 15.1 2.1 0.4 0.2 0.4 0.1 0.0 0.0 0.0 0.0 0.1 1.3 3.9 8.2 5.6 3.3 8.7 3.3 1.3 0.6 0.0 0.0 0.1 0.1 0.1 0.6 2.5 1.8 1.0 0.4 0.2 0.1 0.5 0.6 0.5 0.2 0.0 0.0 0.0 0.0
0.0 0.0 0.0 0.0 0.0 0.0 0.0 0.0 0.0 0.0 33.3 39.0 27.9 16.4 3.4 0.3 0.6 0.2 0.1 0.1 0.0 0.0 0.0 0.9 4.1 8.9 8.6 6.0 7.1 5.0 4.9 2.3 0.9 0.3 0.0 0.0 0.0 0.2 0.4 1.4 1.9 0.7 0.8 1.1 0.8 0.0 0.0 0.0 0.0 0.0 0.0 0.0 0.0 0.0
0.0 0.0 0.0 0.0 0.0 0.0 0.0 2.1 4.4 41.7 54.5 45.7 21.0 3.3 0.6 0.8 0.3 0.3 0.2 0.1 0.0 0.9 2.6 4.8 9.3 7.3 3.1 5.9 2.8 0.1 0.8 0.7 0.0 0.2 0.0 0.0 0.0 0.0 0.5 0.9 1.7 0.8 1.1 1.6 1.2 0.3 0.0 0.0 0.0 0.0 0.0 0.0 0.0 0.0
0.0 0.0 0.0 0.0 0.0 0.0 1.3 13.9 34.2 51.0 51.4 19.4 5.3 1.8 1.5 0.9 0.4 0.2 0.2 0.5 1.2 2.3 3.0 5.7 3.0 5.7 6.1 4.5 1.2 0.5 0.2 0.0 0.0 0.0 0.0 0.0 0.0 0.0 0.0 0.6 1.3 1.5 1.5 1.2 0.7 0.0 0.3 0.1 0.1 0.1 0.2 0.2 0.2 0.3
0.0 0.0 0.0 0.0 0.0 2.1 46.0 50.4 33.0 39.9 20.0 6.6 3.6 3.4 2.1 0.7 0.0 0.0 0.0 0.4 0.9 1.8 3.7 5.6 9.6 8.0 1.2 0.3 0.2 0.0 0.0 0.0 0.1 0.0 0.0 0.0 0.0 0.0 0.0 0.0 0.0 0.0 0.5 0.6 0.6 0.4 0.2 0.1 0.1 0.2 0.3 0.5 0.6 0.7
0.0 0.0 0.0 0.0 0.0 26.1 41.4 40.9 18.5 15.1 10.5 7.4 5.5 6.0 3.7 1.7 0.4 0.3 0.1 0.1 0.5 3.7 8.3 9.6 3.0 0.2 0.0 0.1 0.2 0.2 0.0 0.0 0.0 0.0 0.0 0.0 0.0 0.0 0.0 0.0 0.0 0.0 0.0 0.0 0.0 0.0 0.0 0.0 0.0 0.0 0.0 0.0 0.0 0.0
0.0 0.0 0.0 0.0 9.8 28.9 26.3 20.0 17.1 11.4 9.6 9.6 10.9 7.7 8.1 3.7 2.7 1.7 3.2 1.1 7.7 10.4 6.2 1.7 0.1 0.0 0.2 0.1 0.0 0.0 0.1 0.0 0.0 0.0 0.0 0.0 0.0 0.0 0.0 0.0 0.0 0.0 0.1 0.0 0.0 0.0 0.0 0.0 0.0 0.0 0.0 0.0 0.0 0.0
0.3 0.0 1.8 0.7 37.5 31.2 23.8 10.3 8.4 9.1 7.6 12.1 13.6 10.9 12.0 10.9 9.6 8.3 6.3 12.5 14.8 5.3 1.3 0.6 0.6 0.8 0.4 0.4 0.3 0.8 0.0 0.4 0.0 0.0 0.0 0.0 0.0 0.0 0.0 0.0 0.0 0.0 0.1 0.0 0.0 0.0 0.0 0.0 0.0 0.0 0.0 0.0 0.0 0.0
0.0 0.8 22.2 29.8 40.6 25.5 24.0 9.7 9.4 11.6 13.8 17.4 14.7 15.3 17.1 14.0 13.4 10.3 18.7 12.1 6.4 3.2 2.0 1.7 1.4 1.7 1.6 1.0 0.6 0.2 0.1 0.0 0.0 0.2 0.1 0.0 0.0 0.0 0.0 0.0 0.0 0.0 0.1 0.0 0.0 0.4 0.2 0.0 0.0 0.0 0.0 0.1 0.0 0.1
0.0 30.4 43.2 36.8 22.6 18.8 11.8 13.2 7.8 7.8 12.6 14.4 14.6 14.2 11.0 12.2 13.8 16.0 12.5 4.0 3.2 3.4 2.8 3.6 2.9 1.4 1.8 1.8 2.0 1.5 0.9 0.5 0.2 0.1 0.7 0.5 0.1 0.0 0.0 0.0 0.0 0.0 0.0 0.0 0.5 0.5 0.1 0.0 0.0 0.4 0.3 0.1 0.4 0.7
44.7 48.0 29.0 25.6 11.7 6.1 4.5 6.4 7.8 7.2 7.6 9.7 10.3 11.2 9.6 10.1 13.7 10.2 4.8 3.2 4.9 6.5 5.3 3.9 3.0 2.8 2.0 2.9 2.0 2.1 1.7 2.5 2.8 1.4 0.5 1.2 0.8 0.8 0.2 0.6 0.3 0.1 0.2 0.4 0.4 0.2 0.0 0.7 0.7 0.5 0.3 0.8 1.4 1.6
37.4 19.3 15.6 4.8 1.6 0.1 0.8 2.1 3.7 4.6 5.1 7.2 8.1 7.5 8.7 10.0 8.3 6.3 3.4 3.8 5.9 7.4 7.6 6.4 4.4 2.7 3.4 2.8 4.3 3.8 3.0 2.5 2.0 3.0 2.9 2.4 1.6 2.0 1.6 1.2 1.2 2.1 0.7 0.6 0.4 1.9 2.0 1.5 1.2 0.8 2.1 1.9 2.5 2.7
18.8 7.3 3.1 0.2 0.1 0.3 0.6 1.0 1.2 2.0 5.1 5.0 4.2 4.1 6.0 10.1 5.7 2.6 2.3 4.0 6.1 7.1 7.5 7.4 6.4 5.2 4.7 4.8 4.7 4.5 4.4 3.9 4.0 1.6 3.3 3.8 3.3 2.0 1.4 1.5 0.8 0.9 0.9 1.8 2.3 2.3 2.4 2.4 2.1 3.0 3.7 4.2 3.9 2.9
3.5 0.1 0.5 0.2 0.1 0.3 1.0 1.1 1.3 1.3 1.8 1.0 2.7 4.0 4.5 3.3 1.2 1.4 2.6 3.7 6.3 7.5 8.5 8.5 7.9 6.2 6.5 6.1 5.8 7.2 7.7 7.4 7.2 6.1 4.9 5.1 5.1 4.5 3.6 4.1 3.6 3.2 3.0 2.8 3.7 4.0 3.6 3.4 3.7 3.7 4.2 4.1 3.5 3.5
0.7 0.0 0.0 1.6 3.1 3.9 3.6 2.3 1.1 0.4 0.2 0.3 1.4 1.6 0.6 0.6 1.0 1.6 2.5 4.3 6.2 7.5 8.9 9.8 10.4 9.0 10.3 9.6 8.7 7.9 6.7 7.3 7.0 6.0 3.3 3.7 4.4 5.4 6.2 5.7 5.5 6.2 5.1 4.7 3.4 3.4 3.2 3.9 4.5 4.8 5.0 4.7 4.2 4.5
0.9 0.9 1.8 3.1 2.4 1.5 1.1 0.4 0.2 0.1 1.0 1.1 1.0 0.7 0.2 0.4 1.1 1.7 2.4 3.4 5.5 7.8 10.2 11.1 10.9 12.1 10.5 9.1 9.8 10.6 10.6 9.3 7.3 4.9 4.0 3.4 2.7 4.7 6.1 6.5 6.8 5.0 5.4 5.5 5.7 6.8 4.8 5.9 5.9 6.5 5.9 5.8 5.8 5.8
1.7 2.1 2.2 2.1 1.4 0.9 1.1 1.9 2.9 2.8 2.4 1.9 1.5 1.3 0.9 0.2 0.7 1.3 2.1 3.1 4.2 6.2 8.9 10.7 12.4 12.3 10.5 9.7 9.7 9.0 9.2 9.1 8.6 7.4 6.2 6.1 6.2 6.3 7.0 7.0 6.3 7.0 6.9 6.5 5.2 5.3 4.9 3.8 3.0 3.6 3.6 4.0 4.3 3.5
2.8 1.6 0.8 0.6 0.8 2.8 3.6 3.2 2.6 2.1 1.8 1.4 1.1 0.7 1.4 1.4 1.0 0.6 1.1 1.8 2.9 5.0 6.9 8.9 9.7 10.6 10.0 8.7 7.6 7.7 6.2 7.0 6.7 7.2 6.8 6.4 5.8 6.1 6.4 6.8 7.5 7.4 7.3 8.1 7.2 6.6 6.2 5.3 6.4 6.1 6.1 6.1 5.8 5.2
4.0 3.1 2.1 2.5 3.3 2.9 3.3 2.1 2.6 2.7 2.0 1.6 0.8 0.5 0.5 1.2 1.2 0.2 0.6 1.4 2.4 3.9 5.8 6.7 8.3 9.2 9.0 8.3 7.5 7.8 6.9 9.4 8.7 7.8 8.3 7.6 6.6 6.7 7.5 7.6 7.2 7.8 8.1 7.9 8.1 8.3 8.9 8.4 8.1 7.1 7.0 6.9 6.9 6.7

GFSWCAN_prec_kuchsnow_144.txt.gz
Snowfall_Accumulation
0.0 0.0 0.0 0.0 0.0 0.0 0.0 0.0 0.0 0.0 0.0 0.0 0.0 0.0 0.0 0.0 0.0 0.0 0.0 0.0 0.0 0.0 0.0 0.0 0.0 0.0 0.0 0.0 0.0 0.0 0.0 0.0 0.0 1.6 1.4 1.2 0.3 0.0 0.3 0.0 0.1 0.2 1.2 1.5 1.4 2.6 0.4 0.0 0.0 0.0 0.0 0.0 0.0 0.0
0.0 0.0 0.0 0.0 0.0 0.0 0.0 0.0 0.0 0.0 0.0 0.0 0.0 0.0 0.0 0.0 0.0 0.0 0.0 0.0 0.0 0.0 0.0 0.0 0.0 0.0 0.0 0.0 0.0 0.0 0.0 0.2 0.9 1.5 3.3 3.0 2.9 2.4 0.8 0.7 0.0 0.2 0.0 0.2 0.3 0.0 0.0 0.0 0.0 0.0 0.0 0.0 0.0 0.0
0.0 0.0 0.0 0.0 0.0 0.0 0.0 0.0 0.0 0.0 0.0 0.0 0.0 0.0 0.0 0.0 0.0 0.0 0.0 0.0 0.0 0.0 0.0 0.0 0.0 0.0 0.0 0.0 0.0 0.1 0.0 0.0 0.0 1.6 1.5 0.2 2.2 1.1 0.6 1.0 0.4 0.1 0.1 0.0 0.0 0.0 0.0 0.0 0.0 0.0 0.0 0.0 0.0 0.0
0.0 0.0 0.0 0.0 0.0 0.0 0.0 0.0 0.0 0.0 0.0 0.0 0.0 0.0 0.0 0.0 0.0 0.0 0.0 0.0 0.0 0.0 2.5 0.0 0.0 0.0 0.0 0.0 0.0 0.0 0.0 0.0 0.0 0.9 2.4 2.1 0.6 0.4 0.1 0.2 0.1 0.0 0.0 0.1 0.0 0.0 0.0 0.0 0.0 0.0 0.0 0.0 0.0 0.0
0.0 0.0 0.0 0.0 0.0 0.0 0.0 0.0 0.0 0.0 0.0 0.0 0.0 0.0 0.0 0.0 0.0 0.0 0.0 0.0 0.0 0.4 2.2 0.4 0.0 0.0 0.0 0.0 0.0 0.0 0.0 0.0 0.1 2.4 3.5 3.6 0.5 0.7 0.0 0.2 0.2 0.0 0.0 0.0 0.0 0.0 0.0 0.0 0.0 0.0 0.0 0.0 0.0 0.0
0.0 0.0 0.0 0.0 0.0 0.0 0.0 0.0 0.0 0.0 0.0 0.0 0.0 0.0 0.0 0.0 0.0 0.0 0.0 0.0 0.0 0.0 2.7 5.5 0.0 0.0 0.0 0.0 0.0 0.0 0.0 0.0 0.1 1.5 2.2 0.5 0.0 1.3 2.1 1.6 0.0 0.0 0.0 0.0 0.0 0.0 0.0 0.0 0.0 0.0 0.0 0.0 0.0 0.0
0.0 0.0 0.0 0.0 0.0 0.0 0.0 0.0 0.0 0.0 0.0 0.0 0.0 0.0 0.0 0.0 0.0 0.0 0.0 0.0 0.0 0.0 1.5 14.7 3.5 0.0 0.0 0.0 0.0 0.0 0.0 0.1 0.3 0.5 2.1 0.6 0.0 1.2 3.1 1.0 0.0 0.0 0.0 0.0 0.0 0.0 0.0 0.0 0.0 0.0 0.0 0.0 0.0 0.0
0.0 0.0 0.0 0.0 0.0 0.0 0.0 0.0 0.0 0.0 0.0 0.0 0.0 0.0 0.0 0.0 0.0 0.0 0.0 0.0 0.0 0.0 1.2 15.2 5.8 1.0 0.0 0.1 0.1 0.0 0.2 1.1 2.0 1.8 1.5 0.6 0.2 0.5 3.8 0.0 0.0 0.0 0.0 0.0 0.0 0.0 0.0 0.0 0.0 0.0 0.0 0.0 0.0 0.0
0.0 0.0 0.0 0.0 0.0 0.0 0.0 0.0 0.0 0.0 0.0 0.0 0.0 0.0 0.0 0.0 0.0 0.0 0.0 0.0 0.0 0.0 13.0 7.7 5.1 5.4 0.0 0.0 0.1 0.4 0.7 6.1 1.3 4.9 1.5 0.7 1.7 4.7 0.0 0.0 0.0 0.0 0.1 0.0 0.0 0.0 0.0 0.0 0.0 0.0 0.0 0.0 0.0 0.0
0.0 0.0 0.0 0.0 0.0 0.0 0.0 0.0 0.0 0.0 0.0 0.0 0.0 0.0 14.2 0.0 0.0 0.0 0.0 1.2 8.8 8.2 5.8 8.4 0.7 2.8 0.1 0.0 1.8 1.0 2.0 3.7 9.7 0.9 0.0 2.5 1.1 0.0 0.0 0.0 0.1 0.0 0.0 0.0 0.0 0.0 0.0 0.0 0.0 0.0 0.0 0.0 0.0 0.0
0.0 0.0 0.0 0.0 0.0 0.0 0.0 0.0 0.0 0.0 0.0 0.0 7.3 9.7 0.0 0.0 0.0 0.0 22.5 23.0 11.9 11.1 2.7 0.6 0.1 1.3 0.0 3.1 3.6 2.0 7.4 4.9 13.4 3.5 2.3 5.0 2.9 1.4 0.3 0.2 0.0 0.0 0.0 0.0 0.0 0.0 0.0 0.0 0.0 0.0 0.0 0.0 0.0 0.0
0.0 0.0 0.0 0.0 0.0 0.0 0.0 0.0 0.0 0.0 3.0 0.0 0.0 0.0 0.0 9.2 17.1 24.5 22.7 10.8 7.2 0.9 0.1 0.6 1.3 1.4 0.6 0.5 3.2 4.1 9.2 10.7 9.6 1.5 5.9 5.5 3.1 2.1 0.9 0.1 0.0 0.0 0.0 0.0 0.0 0.0 0.0 0.0 0.0 0.0 0.0 0.0 0.0 0.0
0.0 0.0 0.0 0.0 0.0 0.0 0.0 0.0 0.0 0.0 0.0 0.0 10.8 30.7 29.8 26.5 31.6 21.2 13.2 4.7 1.1 0.0 0.1 1.4 2.0 0.4 1.0 2.1 5.4 9.1 11.7 8.0 2.3 6.9 2.8 1.9 0.7 0.7 1.4 0.7 0.1 0.0 0.7 1.2 0.5 0.2 0.0 0.0 0.0 0.0 0.1 1.0 0.6 1.3
0.0 0.0 0.0 0.0 0.0 0.0 0.0 0.0 0.0 0.0 2.7 24.0 44.6 55.5 27.8 23.2 6.3 2.3 0.4 0.0 0.0 0.0 0.3 0.5 0.9 2.0 1.2 5.7 6.8 11.6 5.5 5.7 6.4 4.5 0.4 0.0 0.0 0.1 0.2 0.6 0.6 0.6 0.1 0.2 0.4 0.5 0.2 0.4 0.6 0.4 0.7 0.3 0.3 0.3
0.0 0.0 0.0 0.0 0.0 0.0 0.0 0.0 0.0 0.0 6.5 45.6 33.9 31.4 15.1 2.1 0.4 0.2 0.4 0.1 0.0 0.0 0.2 0.0 0.1 1.3 3.9 8.8 5.6 3.3 9.1 3.7 1.3 0.6 0.0 0.0 0.1 0.1 0.1 0.6 2.5 1.8 1.0 0.4 0.2 0.1 0.5 0.6 0.5 0.2 0.0 0.0 0.0 0.0
0.0 0.0 0.0 0.0 0.0 0.0 0.0 0.0 0.0 0.0 36.0 42.5 30.0 16.9 3.4 0.3 0.6 0.2 0.1 0.1 0.0 0.0 0.0 0.9 4.6 9.2 8.7 6.2 7.7 5.0 7.2 4.3 1.4 0.3 0.0 0.0 0.1 0.2 0.4 1.4 1.9 0.7 0.8 1.1 0.8 0.0 0.0 0.0 0.0 0.0 0.0 0.0 0.0 0.0
0.0 0.0 0.0 0.0 0.0 0.0 0.0 2.1 4.4 43.0 56.9 48.7 22.5 3.3 0.6 0.8 0.3 0.3 0.2 0.1 0.0 0.9 2.6 5.1 10.1 8.2 3.6 6.5 3.0 0.2 0.9 0.7 0.0 0.2 0.0 0.0 0.0 0.0 0.5 0.9 1.7 0.8 1.1 1.6 1.2 0.3 0.0 0.0 0.0 0.0 0.0 0.0 0.0 0.0
0.0 0.0 0.0 0.0 0.0 0.0 1.3 13.9 36.0 53.1 53.0 19.4 5.3 1.8 1.5 0.9 0.4 0.2 0.2 0.5 1.2 2.3 3.0 5.7 3.0 5.7 7.6 4.5 1.2 0.5 0.2 0.0 0.0 0.0 0.0 0.0 0.0 0.0 0.0 0.6 1.3 1.5 1.5 1.2 0.7 0.0 0.3 0.1 0.1 0.1 0.2 0.2 0.2 0.3
0.0 0.0 0.0 0.0 0.0 2.7 47.6 51.1 33.0 41.3 20.6 6.6 3.6 3.4 2.1 0.7 0.0 0.0 0.0 0.4 0.9 1.8 3.7 5.6 10.2 8.0 1.2 0.3 0.2 0.0 0.0 0.0 0.1 0.0 0.0 0.0 0.0 0.0 0.0 0.0 0.0 0.0 0.5 0.6 0.6 0.4 0.2 0.1 0.1 0.2 0.3 0.5 0.6 0.7
0.0 0.0 0.0 0.0 0.0 27.5 44.1 42.6 19.0 15.7 10.5 7.4 5.5 6.0 3.7 1.7 0.4 0.3 0.1 0.1 0.5 3.7 8.3 9.6 3.0 0.2 0.0 0.1 0.2 0.2 0.0 0.0 0.0 0.0 0.0 0.0 0.0 0.0 0.0 0.0 0.0 0.0 0.0 0.0 0.0 0.0 0.0 0.0 0.0 0.0 0.0 0.0 0.0 0.0
0.0 0.0 0.0 0.0 10.4 30.6 28.4 21.3 18.0 11.4 9.6 9.6 10.9 7.7 8.1 3.7 2.7 1.7 3.2 1.1 7.7 10.4 6.2 1.7 0.1 0.0 0.2 0.1 0.0 0.0 0.1 0.0 0.0 0.0 0.0 0.0 0.0 0.0 0.0 0.0 0.0 0.0 0.1 0.0 0.0 0.0 0.0 0.0 0.0 0.0 0.0 0.0 0.0 0.0
0.3 0.0 2.0 0.7 39.2 33.1 25.8 10.3 9.2 9.3 7.7 12.1 13.6 10.9 12.0 10.9 9.6 8.3 6.3 12.5 14.8 5.3 1.3 0.6 0.6 0.8 0.4 0.4 0.3 0.8 0.0 0.4 0.0 0.0 0.0 0.0 0.0 0.0 0.0 0.0 0.0 0.0 0.1 0.0 0.0 0.0 0.0 0.0 0.0 0.0 0.0 0.0 0.0 0.0
0.0 0.8 22.8 30.5 42.3 27.3 25.5 10.2 10.1 11.6 14.5 17.9 14.8 15.3 17.1 14.0 13.4 10.3 18.7 12.1 6.4 3.2 2.0 1.7 1.4 1.7 1.6 1.0 0.6 0.2 0.1 0.0 0.0 0.2 0.1 0.0 0.0 0.0 0.0 0.0 0.0 0.0 0.1 0.0 0.0 0.4 0.2 0.0 0.0 0.0 0.0 0.1 0.0 0.1
0.0 31.8 44.9 39.1 23.9 19.9 12.5 14.0 8.5 7.8 13.0 14.6 14.6 14.2 11.0 12.2 13.8 16.0 12.5 4.0 3.2 3.4 2.8 3.6 2.9 1.4 1.8 1.8 2.0 1.5 0.9 0.5 0.2 0.1 0.7 0.5 0.2 0.0 0.0 0.0 0.0 0.0 0.0 0.0 0.5 0.5 0.1 0.0 0.0 0.4 0.3 0.1 0.4 1.5
49.3 51.4 31.2 27.0 12.6 6.9 4.8 6.7 7.8 7.5 7.6 9.7 10.3 11.2 9.6 10.1 13.7 10.2 4.8 3.2 4.9 6.5 5.3 3.9 3.0 2.8 2.0 2.9 2.0 2.1 1.7 2.5 2.8 1.4 0.5 1.2 1.0 1.2 0.4 0.6 0.3 0.1 0.2 0.4 0.4 0.2 0.0 0.7 0.7 0.5 0.3 0.8 1.4 1.6
40.5 21.0 17.0 5.3 1.7 0.1 0.8 2.1 3.7 4.6 5.1 7.2 8.1 7.5 8.7 10.0 8.3 6.3 3.4 3.8 5.9 7.4 7.6 6.4 4.4 2.7 3.4 2.8 4.3 3.8 3.0 2.5 2.0 3.1 2.9 2.4 1.6 2.4 2.0 1.3 1.2 2.1 0.7 0.6 0.4 1.9 2.0 1.5 1.2 0.8 2.1 1.9 2.5 3.6
20.2 8.4 4.1 0.2 0.1 0.3 0.6 1.0 1.2 2.0 5.1 5.0 4.2 4.1 6.0 10.1 5.7 2.6 2.3 4.0 6.1 7.1 7.5 7.4 6.4 5.2 4.7 4.8 4.7 4.5 4.4 3.9 4.0 1.6 3.3 3.8 3.3 2.2 1.5 1.7 0.9 0.9 0.9 1.8 2.3 2.3 2.4 2.4 2.1 3.0 3.7 4.2 3.9 3.6
3.5 0.1 0.5 0.2 0.1 0.3 1.0 1.1 1.3 1.3 1.8 1.0 2.7 4.0 4.5 3.3 1.2 1.4 2.6 3.7 6.3 7.5 8.5 8.5 7.9 6.2 6.5 6.1 5.8 7.2 7.7 7.4 7.2 6.1 5.0 5.1 5.1 4.5 3.6 4.1 3.6 3.2 3.0 2.8 3.7 4.0 3.6 3.4 3.7 3.7 4.2 4.1 3.5 4.1
1.0 0.0 0.0 1.6 3.1 3.9 3.6 2.3 1.1 0.4 0.2 0.3 1.4 1.6 0.6 0.6 1.0 1.6 2.5 4.3 6.2 7.5 8.9 9.8 10.4 9.0 10.3 9.6 8.7 7.9 7.0 7.8 7.7 6.3 3.5 3.8 4.5 5.4 6.2 5.7 5.5 6.2 5.1 4.7 3.4 3.4 3.2 3.9 4.5 4.8 5.0 4.7 4.7 5.3
0.9 0.9 1.8 3.1 2.4 1.5 1.1 0.4 0.2 0.1 1.0 1.1 1.0 0.7 0.2 0.4 1.1 1.7 2.4 3.4 5.5 7.8 10.2 11.1 10.9 12.1 10.9 9.7 10.4 11.2 11.3 10.0 8.1 5.7 4.6 3.7 3.0 4.8 6.2 6.6 6.9 5.3 5.4 5.5 5.7 6.8 4.8 5.9 5.9 7.1 6.7 6.8 6.8 6.9
1.7 2.1 2.2 2.1 1.4 0.9 1.1 1.9 2.9 2.8 2.4 1.9 1.5 1.3 0.9 0.2 0.7 1.3 2.1 3.1 4.2 6.2 8.9 10.7 12.4 12.9 11.2 10.3 10.3 9.5 9.6 9.5 9.1 8.0 6.7 6.5 6.5 6.6 7.3 7.2 6.5 7.2 7.2 6.7 5.5 5.7 5.2 4.1 3.4 4.0 4.1 4.6 5.0 4.0
2.8 1.6 0.8 0.6 0.8 2.8 3.6 3.2 2.6 2.1 1.8 1.4 1.1 0.7 1.4 1.4 1.0 0.6 1.1 1.8 2.9 5.0 7.1 9.2 10.1 11.1 10.0 9.4 8.0 7.8 6.2 7.0 6.7 7.2 6.8 6.5 6.0 6.2 6.5 6.8 7.5 7.4 7.3 8.2 7.3 6.8 6.5 5.8 6.9 6.6 6.7 6.7 6.3 5.6
4.0 3.1 2.1 2.5 3.3 2.9 3.3 2.1 2.6 2.7 2.0 1.6 0.8 0.5 0.5 1.2 1.4 0.2 0.6 1.4 2.4 4.2 6.1 6.9 8.3 9.4 9.4 8.7 7.8 7.8 6.9 9.4 8.7 7.8 8.3 7.6 6.6 6.7 7.6 7.7 7.2 7.8 8.1 8.2 8.5 8.4 8.9 8.5 8.2 7.3 7.2 7.1 7.2 7.0

GFSWCAN_prec_kuchsnow_147.txt.gz
Snowfall_Accumulation
0.0 0.0 0.0 0.0 0.0 0.0 0.0 0.0 0.0 0.0 0.0 0.0 0.0 0.0 0.0 0.0 0.0 0.0 0.0 0.0 0.0 0.0 0.0 0.0 0.0 0.0 0.0 0.0 0.0 0.0 0.0 0.0 0.0 1.6 1.4 1.2 0.3 0.0 0.3 0.0 0.1 0.2 1.2 1.5 1.4 2.6 0.4 0.0 0.0 0.0 0.0 0.0 0.0 0.0
0.0 0.0 0.0 0.0 0.0 0.0 0.0 0.0 0.0 0.0 0.0 0.0 0.0 0.0 0.0 0.0 0.0 0.0 0.0 0.0 0.0 0.0 0.0 0.0 0.0 0.0 0.0 0.0 0.0 0.0 0.0 0.2 0.9 1.8 3.5 3.1 2.9 2.4 0.8 0.7 0.0 0.2 0.0 0.2 0.3 0.0 0.0 0.0 0.0 0.0 0.0 0.0 0.0 0.0
0.0 0.0 0.0 0.0 0.0 0.0 0.0 0.0 0.0 0.0 0.0 0.0 0.0 0.0 0.0 0.0 0.0 0.0 0.0 0.0 0.0 0.0 0.0 0.0 0.0 0.0 0.0 0.0 0.0 0.1 0.0 0.0 0.0 1.6 2.2 1.0 3.1 1.3 0.8 1.1 0.4 0.1 0.1 0.0 0.0 0.0 0.0 0.0 0.0 0.0 0.0 0.0 0.0 0.0
0.0 0.0 0.0 0.0 0.0 0.0 0.0 0.0 0.0 0.0 0.0 0.0 0.0 0.0 0.0 0.0 0.0 0.0 0.0 0.0 0.0 0.0 2.6 0.0 0.0 0.0 0.0 0.0 0.0 0.0 0.0 0.0 0.0 0.9 3.7 3.7 1.6 0.4 0.3 0.2 0.1 0.0 0.0 0.1 0.0 0.0 0.0 0.0 0.0 0.0 0.0 0.0 0.0 0.0
0.0 0.0 0.0 0.0 0.0 0.0 0.0 0.0 0.0 0.0 0.0 0.0 0.0 0.0 0.0 0.0 0.0 0.0 0.0 0.0 0.0 0.4 2.2 0.4 0.0 0.0 0.0 0.0 0.0 0.0 0.0 0.0 0.1 3.4 5.5 5.1 1.0 1.0 0.2 0.6 0.5 0.0 0.0 0.0 0.0 0.0 0.0 0.0 0.0 0.0 0.0 0.0 0.0 0.0
0.0 0.0 0.0 0.0 0.0 0.0 0.0 0.0 0.0 0.0 0.0 0.0 0.0 0.0 0.0 0.0 0.0 0.0 0.0 0.0 0.0 0.0 3.0 5.9 0.0 0.0 0.0 0.0 0.0 0.0 0.0 0.0 0.1 1.5 3.1 1.1 0.0 1.3 2.8 2.0 0.0 0.0 0.0 0.0 0.0 0.0 0.0 0.0 0.0 0.0 0.0 0.0 0.0 0.0
0.0 0.0 0.0 0.0 0.0 0.0 0.0 0.0 0.0 0.0 0.0 0.0 0.0 0.0 0.0 0.0 0.0 0.0 0.0 0.0 0.0 0.0 1.5 14.7 3.5 0.0 0.0 0.0 0.0 0.0 0.0 0.1 0.3 0.5 2.4 0.6 0.0 1.2 4.0 1.5 0.0 0.0 0.0 0.0 0.0 0.0 0.0 0.0 0.0 0.0 0.0 0.0 0.0 0.0
0.0 0.0 0.0 0.0 0.0 0.0 0.0 0.0 0.0 0.0 0.0 0.0 0.0 0.0 0.0 0.0 0.0 0.0 0.0 0.0 0.0 0.0 1.2 15.2 5.8 1.0 0.0 0.1 0.1 0.0 0.2 1.1 2.0 1.8 2.1 0.6 0.5 1.1 5.5 0.0 0.0 0.0 0.0 0.0 0.0 0.0 0.0 0.0 0.0 0.0 0.0 0.0 0.0 0.0
0.0 0.0 0.0 0.0 0.0 0.0 0.0 0.0 0.0 0.0 0.0 0.0 0.0 0.0 0.0 0.0 0.0 0.0 0.0 0.0 0.0 0.0 13.0 7.7 5.1 5.4 0.0 0.0 0.1 0.4 0.7 6.5 1.3 5.4 1.7 0.8 2.2 5.4 0.0 0.0 0.0 0.0 0.1 0.0 0.0 0.0 0.0 0.0 0.0 0.0 0.0 0.0 0.0 0.0
0.0 0.0 0.0 0.0 0.0 0.0 0.0 0.0 0.0 0.0 0.0 0.0 0.0 0.0 14.2 0.0 0.0 0.0 0.0 1.2 8.9 8.2 6.5 9.4 0.7 2.8 0.1 0.0 1.8 1.0 2.2 3.9 10.2 0.9 0.0 2.7 1.2 0.0 0.0 0.0 0.1 0.0 0.0 0.0 0.0 0.0 0.0 0.0 0.0 0.0 0.0 0.0 0.0 0.0
0.0 0.0 0.0 0.0 0.0 0.0 0.0 0.0 0.0 0.0 0.0 0.0 7.3 9.7 0.0 0.0 0.0 0.0 22.5 23.0 11.9 11.6 2.9 0.6 0.1 1.3 0.0 3.1 3.6 2.1 7.7 5.1 13.7 3.5 2.4 5.0 2.9 1.4 0.3 0.2 0.0 0.0 0.0 0.0 0.0 0.0 0.0 0.0 0.0 0.0 0.0 0.0 0.0 0.0
0.0 0.0 0.0 0.0 0.0 0.0 0.0 0.0 0.0 0.0 3.0 0.0 0.0 0.0 0.0 9.2 17.1 24.5 22.9 10.8 7.2 0.9 0.1 0.6 1.3 1.4 0.8 0.6 3.7 4.6 9.7 11.4 10.1 1.5 6.7 6.2 3.4 2.1 0.9 0.1 0.0 0.0 0.0 0.0 0.0 0.0 0.0 0.0 0.0 0.0 0.0 0.0 0.0 0.0
0.0 0.0 0.0 0.0 0.0 0.0 0.0 0.0 0.0 0.0 0.0 0.0 11.4 32.2 30.4 26.8 31.9 21.7 13.5 4.8 1.1 0.0 0.1 1.4 2.0 0.4 1.0 2.6 6.8 10.4 13.0 8.0 2.3 7.2 2.8 1.9 0.7 0.7 1.6 0.8 0.1 0.0 0.7 1.2 0.5 0.2 0.0 0.0 0.0 0.0 0.1 1.0 0.6 1.3
0.0 0.0 0.0 0.0 0.0 0.0 0.0 0.0 0.0 0.0 2.7 25.5 46.2 57.5 28.8 23.5 6.3 2.3 0.4 0.0 0.0 0.0 0.3 0.5 0.9 2.0 1.2 6.2 6.8 12.9 5.5 6.6 8.0 4.5 0.4 0.3 0.0 0.1 0.2 0.6 0.6 0.6 0.1 0.2 0.4 0.5 0.2 0.4 0.6 0.4 0.7 0.3 0.3 0.3
0.0 0.0 0.0 0.0 0.0 0.0 0.0 0.0 0.0 0.0 7.4 48.2 35.8 32.6 15.4 2.1 0.4 0.2 0.4 0.1 0.0 0.0 0.2 0.0 0.1 1.3 3.9 8.9 5.6 3.3 9.1 3.7 1.3 0.6 0.0 0.0 0.1 0.1 0.1 0.6 2.5 1.8 1.0 0.4 0.2 0.1 0.5 0.6 0.5 0.2 0.0 0.0 0.0 0.0
0.0 0.0 0.0 0.0 0.0 0.0 0.0 0.0 0.0 0.0 38.0 44.5 31.7 17.6 3.4 0.3 0.6 0.2 0.1 0.1 0.0 0.0 0.0 0.9 4.6 9.4 8.8 6.5 7.7 5.2 7.2 4.3 1.4 0.3 0.0 0.0 0.1 0.2 0.4 1.4 1.9 0.7 0.8 1.1 0.8 0.0 0.0 0.0 0.0 0.0 0.0 0.0 0.0 0.0
0.0 0.0 0.0 0.0 0.0 0.0 0.0 2.1 4.4 44.7 59.0 50.3 23.1 3.3 0.6 0.8 0.3 0.3 0.2 0.1 0.0 0.9 2.6 5.1 10.2 8.2 3.6 6.5 3.0 0.2 0.9 0.7 0.0 0.2 0.0 0.0 0.0 0.0 0.5 0.9 1.7 0.8 1.1 1.6 1.2 0.3 0.0 0.0 0.0 0.0 0.0 0.0 0.0 0.0
0.0 0.0 0.0 0.0 0.0 0.0 1.3 13.9 38.0 55.8 54.9 19.7 5.3 1.8 1.5 0.9 0.4 0.2 0.2 0.5 1.2 2.3 3.1 6.0 3.2 5.8 7.6 4.5 1.2 0.5 0.2 0.0 0.0 0.0 0.0 0.0 0.0 0.0 0.0 0.6 1.3 1.5 1.5 1.2 0.7 0.0 0.3 0.1 0.1 0.1 0.2 0.2 0.2 0.3
0.0 0.0 0.0 0.0 0.0 3.2 48.3 52.0 33.0 42.6 21.3 6.7 3.6 3.4 2.1 0.7 0.0 0.0 0.0 0.4 0.9 1.8 3.7 6.3 10.7 8.2 1.2 0.3 0.2 0.0 0.0 0.0 0.1 0.0 0.0 0.0 0.0 0.0 0.0 0.0 0.0 0.0 0.5 0.6 0.6 0.4 0.2 0.1 0.1 0.2 0.3 0.5 0.6 0.7
0.0 0.0 0.0 0.0 0.0 28.6 46.3 44.1 19.0 16.4 10.7 7.4 5.5 6.0 3.7 1.7 0.4 0.3 0.1 0.1 0.5 3.7 8.6 10.2 3.0 0.2 0.0 0.1 0.2 0.2 0.0 0.0 0.0 0.0 0.0 0.0 0.0 0.0 0.0 0.0 0.0 0.0 0.0 0.0 0.0 0.0 0.0 0.0 0.0 0.0 0.0 0.0 0.0 0.0
0.0 0.0 0.0 0.0 10.9 31.9 30.4 21.3 18.0 12.2 9.8 9.6 10.9 7.7 8.1 3.7 2.7 1.7 3.2 1.1 7.7 10.4 6.2 1.7 0.1 0.0 0.2 0.1 0.0 0.0 0.1 0.0 0.0 0.0 0.0 0.0 0.0 0.0 0.0 0.0 0.0 0.0 0.1 0.0 0.0 0.0 0.0 0.0 0.0 0.0 0.0 0.0 0.0 0.0
0.3 0.0 2.2 0.7 40.9 34.8 27.5 10.3 10.4 9.8 8.1 12.1 13.6 10.9 12.0 10.9 9.6 8.3 6.3 12.5 14.8 5.3 1.3 0.6 0.6 0.8 0.4 0.4 0.3 0.8 0.0 0.4 0.0 0.0 0.0 0.0 0.0 0.0 0.0 0.0 0.0 0.0 0.1 0.0 0.0 0.0 0.0 0.0 0.0 0.0 0.0 0.0 0.0 0.0
0.0 1.0 23.7 31.4 43.8 28.7 26.5 10.2 10.8 11.6 15.1 17.9 14.8 15.3 17.1 14.0 13.4 10.3 18.7 12.1 6.4 3.2 2.0 1.7 1.4 1.7 1.6 1.0 0.6 0.2 0.1 0.0 0.0 0.2 0.1 0.0 0.0 0.0 0.0 0.0 0.0 0.0 0.1 0.0 0.0 0.4 0.2 0.0 0.0 0.0 0.0 0.1 0.0 0.1
0.0 33.8 47.0 41.0 24.7 20.4 12.5 14.2 8.8 7.8 13.6 15.0 14.9 14.2 11.0 12.2 13.8 16.0 12.5 4.0 3.2 3.4 2.8 3.6 2.9 1.4 1.8 1.8 2.0 1.5 0.9 0.5 0.2 0.1 0.7 0.5 0.2 0.0 0.0 0.0 0.0 0.0 0.0 0.0 0.6 0.5 0.1 0.0 0.0 0.4 0.3 0.1 0.4 1.5
52.8 54.6 32.6 28.5 13.5 7.7 5.2 6.9 8.0 7.7 7.7 9.7 10.3 11.2 9.6 10.1 13.7 10.2 4.8 3.2 4.9 6.5 5.3 3.9 3.0 2.8 2.0 2.9 2.0 2.1 1.7 2.5 2.8 1.4 0.5 1.2 1.0 1.2 0.4 0.6 0.3 0.1 0.2 0.5 0.6 0.2 0.0 0.7 0.7 0.5 0.3 0.8 1.4 1.6
42.7 21.0 19.0 6.2 1.7 0.1 0.8 2.1 3.7 4.6 5.1 7.2 8.1 7.5 8.7 10.0 8.3 6.3 3.4 3.8 5.9 7.4 7.6 6.4 4.4 2.7 3.4 2.8 4.3 3.8 3.0 2.5 2.0 3.1 2.9 2.4 1.6 2.4 2.0 1.5 1.3 2.1 0.7 0.7 0.5 2.0 2.0 1.5 1.2 0.8 2.1 1.9 2.5 3.6
21.0 9.3 4.1 0.2 0.4 0.3 0.6 1.0 1.2 2.0 5.1 5.0 4.2 4.1 6.0 10.1 5.7 2.6 2.3 4.0 6.1 7.1 7.5 7.4 6.4 5.2 4.7 4.8 4.7 4.5 4.4 3.9 4.0 1.6 3.3 3.8 3.3 2.2 1.7 2.5 1.3 0.9 0.9 2.0 2.4 2.5 2.5 2.4 2.2 3.0 3.7 4.2 3.9 3.6
3.5 0.1 0.5 0.2 0.1 0.3 1.0 1.1 1.3 1.3 1.8 1.0 2.7 4.0 4.5 3.3 1.2 1.4 2.6 3.7 6.3 7.5 8.5 8.5 7.9 6.2 6.5 6.1 5.8 7.2 7.7 7.4 7.2 6.1 5.0 5.1 5.1 4.7 3.9 4.3 3.7 3.2 3.0 2.9 3.8 4.1 3.8 3.5 3.7 3.7 4.2 4.1 3.5 4.1
1.5 0.0 0.0 1.6 3.1 3.9 3.6 2.3 1.1 0.4 0.2 0.3 1.4 1.6 0.6 0.6 1.0 1.6 2.5 4.3 6.2 7.5 8.9 9.8 10.4 9.0 10.3 9.6 8.7 7.9 7.0 8.2 8.6 6.8 3.7 4.0 4.5 5.4 6.6 6.1 5.8 6.4 5.3 4.8 3.5 3.5 3.2 3.9 4.6 4.8 5.0 4.7 4.7 5.7
0.9 0.9 1.8 3.1 2.4 1.5 1.1 0.4 0.2 0.1 1.0 1.1 1.0 0.7 0.2 0.4 1.1 1.7 2.4 3.4 5.5 7.8 10.2 11.1 10.9 12.1 10.9 9.7 10.4 11.2 11.7 10.5 8.7 6.6 5.3 4.2 3.4 5.1 6.5 6.9 7.3 5.6 5.7 5.8 5.9 6.8 4.8 5.9 5.9 7.1 7.0 7.2 7.3 7.7
1.7 2.1 2.2 2.1 1.4 0.9 1.1 1.9 2.9 2.8 2.4 1.9 1.5 1.3 0.9 0.2 0.7 1.3 2.1 3.1 4.2 6.2 8.9 10.7 12.5 13.1 11.8 10.7 10.9 10.1 10.4 10.2 9.9 8.8 7.5 7.3 7.2 7.3 7.8 7.7 6.9 7.7 7.5 7.1 5.8 5.9 5.5 4.4 3.6 4.2 4.2 4.7 5.3 4.5
2.8 1.6 0.8 0.6 0.8 2.8 3.6 3.2 2.6 2.1 1.8 1.4 1.1 0.7 1.4 1.4 1.0 0.6 1.1 2.0 3.2 5.5 7.7 9.9 10.5 11.5 10.5 9.8 8.4 8.4 6.7 7.3 6.8 7.2 7.2 6.8 6.2 6.4 6.7 7.1 7.9 7.8 7.7 8.5 7.5 7.0 6.8 6.2 7.4 7.0 7.1 7.2 6.7 6.2
4.0 3.1 2.1 2.5 3.3 2.9 3.3 2.1 2.6 2.7 2.0 1.6 0.8 0.5 0.5 1.2 1.8 0.3 0.7 1.8 2.4 4.8 6.5 7.2 8.5 9.7 9.8 9.1 8.3 8.3 7.2 9.5 8.7 7.8 8.4 7.7 6.6 6.7 7.6 7.7 7.2 7.9 8.5 8.7 8.9 8.6 9.1 8.8 8.6 7.7 7.6 7.6 7.8 7.8

GFSWCAN_prec_kuchsnow_150.txt.gz
Snowfall_Accumulation
0.0 0.0 0.0 0.0 0.0 0.0 0.0 0.0 0.0 0.0 0.0 0.0 0.0 0.0 0.0 0.0 0.0 0.0 0.0 0.0 0.0 0.0 0.0 0.0 0.0 0.0 0.0 0.0 0.0 0.0 0.0 0.0 0.1 1.8 1.6 1.2 0.3 0.0 0.3 0.0 0.1 0.2 1.2 1.5 1.4 2.6 0.4 0.0 0.0 0.0 0.0 0.0 0.0 0.0
0.0 0.0 0.0 0.0 0.0 0.0 0.0 0.0 0.0 0.0 0.0 0.0 0.0 0.0 0.0 0.0 0.0 0.0 0.0 0.0 0.0 0.0 0.0 0.0 0.0 0.0 0.0 0.0 0.0 0.0 0.0 0.2 0.9 2.5 4.1 3.5 3.3 2.7 0.9 0.9 0.0 0.2 0.0 0.2 0.3 0.0 0.0 0.0 0.0 0.0 0.0 0.0 0.0 0.0
0.0 0.0 0.0 0.0 0.0 0.0 0.0 0.0 0.0 0.0 0.0 0.0 0.0 0.0 0.0 0.0 0.0 0.0 0.0 0.0 0.0 0.0 0.0 0.0 0.0 0.0 0.0 0.0 0.0 0.1 0.0 0.0 0.0 1.6 2.2 1.0 4.1 1.3 1.2 1.2 0.4 0.1 0.1 0.0 0.0 0.0 0.0 0.0 0.0 0.0 0.0 0.0 0.0 0.0
0.0 0.0 0.0 0.0 0.0 0.0 0.0 0.0 0.0 0.0 0.0 0.0 0.0 0.0 0.0 0.0 0.0 0.0 0.0 0.0 0.0 0.0 2.6 0.0 0.0 0.0 0.0 0.0 0.0 0.0 0.0 0.0 0.0 0.9 3.7 4.8 2.5 0.4 0.6 0.2 0.1 0.0 0.0 0.1 0.0 0.0 0.0 0.0 0.0 0.0 0.0 0.0 0.0 0.0
0.0 0.0 0.0 0.0 0.0 0.0 0.0 0.0 0.0 0.0 0.0 0.0 0.0 0.0 0.0 0.0 0.0 0.0 0.0 0.0 0.0 0.4 2.2 0.4 0.0 0.0 0.0 0.0 0.0 0.0 0.0 0.0 0.1 3.7 6.4 6.0 1.3 1.3 0.4 0.7 0.6 0.0 0.0 0.0 0.0 0.0 0.0 0.0 0.0 0.0 0.0 0.0 0.0 0.0
0.0 0.0 0.0 0.0 0.0 0.0 0.0 0.0 0.0 0.0 0.0 0.0 0.0 0.0 0.0 0.0 0.0 0.0 0.0 0.0 0.0 0.0 3.0 6.2 0.0 0.0 0.0 0.0 0.0 0.0 0.0 0.0 0.1 1.5 3.2 1.1 0.0 1.3 3.4 2.0 0.0 0.0 0.0 0.0 0.0 0.0 0.0 0.0 0.0 0.0 0.0 0.0 0.0 0.0
0.0 0.0 0.0 0.0 0.0 0.0 0.0 0.0 0.0 0.0 0.0 0.0 0.0 0.0 0.0 0.0 0.0 0.0 0.0 0.0 0.0 0.0 1.6 14.9 3.5 0.0 0.0 0.0 0.0 0.0 0.0 0.1 0.3 0.5 2.7 0.7 0.1 1.2 4.9 2.1 0.0 0.0 0.0 0.0 0.0 0.0 0.0 0.0 0.0 0.0 0.0 0.0 0.0 0.0
0.0 0.0 0.0 0.0 0.0 0.0 0.0 0.0 0.0 0.0 0.0 0.0 0.0 0.0 0.0 0.0 0.0 0.0 0.0 0.0 0.0 0.0 1.3 15.2 5.8 1.0 0.0 0.1 0.1 0.0 0.2 1.1 2.0 1.9 2.2 1.0 0.7 1.1 6.3 0.0 0.0 0.0 0.0 0.0 0.0 0.0 0.0 0.0 0.0 0.0 0.0 0.0 0.0 0.0
0.0 0.0 0.0 0.0 0.0 0.0 0.0 0.0 0.0 0.0 0.0 0.0 0.0 0.0 0.0 0.0 0.0 0.0 0.0 0.0 0.0 0.0 13.0 7.7 5.1 5.4 0.0 0.0 0.1 0.4 0.7 6.6 1.3 5.4 1.7 0.9 2.2 5.9 0.0 0.0 0.0 0.0 0.1 0.0 0.0 0.0 0.0 0.0 0.0 0.0 0.0 0.0 0.0 0.0
0.0 0.0 0.0 0.0 0.0 0.0 0.0 0.0 0.0 0.0 0.0 0.0 0.0 0.0 14.2 0.0 0.0 0.0 0.0 1.2 8.9 8.4 6.7 9.4 0.7 2.8 0.1 0.0 1.8 1.0 2.2 3.9 10.2 1.1 0.0 3.3 1.6 0.0 0.0 0.0 0.1 0.0 0.0 0.0 0.0 0.0 0.0 0.0 0.0 0.0 0.0 0.0 0.0 0.0
0.0 0.0 0.0 0.0 0.0 0.0 0.0 0.0 0.0 0.0 0.0 0.0 7.3 9.7 0.0 0.0 0.0 0.0 22.5 23.1 12.1 12.2 3.3 0.7 0.1 1.3 0.0 3.1 3.8 2.5 8.0 5.4 14.1 3.5 2.4 5.0 2.9 1.4 0.3 0.2 0.0 0.0 0.0 0.0 0.0 0.0 0.0 0.0 0.0 0.0 0.0 0.0 0.0 0.0
0.0 0.0 0.0 0.0 0.0 0.0 0.0 0.0 0.0 0.0 3.0 0.0 0.0 0.0 0.0 9.2 17.1 24.7 23.2 10.8 7.2 0.9 0.1 0.6 1.3 1.4 0.9 0.8 4.4 5.1 10.2 11.6 10.2 1.5 6.7 6.5 3.4 2.1 0.9 0.1 0.0 0.0 0.0 0.0 0.1 0.1 0.0 0.0 0.0 0.0 0.0 0.0 0.0 0.0
0.0 0.0 0.0 0.0 0.0 0.0 0.0 0.0 0.0 0.0 0.0 0.0 12.1 33.8 31.3 27.2 32.4 22.4 13.5 4.9 1.1 0.0 0.1 1.4 2.0 0.7 1.1 2.8 7.3 10.4 13.0 9.9 3.3 8.5 3.3 1.9 0.7 0.8 1.6 0.8 0.1 0.0 0.7 1.2 0.6 0.2 0.0 0.0 0.0 0.0 0.1 1.0 0.6 1.3
0.0 0.0 0.0 0.0 0.0 0.0 0.0 0.0 0.0 0.0 2.7 27.9 48.1 59.2 29.8 24.1 6.6 2.3 0.4 0.0 0.0 0.0 0.3 0.5 0.9 2.4 1.4 6.5 6.8 12.9 5.5 6.6 8.0 4.5 0.4 0.3 0.4 0.3 0.3 0.6 0.6 0.6 0.1 0.2 0.4 0.5 0.2 0.4 0.6 0.4 0.7 0.3 0.3 0.3
0.0 0.0 0.0 0.0 0.0 0.0 0.0 0.0 0.0 0.0 8.6 51.4 37.6 33.6 15.4 2.1 0.4 0.2 0.4 0.1 0.0 0.0 0.2 0.0 0.1 1.6 3.9 8.9 5.8 3.3 9.3 3.7 1.3 0.6 0.0 0.0 0.1 0.1 0.1 0.6 2.5 1.8 1.0 0.4 0.2 0.1 0.5 0.6 0.5 0.2 0.0 0.0 0.0 0.0
0.0 0.0 0.0 0.0 0.0 0.0 0.0 0.0 0.0 0.0 40.8 47.0 33.4 18.2 3.4 0.3 0.6 0.2 0.1 0.1 0.0 0.0 0.0 1.2 5.0 9.9 8.9 6.6 7.7 5.2 7.2 4.3 1.4 0.3 0.0 0.0 0.1 0.2 0.4 1.4 1.9 0.7 0.8 1.1 0.8 0.0 0.0 0.0 0.0 0.0 0.0 0.0 0.0 0.0
0.0 0.0 0.0 0.0 0.0 0.0 0.0 2.1 4.4 45.7 60.8 52.5 24.2 3.3 0.6 0.8 0.3 0.3 0.2 0.1 0.0 1.1 2.8 5.5 11.5 8.7 3.9 6.7 3.0 0.2 0.9 0.7 0.0 0.2 0.0 0.0 0.0 0.0 0.5 0.9 1.7 0.8 1.1 1.6 1.2 0.3 0.0 0.0 0.0 0.0 0.0 0.0 0.0 0.0
0.1 0.0 0.0 0.0 0.0 0.0 1.3 14.2 39.1 57.3 56.0 19.7 5.3 1.8 1.5 0.9 0.4 0.2 0.2 0.5 1.2 2.3 3.2 6.0 3.9 7.0 8.3 4.6 1.2 0.5 0.2 0.0 0.0 0.0 0.0 0.0 0.0 0.0 0.0 0.6 1.3 1.5 1.5 1.2 0.7 0.0 0.3 0.1 0.1 0.1 0.2 0.2 0.2 0.3
0.0 0.0 0.0 0.0 0.0 3.8 49.4 52.7 33.0 43.3 21.3 6.7 3.6 3.4 2.1 0.7 0.0 0.0 0.0 0.4 0.9 1.8 3.7 7.4 12.5 9.4 1.2 0.3 0.2 0.0 0.0 0.0 0.1 0.0 0.0 0.0 0.0 0.0 0.0 0.0 0.0 0.0 0.5 0.6 0.6 0.4 0.2 0.1 0.1 0.2 0.3 0.5 0.6 0.7
0.0 0.0 0.0 0.0 0.0 29.6 48.2 45.1 19.4 16.4 10.7 7.4 5.5 6.0 3.7 1.7 0.4 0.3 0.1 0.1 0.5 3.7 8.6 10.9 3.0 0.2 0.0 0.1 0.2 0.2 0.0 0.0 0.0 0.0 0.0 0.0 0.0 0.0 0.0 0.0 0.0 0.0 0.0 0.0 0.0 0.0 0.0 0.0 0.0 0.0 0.0 0.0 0.0 0.0
0.0 0.0 0.0 0.0 11.6 33.2 32.3 21.3 18.0 12.2 9.8 9.6 10.9 7.7 8.1 3.7 2.7 1.7 3.2 1.1 7.7 10.5 6.2 1.7 0.1 0.0 0.2 0.1 0.0 0.0 0.1 0.0 0.0 0.0 0.0 0.0 0.0 0.0 0.0 0.0 0.0 0.0 0.1 0.0 0.0 0.0 0.0 0.0 0.0 0.0 0.0 0.0 0.0 0.0
0.3 0.0 2.2 0.7 42.5 36.5 29.1 10.3 11.1 10.2 8.1 12.1 13.6 10.9 12.0 10.9 9.6 8.3 6.3 12.5 14.8 5.3 1.3 0.6 0.6 0.8 0.4 0.4 0.3 0.8 0.0 0.4 0.0 0.0 0.0 0.0 0.0 0.0 0.0 0.0 0.0 0.0 0.1 0.0 0.0 0.0 0.0 0.0 0.0 0.0 0.0 0.0 0.0 0.0
0.0 1.1 24.5 32.1 45.3 30.3 26.5 10.3 10.9 11.6 15.2 17.9 14.8 15.3 17.1 14.0 13.4 10.3 18.7 12.1 6.4 3.2 2.0 1.7 1.4 1.7 1.6 1.0 0.6 0.2 0.1 0.0 0.0 0.2 0.1 0.0 0.0 0.0 0.0 0.0 0.0 0.0 0.1 0.0 0.0 0.4 0.2 0.0 0.0 0.0 0.0 0.1 0.0 0.1
0.0 35.5 48.5 42.9 26.0 21.3 12.9 14.4 8.9 7.8 13.6 15.3 14.9 14.2 11.0 12.2 13.8 16.0 12.5 4.0 3.2 3.4 2.8 3.6 2.9 1.4 1.8 1.8 2.0 1.5 0.9 0.5 0.2 0.1 0.7 0.5 0.2 0.0 0.0 0.0 0.0 0.0 0.0 0.0 0.6 0.5 0.3 0.1 0.0 0.4 0.3 0.1 0.4 1.5
56.4 57.9 34.8 30.2 14.5 8.3 5.5 7.0 8.1 7.8 7.7 9.7 10.3 11.2 9.6 10.1 13.7 10.2 4.8 3.2 4.9 6.5 5.3 3.9 3.0 2.8 2.0 2.9 2.0 2.1 1.7 2.5 2.8 1.4 0.5 1.2 1.0 1.2 0.4 0.6 0.3 0.1 0.2 0.5 1.5 0.6 0.3 0.9 0.9 0.6 0.4 0.8 1.4 1.6
44.9 21.0 20.2 6.8 2.3 0.3 0.8 2.1 3.7 4.6 5.1 7.2 8.1 7.5 8.7 10.0 8.3 6.3 3.4 3.8 5.9 7.4 7.6 6.4 4.4 2.7 3.4 2.8 4.3 3.8 3.0 2.5 2.0 3.1 2.9 2.4 1.6 2.4 2.0 1.5 1.3 2.1 0.7 1.5 1.5 2.6 2.3 1.6 1.4 0.9 2.2 1.9 2.5 3.6
21.9 9.5 4.1 0.2 0.4 0.3 0.6 1.0 1.2 2.0 5.2 5.0 4.2 4.1 6.0 10.1 5.7 2.6 2.3 4.0 6.1 7.1 7.5 7.4 6.4 5.2 4.7 4.8 4.7 4.5 4.4 3.9 4.0 1.6 3.3 3.8 3.3 2.2 2.1 3.6 1.9 0.9 0.9 2.5 3.1 2.8 2.8 2.7 2.6 3.4 3.9 4.2 3.9 3.6
3.5 0.1 0.5 0.2 0.1 0.3 1.0 1.1 1.3 1.3 1.8 1.0 2.7 4.0 4.5 3.3 1.2 1.4 2.6 3.7 6.3 7.5 8.5 8.5 7.9 6.2 6.5 6.1 5.8 7.2 7.7 7.4 7.2 6.1 5.0 5.1 5.1 4.9 4.4 4.8 4.0 3.4 3.4 3.4 4.4 4.3 4.0 3.7 4.0 3.9 4.4 4.2 3.6 4.1
1.5 0.0 0.0 1.6 3.1 3.9 3.6 2.3 1.1 0.4 0.2 0.3 1.4 1.6 0.6 0.6 1.0 1.6 2.5 4.3 6.2 7.5 8.9 9.8 10.4 9.0 10.3 9.6 8.7 7.9 7.0 8.2 9.2 7.4 3.7 4.0 4.7 5.7 7.1 6.5 6.2 6.8 5.8 5.4 3.9 3.8 3.3 3.9 4.7 5.1 5.1 4.8 4.7 5.7
0.9 0.9 1.8 3.1 2.4 1.5 1.1 0.4 0.2 0.1 1.0 1.1 1.0 0.7 0.2 0.4 1.1 1.7 2.4 3.4 5.5 7.8 10.2 11.1 10.9 12.1 10.9 9.7 10.4 11.2 11.7 11.2 9.3 7.4 5.9 4.6 3.8 5.5 7.1 7.5 7.8 6.2 6.4 6.6 6.5 7.3 5.1 5.9 6.0 7.3 7.3 7.5 7.5 8.0
1.7 2.1 2.2 2.1 1.4 0.9 1.1 1.9 2.9 2.8 2.4 1.9 1.5 1.3 0.9 0.2 0.7 1.3 2.1 3.1 4.2 6.2 9.3 10.9 12.6 13.4 12.3 10.7 10.9 10.4 10.4 10.7 10.5 9.5 8.4 8.1 7.9 8.0 8.5 8.3 7.6 8.4 8.3 8.0 6.4 6.4 5.8 4.6 3.7 4.4 4.4 4.9 5.5 4.7
2.8 1.6 0.8 0.6 0.8 2.8 3.6 3.2 2.6 2.1 1.8 1.4 1.1 0.7 1.4 1.4 1.0 0.6 1.1 2.7 4.4 6.8 8.7 10.7 11.2 11.8 10.9 10.0 8.7 8.8 7.0 7.6 7.3 7.7 7.7 7.4 6.8 6.8 7.0 7.3 8.1 8.3 8.3 9.1 8.0 7.5 7.1 6.5 7.6 7.3 7.4 7.6 7.2 6.6
4.0 3.1 2.1 2.5 3.3 2.9 3.3 2.1 2.6 2.7 2.0 1.6 0.8 0.5 0.5 1.2 1.8 0.8 1.6 2.7 3.2 5.2 6.8 7.2 8.5 10.4 10.4 9.6 8.7 8.8 7.7 9.8 8.9 7.9 8.5 7.8 6.8 6.8 7.6 7.7 7.2 7.9 8.7 9.1 9.4 9.1 9.4 9.0 8.8 8.0 7.8 7.9 8.2 8.2

GFSWCAN_prec_kuchsnow_153.txt.gz
Snowfall_Accumulation
0.0 0.0 0.0 0.0 0.0 0.0 0.0 0.0 0.0 0.0 0.0 0.0 0.0 0.0 0.0 0.0 0.0 0.0 0.0 0.0 0.0 0.0 0.0 0.0 0.0 0.0 0.0 0.0 0.0 0.0 0.0 0.0 0.1 2.1 1.9 1.2 0.7 0.1 0.4 0.0 0.1 0.2 1.2 1.7 1.7 3.0 0.6 0.0 0.0 0.0 0.0 0.0 0.0 0.0
0.0 0.0 0.0 0.0 0.0 0.0 0.0 0.0 0.0 0.0 0.0 0.0 0.0 0.0 0.0 0.0 0.0 0.0 0.0 0.0 0.0 0.0 0.0 0.0 0.0 0.0 0.0 0.0 0.0 0.0 0.0 0.2 0.9 2.8 4.4 3.5 3.7 3.0 1.2 1.2 0.0 0.5 0.0 0.2 0.3 0.0 0.0 0.0 0.0 0.0 0.0 0.0 0.0 0.0
0.0 0.0 0.0 0.0 0.0 0.0 0.0 0.0 0.0 0.0 0.0 0.0 0.0 0.0 0.0 0.0 0.0 0.0 0.0 0.0 0.0 0.0 0.0 0.0 0.0 0.0 0.0 0.0 0.0 0.1 0.0 0.0 0.0 1.6 2.2 1.0 4.6 1.3 1.2 1.2 0.4 0.1 0.1 0.0 0.0 0.0 0.0 0.0 0.0 0.0 0.0 0.0 0.0 0.0
0.0 0.0 0.0 0.0 0.0 0.0 0.0 0.0 0.0 0.0 0.0 0.0 0.0 0.0 0.0 0.0 0.0 0.0 0.0 0.0 0.0 0.0 2.6 0.0 0.0 0.0 0.0 0.0 0.0 0.0 0.0 0.0 0.0 0.9 4.2 5.9 3.4 0.6 0.9 0.2 0.3 0.1 0.0 0.1 0.0 0.0 0.0 0.0 0.0 0.0 0.0 0.0 0.0 0.0
0.0 0.0 0.0 0.0 0.0 0.0 0.0 0.0 0.0 0.0 0.0 0.0 0.0 0.0 0.0 0.0 0.0 0.0 0.0 0.0 0.0 0.4 2.2 0.4 0.0 0.0 0.0 0.0 0.0 0.0 0.0 0.0 0.1 3.9 6.6 6.3 1.3 1.3 0.4 0.8 0.7 0.0 0.0 0.0 0.0 0.0 0.0 0.0 0.0 0.0 0.0 0.0 0.0 0.0
0.0 0.0 0.0 0.0 0.0 0.0 0.0 0.0 0.0 0.0 0.0 0.0 0.0 0.0 0.0 0.0 0.0 0.0 0.0 0.0 0.0 0.0 3.2 6.5 0.0 0.0 0.0 0.0 0.0 0.0 0.0 0.0 0.1 1.5 3.2 1.1 0.0 1.3 4.2 2.3 0.0 0.0 0.0 0.0 0.0 0.0 0.0 0.0 0.0 0.0 0.0 0.0 0.0 0.0
0.0 0.0 0.0 0.0 0.0 0.0 0.0 0.0 0.0 0.0 0.0 0.0 0.0 0.0 0.0 0.0 0.0 0.0 0.0 0.0 0.0 0.0 1.6 14.9 3.5 0.0 0.0 0.0 0.0 0.0 0.0 0.1 0.3 0.5 2.7 0.7 0.1 1.3 5.3 2.6 0.0 0.0 0.0 0.0 0.0 0.0 0.0 0.0 0.0 0.0 0.0 0.0 0.0 0.0
0.0 0.0 0.0 0.0 0.0 0.0 0.0 0.0 0.0 0.0 0.0 0.0 0.0 0.0 0.0 0.0 0.0 0.0 0.0 0.0 0.0 0.0 1.4 15.4 5.8 1.0 0.0 0.1 0.1 0.0 0.2 1.1 2.0 1.9 2.2 1.0 0.7 1.5 7.5 0.0 0.0 0.0 0.0 0.0 0.0 0.0 0.0 0.0 0.0 0.0 0.0 0.0 0.0 0.0
0.0 0.0 0.0 0.0 0.0 0.0 0.0 0.0 0.0 0.0 0.0 0.0 0.0 0.0 0.0 0.0 0.0 0.0 0.0 0.0 0.0 0.0 13.0 7.7 5.1 5.4 0.0 0.0 0.1 0.4 0.7 6.7 1.3 5.5 1.7 1.1 2.2 6.1 0.0 0.0 0.0 0.0 0.1 0.0 0.0 0.0 0.0 0.0 0.0 0.0 0.0 0.0 0.0 0.0
0.0 0.0 0.0 0.0 0.0 0.0 0.0 0.0 0.0 0.0 0.0 0.0 0.0 0.0 14.2 0.0 0.0 0.0 0.0 1.2 9.1 8.6 6.9 9.4 0.7 2.8 0.1 0.0 1.8 1.0 2.2 3.9 10.2 1.1 0.1 3.6 1.6 0.0 0.0 0.0 0.1 0.0 0.1 0.1 0.0 0.0 0.0 0.0 0.0 0.0 0.0 0.0 0.0 0.0
0.0 0.0 0.0 0.0 0.0 0.0 0.0 0.0 0.0 0.0 0.0 0.0 7.3 9.7 0.0 0.0 0.0 0.0 22.5 23.3 12.1 12.8 3.7 0.8 0.1 1.3 0.0 3.1 3.8 2.5 8.0 5.4 14.7 3.5 2.5 5.1 2.9 1.4 0.3 0.2 0.0 0.0 0.0 0.1 0.1 0.0 0.0 0.0 0.0 0.0 0.0 0.0 0.0 0.0
0.0 0.0 0.0 0.0 0.0 0.0 0.0 0.0 0.0 0.0 3.0 0.0 0.0 0.0 0.0 9.2 17.1 24.9 23.6 10.8 7.2 0.9 0.1 0.6 1.3 1.4 1.0 1.1 5.8 6.1 11.3 12.4 10.8 1.5 7.4 6.9 3.4 2.1 0.9 0.1 0.0 0.0 0.0 0.0 0.1 0.1 0.0 0.0 0.0 0.0 0.0 0.0 0.0 0.0
0.0 0.0 0.0 0.0 0.0 0.0 0.0 0.0 0.0 0.0 0.0 0.0 13.1 35.7 32.6 27.9 33.0 23.0 13.5 4.9 1.1 0.0 0.1 1.6 2.0 0.9 1.1 3.2 8.0 10.4 13.0 9.9 3.3 8.8 3.3 1.9 0.7 0.8 1.6 0.8 0.1 0.0 0.7 1.2 0.6 0.2 0.0 0.0 0.0 0.0 0.1 1.0 0.6 1.3
0.0 0.0 0.0 0.0 0.0 0.0 0.0 0.0 0.0 0.0 2.7 30.0 50.5 61.3 30.3 24.4 6.6 2.3 0.4 0.0 0.0 0.0 0.3 0.5 0.9 2.4 1.4 6.5 7.2 13.3 5.6 6.6 8.0 4.5 0.4 0.3 0.4 0.3 0.3 0.6 0.6 0.6 0.1 0.2 0.4 0.5 0.2 0.4 0.6 0.4 0.7 0.3 0.3 0.3
0.0 0.0 0.0 0.0 0.0 0.0 0.0 0.0 0.0 0.0 9.5 53.7 39.3 35.2 16.2 2.2 0.4 0.2 0.4 0.1 0.0 0.0 0.4 0.2 0.2 1.7 3.9 9.2 6.1 3.7 9.5 3.7 1.3 0.6 0.0 0.0 0.1 0.1 0.1 0.6 2.5 1.8 1.0 0.4 0.2 0.1 0.5 0.6 0.5 0.2 0.0 0.0 0.0 0.0
0.0 0.0 0.0 0.0 0.0 0.0 0.0 0.0 0.0 0.0 42.8 49.3 35.2 18.2 3.4 0.3 0.6 0.2 0.2 0.1 0.1 0.1 0.2 1.5 5.6 10.7 9.3 7.1 8.2 5.6 7.4 4.3 1.4 0.3 0.0 0.0 0.1 0.2 0.4 1.4 1.9 0.7 0.8 1.1 0.8 0.0 0.0 0.0 0.0 0.0 0.0 0.0 0.0 0.0
0.0 0.0 0.0 0.0 0.0 0.0 0.0 2.1 4.8 47.0 61.9 53.1 24.2 3.3 0.6 0.8 0.5 0.3 0.3 0.1 0.0 1.1 3.0 6.0 12.0 9.2 3.9 6.7 3.0 0.2 0.9 0.7 0.0 0.2 0.0 0.0 0.0 0.0 0.5 0.9 1.7 0.8 1.1 1.6 1.2 0.3 0.0 0.0 0.0 0.0 0.0 0.0 0.0 0.0
0.1 0.0 0.0 0.0 0.0 0.0 1.3 14.5 40.2 58.7 57.4 19.7 5.3 1.8 1.5 0.9 0.4 0.2 0.2 0.5 1.2 2.3 3.2 6.3 4.1 7.0 8.7 4.9 1.2 0.5 0.2 0.0 0.0 0.0 0.0 0.0 0.0 0.0 0.0 0.6 1.3 1.5 1.5 1.2 0.7 0.0 0.3 0.1 0.1 0.1 0.2 0.2 0.2 0.3
0.0 0.0 0.0 0.0 0.0 4.5 50.9 53.8 33.0 43.7 21.3 6.7 3.6 3.4 2.1 0.7 0.0 0.0 0.0 0.4 0.9 1.8 3.7 8.1 13.5 9.7 1.2 0.3 0.2 0.0 0.0 0.0 0.1 0.0 0.0 0.0 0.0 0.0 0.0 0.0 0.0 0.0 0.5 0.6 0.6 0.4 0.2 0.1 0.1 0.2 0.3 0.5 0.6 0.7
0.0 0.0 0.0 0.0 0.0 30.8 50.4 46.8 20.2 16.9 10.7 7.4 5.5 6.0 3.7 1.7 0.4 0.3 0.1 0.1 0.5 3.7 8.9 11.3 3.0 0.2 0.0 0.1 0.2 0.2 0.0 0.0 0.0 0.0 0.0 0.0 0.0 0.0 0.0 0.0 0.0 0.0 0.0 0.0 0.0 0.0 0.0 0.0 0.0 0.0 0.0 0.0 0.0 0.0
0.0 0.0 0.0 0.0 12.1 34.6 33.8 21.3 18.0 12.2 9.8 9.6 10.9 7.7 8.1 3.7 2.7 1.7 3.2 1.1 7.7 10.7 6.2 1.7 0.1 0.0 0.2 0.1 0.0 0.0 0.1 0.0 0.0 0.0 0.0 0.0 0.0 0.0 0.0 0.0 0.0 0.0 0.1 0.0 0.0 0.0 0.0 0.0 0.0 0.0 0.0 0.0 0.0 0.0
0.3 0.0 2.2 0.7 43.9 38.0 31.1 11.6 11.7 10.2 8.1 12.1 13.6 10.9 12.0 10.9 9.6 8.3 6.3 12.5 14.8 5.3 1.3 0.6 0.6 0.8 0.4 0.4 0.3 0.8 0.0 0.4 0.0 0.0 0.0 0.0 0.0 0.0 0.0 0.0 0.0 0.0 0.1 0.0 0.0 0.0 0.0 0.0 0.0 0.0 0.0 0.0 0.0 0.0
0.0 1.2 25.1 32.5 46.2 31.2 26.5 10.3 10.9 11.6 15.2 17.9 14.8 15.3 17.1 14.0 13.4 10.3 18.7 12.1 6.4 3.2 2.0 1.7 1.4 1.7 1.6 1.0 0.6 0.2 0.1 0.0 0.0 0.2 0.1 0.0 0.0 0.0 0.0 0.0 0.0 0.0 0.1 0.0 0.0 0.4 0.2 0.0 0.0 0.0 0.0 0.2 0.1 0.2
0.0 36.7 50.2 44.8 26.9 22.0 12.9 14.7 9.0 7.8 13.7 15.4 14.9 14.2 11.0 12.2 13.8 16.0 12.5 4.0 3.2 3.4 2.8 3.6 2.9 1.4 1.8 1.8 2.0 1.5 0.9 0.5 0.2 0.1 0.7 0.5 0.2 0.0 0.0 0.0 0.0 0.0 0.0 0.0 0.6 0.5 0.3 0.1 0.0 0.6 0.6 0.3 0.5 1.7
59.4 60.5 35.8 31.5 15.2 8.6 5.5 7.3 8.3 7.9 7.7 9.7 10.3 11.2 9.6 10.1 13.7 10.2 4.8 3.2 4.9 6.5 5.3 3.9 3.0 2.8 2.0 2.9 2.0 2.1 1.7 2.5 2.8 1.4 0.5 1.2 1.0 1.2 0.4 0.6 0.3 0.1 0.2 0.5 1.5 0.6 0.3 0.9 0.9 0.6 0.7 1.1 1.6 1.7
46.8 21.5 21.4 6.8 2.3 0.3 1.0 2.1 3.7 4.6 5.1 7.2 8.1 7.5 8.7 10.0 8.3 6.4 3.4 3.8 5.9 7.4 7.6 6.4 4.4 2.7 3.4 2.8 4.3 3.8 3.0 2.5 2.0 3.1 2.9 2.4 1.6 2.4 2.0 1.5 1.3 2.1 0.7 1.9 2.3 3.1 2.7 1.8 1.7 1.2 2.5 2.1 2.5 3.7
22.8 9.7 4.1 0.2 0.4 0.3 0.7 1.0 1.2 2.0 5.2 5.0 4.2 4.1 6.0 10.3 5.7 2.6 2.3 4.0 6.1 7.1 7.5 7.4 6.4 5.2 4.7 4.8 4.7 4.5 4.4 3.9 4.0 1.6 3.3 3.8 3.3 2.2 2.1 4.6 2.7 1.0 1.1 3.3 4.0 3.5 3.3 2.9 2.7 3.6 3.9 4.2 4.1 3.6
3.5 0.1 0.5 0.2 0.1 0.3 1.0 1.1 1.3 1.3 1.8 1.0 2.7 4.0 4.5 3.3 1.2 1.4 2.6 3.7 6.3 7.5 8.5 8.5 7.9 6.2 6.5 6.1 5.8 7.2 7.7 7.4 7.2 6.1 5.0 5.1 5.1 5.3 5.0 5.4 4.4 3.7 3.7 3.9 5.0 4.9 4.5 4.0 4.1 4.0 4.4 4.4 3.6 4.1
1.5 0.0 0.0 1.6 3.1 3.9 3.6 2.3 1.1 0.4 0.2 0.3 1.4 1.6 0.6 0.6 1.0 1.6 2.5 4.3 6.2 7.5 8.9 9.8 10.4 9.0 10.3 9.6 8.7 7.9 7.0 8.4 9.7 7.8 3.7 4.0 4.7 6.1 7.9 7.2 6.7 7.3 6.3 5.8 4.2 4.4 4.0 4.3 4.9 5.2 5.1 4.9 4.7 5.8
0.9 0.9 1.8 3.1 2.4 1.5 1.1 0.4 0.2 0.1 1.0 1.1 1.0 0.7 0.2 0.4 1.1 1.7 2.4 3.4 5.5 7.8 10.2 11.1 11.1 12.5 11.3 9.8 10.4 11.2 11.7 11.7 10.0 8.2 6.4 4.6 4.1 6.0 7.7 8.3 8.6 6.8 6.9 7.0 7.0 8.0 5.7 6.3 6.2 7.5 7.5 7.7 7.7 8.2
1.7 2.1 2.2 2.1 1.4 0.9 1.1 1.9 2.9 2.8 2.4 1.9 1.5 1.3 0.9 0.2 0.7 1.3 2.1 3.2 4.4 6.6 9.8 11.3 12.6 14.1 13.1 10.9 11.1 10.5 10.4 10.7 10.8 9.8 8.9 8.7 8.5 8.7 9.1 9.0 8.4 9.0 8.8 8.5 7.0 7.1 6.5 5.0 4.0 4.5 4.6 4.9 5.5 4.9
2.8 1.6 0.8 0.6 0.8 2.8 3.6 3.2 2.6 2.1 1.8 1.4 1.1 0.7 1.4 1.4 1.0 0.6 1.2 3.2 5.3 7.9 9.7 10.7 11.7 12.2 10.9 10.7 9.2 9.3 7.3 7.9 7.6 8.1 8.3 8.2 7.4 6.8 7.4 7.7 8.3 8.4 8.6 9.6 8.6 8.0 7.5 6.7 7.8 7.4 7.5 7.8 7.3 6.8
4.0 3.1 2.1 2.5 3.3 2.9 3.3 2.1 2.6 2.7 2.0 1.6 0.8 0.5 0.5 1.2 1.8 0.8 1.6 2.7 4.0 5.7 6.8 7.2 8.5 10.6 10.4 9.6 9.5 9.4 8.2 10.3 9.3 8.2 8.8 8.0 6.9 6.9 7.7 7.7 7.2 8.0 8.8 9.5 10.0 9.6 9.8 9.3 9.0 8.1 8.0 8.0 8.4 8.5